     2              OBSERVATION DATA    GPS                 RINEX VERSION / TYPE
teqc 2000Feb29 Duncan Agnew 20010212 22:47:33UTC            PGM / RUN BY / DATE
                                                            COMMENT
L2: 1 -> 1; 150 -> 5; 250 -> 9                              COMMENT
L2: 1 -> 1; 150 -> 5; 250 -> 9                              COMMENT
L2: 1 -> 1; 150 -> 5; 250 -> 9                              COMMENT
L2: 1 -> 1; 150 -> 5; 250 -> 9                              COMMENT
L2: 1 -> 1; 150 -> 5; 250 -> 9                              COMMENT
Original Marker Name: S_31                                  COMMENT
Campaign Name: DHL 2001                                     COMMENT
4-Character Station Name: S_31                              COMMENT
6-Character Antenna Code: DMRCHT                            COMMENT
Vertical Measurement Point: BCR                             COMMENT
Vertical Offset to Rinex Ref. Point: 0.0348                 COMMENT
Radial Measurement Point: ECF                               COMMENT
Radial Offset to Rinex Ref. Point: 0.1897                   COMMENT
Antenna Height from Field Measurement: 0.6150 m             COMMENT
Additional Antenna Identification Info.:                    COMMENT
Turborogue and Ashtech Choke Ring                           COMMENT
Original XYZ: 0.0000 0.0000 0.0000                          COMMENT
New XYZ position is based on association with SCEC monument COMMENT
E1D0L3C2+0011. Position of that monument is believed to be  COMMENT
valid to within 1 m horizontally; vertical accuracy         COMMENT
should be no worse than 3-times this value.                 COMMENT
                                                            COMMENT
Revised Rinex header created by UCSD GPS archive for        COMMENT
GSAC on 24-Feb-2001 (2001:055) 18:03:08 GMT                 COMMENT
For assistance contact dagnew@ucsd.edu                      COMMENT
or anderson@python.ucsd.edu                                 COMMENT
                                                            COMMENT
T8SR12E S31/S1 T9S/S6 R12E 1942                             MARKER NAME
SJB SCRIPPS INSTITUTION OF OCEANOGRAPHY                     OBSERVER / AGENCY
388 ASHTECH Z-XII3 CD00                                     REC # / TYPE / VERS
205 DORNE-MARGOL. TYPE T                                    ANT # / TYPE
 -2316574.6802 -4798559.2176  3493550.7384                  APPROX POSITION XYZ
        0.5502        0.0000        0.0000                  ANTENNA: DELTA H/E/N
     1     1     0                                          WAVELENGTH FACT L1/2
     7    C1    L1    L2    P1    P2    S1    S2            # / TYPES OF OBSERV
     0                                                      INTERVAL
  2001     2     9     1    29   30.000000                  TIME OF FIRST OBS
  2001     2     9    16     3   30.000000                  TIME OF LAST OBS
                                                            END OF HEADER
 01  2  9  1 29 30.0000000  0  2G30G24
  21140830.324      129342.59749     94800.35947  21140830.957    21140837.858
       240.000         205.000
  24197058.720      198474.96549    147243.43045  24197059.204    24197068.078
       217.000         151.000
 01  2  9  1 30  0.0000000  0  4G30G24G 5G 6
  20861786.541    -1337043.00149  -1047837.77947  20861786.955    20861794.365
       242.000         205.000
  23923224.976    -1240535.05349   -974063.08045  23923224.516    23923234.807
       217.000         155.000
  22121147.076    -1291975.84449  -1014811.91146  22121146.899    22121155.873
       228.000         183.000
                  -1658590.35349  -1285442.06743
       243.000          74.000
 01  2  9  1 30 30.0000000  0  5G30G24G26G 5G 6
  20943109.495     -909688.01849   -714833.90347  20943109.827    20943117.417
       242.000         206.000
  24009651.062     -786361.23149   -620161.36145  24009651.024    24009660.457
       217.000         156.000
                  -1380117.12949  -1056792.89043
       204.000          74.000
  22210721.162     -821261.75749   -648021.75846  22210719.999    22210730.028
       227.000         183.000
                  -1328394.07149   -888136.27346                  20951999.472
       243.000         182.000
 01  2  9  1 31  0.0000000  0  4G30G24G 5G 6
  20952543.232     -860113.32849   -676204.28547  20952543.636    20952550.867
       242.000         206.000
  24024082.617     -710522.22949   -561066.01845  24024082.434    24024092.020
       216.000         155.000
  22228355.758     -728591.09949   -575810.89146  22228354.690    22228365.162
       228.000         183.000
  20942879.740    -1376279.03049   -925449.16247  20942879.736    20942887.172
       243.000         205.000
 01  2  9  1 31 30.0000000  0  5G30G24G 5G 6G10
  20962218.218     -809270.91249   -636586.83047  20962218.628    20962226.141
       243.000         206.000
  24038650.125     -633969.17449   -501414.26845  24038649.739    24038659.615
       215.000         155.000
  22246181.274     -634917.25749   -502818.32546  22246181.459    22246190.040
       229.000         183.000
  20933952.278    -1423193.24649   -962005.63347  20933952.336    20933959.751
       243.000         208.000
  21006862.764    -1009594.18949   -794515.88047  21006862.372    21006870.142
       241.000         202.000
 01  2  9  1 32  0.0000000  0  5G30G24G 5G 6G10
  20971865.810     -758572.55449   -597081.62947  20971866.219    20971873.681
       242.000         206.000
  24053085.234     -558112.06649   -442304.80445  24053084.506    24053095.146
       214.000         154.000
  22263928.951     -541652.62849   -430144.62746  22263928.903    22263937.821
       228.000         182.000
  20924941.603    -1470544.54749   -998902.69047  20924941.564    20924948.958
       243.000         209.000
  21015263.365     -965450.56749   -760118.22247  21015262.826    21015270.917
       240.000         203.000
 01  2  9  1 32 30.0000000  0  5G30G24G 5G 6G10
  20981618.054     -707324.32449   -557147.95047  20981618.738    20981625.987
       242.000         206.000
  24067520.037     -482256.41949   -383196.46245  24067519.813    24067529.634
       215.000         154.000
  22281730.625     -448104.17949   -357249.77746  22281730.309    22281739.721
       227.000         182.000
  20915980.472    -1517635.56149  -1035596.92847  20915980.498    20915987.928
       242.000         209.000
  21023773.404     -920730.04449   -725271.02947  21023772.645    21023780.510
       240.000         203.000
 01  2  9  1 33  0.0000000  0  5G30G24G 5G 6G10
  20991465.429     -655575.99049   -516824.58447  20991465.901    20991473.466
       242.000         206.000
  24081945.501     -406449.93649   -324126.44245  24081945.256    24081955.178
       212.000         154.000
  22299576.718     -354322.52049   -284173.19346  22299576.055    22299585.935
       229.000         182.000
  20907060.101    -1564512.31649  -1072124.21147  20907059.994    20907067.535
       243.000         209.000
  21032383.712     -875482.36849   -690013.07047  21032383.074    21032391.037
       240.000         203.000
 01  2  9  1 33 30.0000000  0  5G30G24G 5G 6G10
  21001408.510     -603324.98949   -476109.52447  21001409.057    21001416.260
       242.000         205.000
  24096362.344     -330688.71249   -265091.70245  24096362.785    24096372.217
       211.000         153.000
  22317467.563     -260305.60349   -210913.30746  22317467.309    22317476.946
       229.000         181.000
  20898181.673    -1611168.61949  -1108479.71447  20898181.490    20898188.965
       243.000         209.000
  21041094.842     -829704.94849   -654342.32047  21041094.204    21041101.849
       240.000         203.000
 01  2  9  1 34  0.0000000  0  5G30G24G 5G 6G10
  21011447.369     -550570.53749   -435002.17047  21011447.877    21011455.072
       242.000         205.000
  24110771.042     -254970.32649   -206090.32745  24110770.571    24110781.493
       212.000         153.000
  22335403.175     -166053.38249   -137470.06146  22335403.172    22335412.583
       228.000         181.000
  20889346.061    -1657599.92849  -1144659.90247  20889345.917    20889353.463
       243.000         209.000
  21049906.914     -783397.13849   -618258.28047  21049906.303    21049914.232
       240.000         203.000
 01  2  9  1 34 30.0000000  0  5G30G24G 5G 6G10
  21021581.931     -497313.10549   -393502.87747  21021582.451    21021589.940
       242.000         205.000
  24125171.724     -179294.12449   -147121.83945  24125172.091    24125181.769
       210.000         152.000
  22353383.315      -71567.23449    -63844.53546  22353383.525    22353392.898
       228.000         181.000
  20880553.880    -1703803.07949  -1180662.30647  20880553.783    20880561.345
       243.000         209.000
  21058819.786     -736559.70349   -581761.54847  21058819.163    21058826.887
       240.000         202.000
 01  2  9  1 35  0.0000000  0  5G30G24G 5G 6G10
  21031812.201     -443552.79549   -351611.72847  21031812.569    21031820.119
       242.000         205.000
  24139564.560     -103659.05849    -88185.39545  24139564.527    24139574.447
       211.000         151.000
  22371407.815       23151.85849      9962.50446  22371407.707    22371417.204
       227.000         181.000
  20871805.777    -1749774.47249  -1216484.11347  20871805.600    20871813.134
       243.000         209.000
  21067833.433     -689192.49549   -544852.00347  21067832.723    21067840.782
       240.000         202.000
 01  2  9  1 35 30.0000000  0  4G24G 5G 6G10
  24153952.068      -28052.34049    -29271.03545  24153952.287    24153962.725
       209.000         150.000
  22389478.586      118114.12149     83959.02546  22389478.537    22389487.667
       228.000         180.000
  20863104.606    -1795499.28649  -1252113.78647  20863104.513    20863111.987
       243.000         210.000
  21076949.986     -641284.57049   -507521.12047  21076949.442    21076957.338
       240.000         202.000
 01  2  9  1 36  0.0000000  0  4G24G 5G 6G10
  24168330.936       47509.15649     29608.07845  24168330.873    24168341.162
       210.000         150.000
  22407592.015      213300.67549    158130.33146  22407591.847    22407601.316
       228.000         180.000
  20854447.618    -1840992.06649  -1287562.64947  20854447.496    20854454.919
       243.000         210.000
  21086165.965     -592854.21649   -469783.15047  21086165.361    21086173.331
       240.000         202.000
 01  2  9  1 36 30.0000000  0  4G24G 5G 6G10
  24182701.617      123027.73749     88453.73545  24182701.574    24182711.554
       209.000         149.000
  22425748.167      308711.61449    232476.49346  22425747.668    22425757.755
       227.000         180.000
  20845835.575    -1886248.42949  -1322827.29847  20845835.448    20845842.882
       243.000         210.000
  21095481.476     -543900.85849   -431637.64347  21095480.992    21095488.560
       240.000         202.000
 01  2  9  1 37  0.0000000  0  4G24G 5G 6G10
  24197064.363      198504.77349    147267.03445  24197065.170    24197074.173
       208.000         148.000
  22443946.741      404345.65649    306996.49746  22443946.119    22443955.558
       227.000         180.000
  20837269.173    -1931265.11849  -1357905.18547  20837269.179    20837276.659
       243.000         210.000
  21104896.426     -494424.97449   -393084.97747  21104895.675    21104903.667
       239.000         202.000
 01  2  9  1 37 30.0000000  0  4G24G 5G 6G10
  24211419.374      273940.87849    206048.43545  24211419.113    24211430.083
       209.000         148.000
  22462187.494      500201.11749    381689.01946  22462187.501    22462196.791
       227.000         179.000
  20828748.927    -1976039.22649  -1392794.04947  20828748.897    20828756.125
       243.000         210.000
  21114410.613     -444427.53949   -354125.90447  21114410.008    21114418.005
       239.000         202.000
 01  2  9  1 38  0.0000000  0  4G24G 5G 6G10
  24225766.418      349335.34549    264797.39345  24225766.041    24225776.186
       208.000         147.000
  22480469.800      596275.04549    456551.77346  22480469.595    22480479.045
       226.000         178.000
  20820275.116    -2020569.23949  -1427492.70947  20820275.024    20820282.343
       243.000         210.000
  21124023.533     -393911.34349   -314762.60447  21124022.883    21124030.807
       239.000         202.000
 01  2  9  1 38 30.0000000  0  4G24G 5G 6G10
  24240105.270      424687.52049    323513.38045  24240104.935    24240114.832
       206.000         145.000
  22498793.093      692564.49049    531582.46646  22498793.300    22498801.942
       226.000         177.000
  20811848.051    -2064853.52649  -1461999.89947  20811847.977    20811855.457
       243.000         210.000
  21133734.687     -342878.59349   -274996.79147  21133733.850    21133741.863
       239.000         201.000
 01  2  9  1 39  0.0000000  0  4G24G 5G 6G10
  24254436.234      499997.37049    382196.41545  24254436.693    24254447.055
       210.000         146.000
  22517157.037      789067.57949    606779.64646  22517156.997    22517166.389
       226.000         177.000
  20803468.264    -2108889.48849  -1496313.57847  20803467.999    20803475.553
       242.000         210.000
  21143543.950     -291330.42749   -234829.35247  21143543.419    21143551.130
       239.000         201.000
 01  2  9  1 39 30.0000000  0  1G10
  21153452.705     -239259.52049   -194254.58547  21153452.100    21153459.947
       239.000         201.000
 01  2  9  1 40  0.0000000  0  1G10
  21163458.498     -186678.72049   -153282.50247  21163458.123    21163465.575
       240.000         201.000
 01  2  9  1 40 30.0000000  0  5G26G 6G 5G30G10
                   -988262.31649   -752603.56543
       212.000          74.000
                   -949197.15349   -729751.00843
       242.000          74.000
                   -819111.37349   -655934.85145                  22572496.935
       225.000         161.000
                   -854623.29049   -675782.96443
       240.000          74.000
  21173555.997     -133615.89149   -111934.81547  21173555.343    21173563.099
       239.000         201.000
 01  2  9  1 41  0.0000000  0  5G26G 6G 5G30G10
                  -1074301.57649   -819646.66844                  23944662.828
       212.000         115.000
                   -992238.20849   -762784.19743
       242.000          74.000
  22591005.864     -721797.37049   -580105.79146  22591005.442    22591015.483
       225.000         173.000
                   -794978.50449   -629048.95243
       240.000          74.000
  21183750.334      -80044.24449    -70190.65047  21183749.695    21183757.570
       239.000         201.000
 01  2  9  1 41 30.0000000  0  7G26G 6G23G 5G17G30G10
  23928291.994    -1160270.32249   -886635.11845  23928291.638    23928303.124
       213.000         138.000
                  -1035007.30849   -795525.51443
       242.000          74.000
                  -1176134.07849   -887503.18244                  23902413.982
       207.000         125.000
  22609564.882     -624268.69449   -504109.44846  22609564.544    22609574.045
       225.000         175.000
  22522337.178    -1059136.24149   -812488.27746  22522336.481    22522346.054
       228.000         174.000
                   -734841.00749   -581920.69043
       240.000          74.000
  21194043.454      -25953.44449    -28041.94847  21194042.949    21194050.786
       239.000         201.000
 01  2  9  1 42  0.0000000  0  8G26G 6G23G 5G17G30G24G10
  23911943.445    -1246181.97649   -953579.07745  23911944.076    23911954.393
       214.000         141.000
                  -1077519.20949   -701825.20747                  20754203.974
       242.000         194.000
  23882750.496    -1279404.43949   -967973.34545  23882749.896    23882761.963
       209.000         146.000
  22628161.968     -526544.61649   -427960.85046  22628161.150    22628170.517
       223.000         175.000
  22511857.069    -1114207.39749   -855400.76446  22511857.206    22511866.383
       229.000         181.000
                   -674229.51249   -652842.99846                  21184917.430
       240.000         187.000
                   -796124.98149   -642710.66643
       209.000          74.000
  21204431.803       28637.73649     14496.65547  21204431.118    21204438.761
       239.000         201.000
 01  2  9  1 42 30.0000000  0  8G26G 6G23G 5G17G30G24G10
  23895603.005    -1332050.64549  -1020489.55345  23895602.778    23895614.525
       213.000         142.000
  20746152.614    -1119789.42949   -734762.97747  20746152.837    20746159.999
       242.000         208.000
  23863124.217    -1382541.28449  -1048339.46245  23863123.953    23863135.240
       209.000         149.000
  22646791.351     -428645.13149   -351675.57046  22646790.943    22646799.896
       224.000         174.000
  22501411.055    -1169102.14549   -898175.79646  22501410.937    22501420.184
       228.000         182.000
  21196529.856     -613163.57249   -605259.15347  21196530.297    21196537.801
       240.000         200.000
                   -721143.28049   -584283.52344                  24354524.074
       210.000         131.000
  21214911.600       83709.53449     57409.76947  21214910.903    21214919.022
       239.000         201.000
 01  2  9  1 43  0.0000000  0  8G26G 6G23G 5G17G30G24G10
  23879275.806    -1417850.61549  -1087346.48545  23879275.811    23879286.722
       213.000         143.000
  20738159.497    -1161793.84549   -767493.63247  20738159.501    20738166.879
       242.000         210.000
  23843527.864    -1485520.22349  -1128582.55245  23843526.910    23843539.005
       208.000         150.000
  22665457.962     -330550.79349   -275238.46846  22665457.101    22665467.292
       223.000         174.000
  22491002.751    -1223798.67549   -940796.37446  22491002.503    22491011.725
       228.000         183.000
  21208240.533     -551623.45049   -557305.80147  21208240.940    21208248.473
       239.000         202.000
  24368775.038     -646203.61449   -525888.93045  24368775.917    24368784.563
       211.000         142.000
  21225486.721      139282.16149    100713.13747  21225486.142    21225494.219
       239.000         201.000
 01  2  9  1 43 30.0000000  0  8G26G 6G23G 5G17G30G24G10
  23862963.130    -1503573.87249  -1154143.64945  23862962.725    23862972.904
       213.000         143.000
  20730218.166    -1203525.87749   -800012.04147  20730218.089    20730225.475
       242.000         211.000
  23823962.891    -1588334.13849  -1208697.05845  23823962.034    23823974.191
       209.000         150.000
  22684162.164     -232259.46749   -198647.86146  22684161.602    22684172.091
       223.000         174.000
  22480632.987    -1278292.32049   -983258.86546  22480632.772    22480641.617
       228.000         183.000
  21220041.941     -489606.58249   -508980.96347  21220042.151    21220049.825
       239.000         203.000
  24383028.539     -571301.82649   -467523.86745  24383026.972    24383037.198
       210.000         144.000
  21236157.625      195358.17749    144408.75747  21236156.895    21236164.763
       238.000         201.000
 01  2  9  1 44  0.0000000  0  8G26G 6G23G 5G17G30G24G10
  23846665.946    -1589215.68149  -1220877.34945  23846665.917    23846676.468
       212.000         143.000
  20722329.288    -1244982.25049   -832315.64647  20722329.290    20722336.488
       243.000         211.000
  23804429.997    -1690979.37749  -1288680.16645  23804429.416    23804441.166
       210.000         151.000
  22702903.571     -133772.61849   -121904.88746  22702902.737    22702913.048
       223.000         173.000
  22470302.010    -1332581.92849  -1025562.36346  22470301.834    22470310.659
       229.000         183.000
  21231933.885     -427113.97749   -460285.42447  21231934.348    21231941.718
       240.000         203.000
  24397274.608     -496436.65149   -409187.33345  24397275.298    24397284.232
       212.000         143.000
  21246924.104      251936.50649    188495.79147  21246923.581    21246931.378
       239.000         200.000
 01  2  9  1 44 30.0000000  0  8G26G 6G23G 5G17G30G24G10
  23830383.818    -1674778.32149  -1287549.35445  23830383.739    23830393.274
       211.000         144.000
  20714492.093    -1286166.80549   -864407.44147  20714492.056    20714499.373
       243.000         211.000
  23784928.665    -1793458.93149  -1368534.12145  23784928.187    23784939.922
       210.000         153.000
  22721680.614      -35098.48549    -45015.97846  22721680.118    22721689.400
       223.000         173.000
  22460008.769    -1386673.14049  -1067711.27546  22460008.220    22460017.204
       228.000         183.000
  21243914.870     -364153.38149   -411225.21447  21243915.313    21243922.984
       240.000         202.000
  24411512.812     -421614.05649   -350883.97745  24411511.812    24411523.566
       212.000         143.000
  21257784.694      309009.24149    232968.07447  21257784.072    21257791.983
       239.000         200.000
 01  2  9  1 45  0.0000000  0  8G26G 6G23G 5G17G30G24G10
  23814116.889    -1760261.14549  -1354159.17745  23814117.120    23814126.516
       211.000         144.000
  20706706.464    -1327080.50949   -896288.18347  20706706.326    20706713.744
       243.000         211.000
  23765458.800    -1895773.21949  -1448259.32945  23765458.316    23765469.533
       210.000         153.000
  22740492.280       63757.53949     32014.65846  22740492.185    22740502.035
       222.000         173.000
  22449752.674    -1440569.03349  -1109707.98246  22449752.260    22449761.503
       229.000         183.000
  21255983.979     -300729.79749   -361804.23547  21255984.628    21255992.010
       240.000         202.000
  24425742.323     -346837.11149   -292616.18945  24425741.341    24425750.849
       212.000         143.000
  21268738.373      366571.42349    277821.74247  21268737.889    21268745.409
       239.000         200.000
 01  2  9  1 45 30.0000000  0  8G26G 6G23G 5G17G30G24G10
  23797865.354    -1845663.11149  -1420705.97645  23797865.850    23797875.611
       211.000         144.000
  20698972.293    -1367723.70049   -927958.14047  20698972.250    20698979.375
       243.000         211.000
  23746020.335    -1997922.30049  -1527855.80945  23746019.743    23746030.903
       211.000         153.000
  22759337.635      162790.51449    109183.17646  22759336.899    22759346.874
       223.000         172.000
  22439533.292    -1494272.18249  -1151554.49946  22439532.905    22439541.269
       229.000         183.000
  21268140.321     -236847.76649   -312026.02547  21268140.613    21268148.444
       240.000         202.000
  24439962.683     -272108.33849   -234385.94445  24439962.476    24439971.348
       212.000         143.000
  21279784.334      424618.38749    323053.16547  21279783.742    21279791.711
       238.000         200.000
 01  2  9  1 46  0.0000000  0  8G26G 6G23G 5G17G30G24G10
  23781629.756    -1930981.11949  -1487187.36845  23781629.840    23781640.446
       210.000         145.000
  20691289.872    -1408094.95749   -959416.20147  20691289.768    20691296.931
       243.000         212.000
  23726613.756    -2099903.97249  -1607321.84845  23726612.858    23726625.115
       210.000         154.000
  22778216.006      261997.20649    186487.05346  22778215.609    22778224.589
       222.000         171.000
  22429350.469    -1547782.96049  -1193251.12346  22429349.884    22429359.360
       229.000         184.000
  21280383.396     -172510.05649   -261892.74247  21280383.837    21280391.500
       239.000         202.000
  24454173.853     -197428.01749   -176193.43645  24454174.227    24454182.974
       212.000         142.000
  21290922.087      483147.63449    368660.39647  21290921.362    21290929.392
       238.000         200.000
 01  2  9  1 46 30.0000000  0  8G26G 6G23G 5G17G30G24G10
  23765410.941    -2016210.87249  -1553599.99145  23765410.619    23765421.143
       210.000         144.000
  20683659.733    -1448191.36749   -990660.09347  20683659.750    20683666.920
       243.000         212.000
  23707239.608    -2201715.07349  -1686654.97945  23707239.130    23707251.187
       211.000         155.000
  22797127.172      361375.91949    263924.97546  22797126.907    22797136.281
       222.000         171.000
  22419204.368    -1601100.75949  -1234797.36346  22419203.948    22419212.912
       229.000         184.000
  21292712.945     -107717.83849   -211405.29647  21292713.371    21292721.211
       239.000         202.000
  24468375.913     -122795.69049   -118038.35445  24468374.587    24468385.793
       213.000         143.000
  21302151.326      542157.82549    414642.38647  21302150.628    21302158.410
       238.000         200.000
 01  2  9  1 47  0.0000000  0  8G26G 6G23G 5G17G30G24G10
  23749209.573    -2101348.84049  -1619941.08945  23749208.995    23749219.637
       209.000         145.000
  20676082.255    -1488011.07649  -1021688.37147  20676082.286    20676089.237
       243.000         212.000
  23687898.424    -2303353.14749  -1765853.29645  23687897.270    23687909.397
       212.000         155.000
  22816070.585      460924.04649    341494.91546  22816070.403    22816080.049
       223.000         171.000
  22409094.914    -1654225.83549  -1276193.43346  22409094.527    22409103.559
       230.000         184.000
  21305128.566      -42473.33149   -160565.41847  21305128.886    21305136.610
       240.000         202.000
  24482568.791      -48211.49149    -59920.75945  24482567.481    24482578.551
       213.000         142.000
  21313471.633      601646.47549    460997.20747  21313470.881    21313478.740
       239.000         199.000
 01  2  9  1 47 30.0000000  0  8G26G 6G23G 5G17G30G24G10
  23733026.306    -2186391.71149  -1686208.08245  23733026.378    23733036.815
       208.000         145.000
  20668557.799    -1527552.20249  -1052499.57647  20668557.795    20668564.901
       243.000         212.000
  23668590.549    -2404815.91649  -1844914.99845  23668590.066    23668601.302
       213.000         156.000
  22835045.754      560638.92249    419194.78246  22835045.197    22835055.418
       222.000         171.000
  22399022.204    -1707158.07649  -1317439.23546  22399021.770    22399030.603
       230.000         184.000
  21317629.764       23220.85149   -109375.14547  21317630.442    21317637.680
       239.000         201.000
  24496752.453       26324.50549     -1840.74245  24496753.061    24496761.510
       213.000         142.000
  21324882.585      661611.49649    507723.22147  21324881.941    21324889.779
       238.000         199.000
 01  2  9  1 48  0.0000000  0  8G26G 6G23G 5G17G30G24G10
  23716861.735    -2271336.29949  -1752398.50645  23716861.119    23716871.985
       208.000         145.000
  20661086.654    -1566813.05949  -1083092.39347  20661086.607    20661093.745
       243.000         212.000
  23649316.449    -2506101.35549  -1923838.53445  23649315.689    23649327.025
       213.000         156.000
  22854052.020      660517.44449    497022.17146  22854051.949    22854061.267
       223.000         171.000
  22388986.068    -1759898.08149  -1358535.24946  22388985.378    22388994.575
       229.000         185.000
  21330216.044       89362.11949    -57836.50247  21330216.448    21330224.253
       239.000         201.000
  24510926.879      100811.63549     56201.22845  24510925.959    24510936.434
       211.000         141.000
  21336383.687      722050.28249    554818.40047  21336383.059    21336390.723
       238.000         199.000
 01  2  9  1 48 30.0000000  0  8G26G 6G23G 5G17G30G24G10
  23700716.541    -2356179.24849  -1818509.72545  23700715.796    23700726.609
       209.000         146.000
  20653669.162    -1605792.05549  -1113465.57647  20653669.112    20653676.173
       243.000         212.000
  23630076.529    -2607207.20349  -2002622.12345  23630075.849    23630087.010
       213.000         156.000
  22873088.907      760556.83149    574974.90846  22873089.160    22873098.642
       222.000         170.000
  22378986.469    -1812446.07449  -1399481.63246  22378985.621    22378994.962
       229.000         185.000
  21342886.962      155948.25149     -5951.20347  21342887.327    21342895.088
       239.000         201.000
  24525091.899      175249.39349    114204.70645  24525090.463    24525102.005
       212.000         141.000
  21347974.450      782960.24749    602280.73847  21347973.845    21347981.602
       237.000         199.000
 01  2  9  1 49  0.0000000  0  8G26G 6G23G 5G17G30G24G10
  23684591.401    -2440916.65749  -1884538.71645  23684591.998    23684601.041
       207.000         146.000
  20646305.847    -1644486.46449  -1143617.00747  20646305.640    20646312.742
       243.000         212.000
  23610871.389    -2708130.30049  -2081263.32645  23610869.885    23610881.617
       214.000         157.000
  22892156.090      860755.26449    653051.57846  22892155.630    22892165.482
       222.000         170.000
  22369023.447    -1864801.74449  -1440278.15246  22369022.918    22369031.913
       229.000         185.000
  21355642.174      222977.35549     46279.26747  21355642.866    21355650.099
       239.000         201.000
  24539247.670      249638.44449    172170.24145  24539247.622    24539257.785
       212.000         141.000
  21359654.603      844339.93449    650109.09447  21359653.969    21359661.865
       237.000         199.000
 01  2  9  1 49 30.0000000  0  8G26G 6G23G 5G17G30G24G10
  23668486.843    -2525546.02549  -1950483.51245  23668486.668    23668495.999
       207.000         147.000
  20638996.771    -1682895.68949  -1173546.21147  20638996.730    20639003.635
       243.000         212.000
  23591701.189    -2808869.50449  -2159761.22145  23591700.915    23591711.845
       213.000         157.000
  22911252.761      961108.68849    731249.01146  22911252.440    22911261.983
       222.000         170.000
  22359096.815    -1916966.20249  -1480925.68246  22359095.980    22359105.365
       229.000         185.000
  21368481.048      290446.09749     98852.30947  21368481.628    21368488.884
       238.000         201.000
  24553393.863      323977.27549    230096.63945  24553393.719    24553403.559
       211.000         142.000
  21371423.432      906185.56649    698300.52047  21371422.442    21371430.537
       237.000         198.000
 01  2  9  1 50  0.0000000  0  8G26G 6G23G 5G17G30G24G10
  23652403.651    -2610063.11449  -2016340.82445  23652403.971    23652413.127
       207.000         147.000
  20631742.499    -1721016.94449  -1203251.02547  20631742.382    20631749.397
       243.000         212.000
  23572566.591    -2909421.77049  -2238113.45345  23572566.002    23572576.758
       215.000         157.000
  22930378.562     1061615.38049    809565.87746  22930378.180    22930388.337
       222.000         170.000
  22349206.643    -1968939.04149  -1521423.89446  22349205.857    22349214.964
       229.000         186.000
  21381403.267      358352.71849    151766.56247  21381403.402    21381411.209
       239.000         200.000
  24567530.662      398266.97649    287984.73345  24567531.152    24567540.189
       210.000         142.000
  21383280.627      968495.68749    746853.88647  21383279.863    21383287.814
       238.000         198.000
 01  2  9  1 50 30.0000000  0  8G26G 6G23G 5G17G30G24G10
  23636342.399    -2694464.99149  -2082108.35945  23636342.291    23636351.792
       207.000         147.000
  20624543.275    -1758848.96349  -1232730.46647  20624543.166    20624550.252
       243.000         212.000
  23553467.898    -3009785.34949  -2316318.65545  23553466.914    23553478.222
       214.000         157.000
  22949532.934     1162272.17449    887999.71946  22949532.849    22949542.697
       222.000         170.000
  22339352.792    -2020720.95549  -1561773.32646  22339352.368    22339360.751
       229.000         186.000
  21394408.255      426694.36849    205019.79647  21394408.759    21394416.458
       238.000         200.000
  24581657.904      472506.17749    345833.50945  24581657.643    24581667.591
       209.000         141.000
  21395225.661     1031267.38749    795766.92447  21395224.824    21395233.010
       237.000         198.000
 01  2  9  1 51  0.0000000  0  8G26G 6G23G 5G17G30G24G10
  23620303.735    -2778748.28649  -2147783.49345  23620303.364    23620313.862
       207.000         148.000
  20617399.479    -1796389.65849  -1261982.90248  20617399.471    20617406.407
       243.000         213.000
  23534405.619    -3109957.56549  -2394374.72745  23534404.940    23534415.959
       215.000         157.000
  22968715.420     1263076.63649    966548.60746  22968714.290    22968724.877
       221.000         169.000
  22329535.250    -2072312.05249  -1601974.07346  22329534.705    22329543.366
       230.000         186.000
  21407495.613      495468.90049    258610.33547  21407496.139    21407503.679
       238.000         200.000
  24595775.605      546695.30049    403643.22945  24595775.499    24595784.804
       209.000         141.000
  21407258.151     1094498.57049    845038.00047  21407257.534    21407265.124
       237.000         197.000
 01  2  9  1 51 30.0000000  0  8G26G 6G23G 5G17G30G24G10
  23604288.186    -2862909.84149  -2213363.76245  23604287.282    23604297.987
       208.000         148.000
  20610311.393    -1833637.63149  -1291007.23448  20610311.418    20610318.372
       243.000         213.000
  23515380.036    -3209936.97449  -2472280.56545  23515379.182    23515390.360
       213.000         157.000
  22987925.354     1364025.25049   1045209.83046  22987925.081    22987934.718
       221.000         169.000
  22319753.897    -2123713.19849  -1642026.80346  22319753.286    22319762.109
       230.000         186.000
  21420664.744      564673.07949    312535.67247  21420665.452    21420672.521
       238.000         200.000
  24609883.676      620833.53449    461413.32045  24609883.552    24609892.698
       208.000         141.000
  21419377.441     1158185.94849    894664.55347  21419376.794    21419384.510
       237.000         197.000
 01  2  9  1 52  0.0000000  0  8G26G 6G23G 5G17G30G24G10
  23588296.648    -2946945.56049  -2278845.98145  23588296.682    23588305.987
       211.000         149.000
  20603279.479    -1870590.23449  -1319801.41548  20603279.337    20603286.317
       243.000         213.000
  23496391.764    -3309720.28449  -2550033.59645  23496390.837    23496402.098
       213.000         156.000
  23007162.358     1465116.32749   1123982.05446  23007162.373    23007172.028
       221.000         169.000
  22310008.789    -2174923.65149  -1681930.94846  22310008.293    22310017.279
       229.000         187.000
  21433915.322      634305.23349    366794.49547  21433915.829    21433923.374
       238.000         200.000
  24623982.227      694921.98949    519144.59345  24623982.372    24623991.799
       207.000         141.000
  21431583.204     1222327.88949    944645.31147  21431582.334    21431590.393
       237.000         197.000
 01  2  9  1 52 30.0000000  0  8G26G 6G23G 5G17G30G24G10
  23572329.563    -3030852.61949  -2344227.94345  23572329.586    23572339.677
       210.000         150.000
  20596304.014    -1907246.35849  -1348364.57748  20596304.005    20596310.899
       243.000         213.000
  23477441.103    -3409305.91049  -2627632.57945  23477440.146    23477450.860
       213.000         156.000
  23026425.817     1566346.32549   1202862.53646  23026426.107    23026434.861
       221.000         169.000
  22300299.788    -2225944.46149  -1721687.31746  22300299.274    22300307.596
       230.000         187.000
  21447246.745      704362.34449    421384.45347  21447246.820    21447254.344
       238.000         199.000
  24638070.984      768959.17349    576835.93245  24638070.938    24638081.054
       206.000         140.000
  21443874.965     1286921.59249    994978.09347  21443874.365    21443882.160
       237.000         197.000
 01  2  9  1 53  0.0000000  0  8G26G 6G23G 5G17G30G24G10
  23556387.632    -3114627.66449  -2409507.02645  23556387.822    23556396.852
       211.000         151.000
  20589385.362    -1943603.97349  -1376695.12848  20589385.335    20589392.244
       243.000         213.000
  23458528.519    -3508691.58449  -2705075.76745  23458527.529    23458538.618
       213.000         156.000
  23045715.228     1667712.72149   1281849.29946  23045714.934    23045724.650
       222.000         169.000
  22290626.862    -2276775.59149  -1761295.88046  22290625.961    22290634.953
       230.000         187.000
  21460658.584      774841.89849    476303.58847  21460658.965    21460666.453
       238.000         199.000
  24652149.965      842944.97349    634487.20745  24652148.803    24652160.486
       205.000         141.000
  21456252.189     1351964.43049   1045660.85547  21456251.446    21456259.214
       237.000         196.000
 01  2  9  1 53 30.0000000  0  8G26G 6G23G 5G17G30G24G10
  23540471.483    -3198267.14549  -2474680.47745  23540471.721    23540481.666
       210.000         151.000
  20582523.841    -1979661.31649  -1404791.70548  20582523.745    20582530.743
       243.000         213.000
  23439654.348    -3607875.14749  -2782361.47145  23439653.645    23439664.185
       213.000         157.000
  23065030.085     1769212.76049   1360940.19246  23065030.202    23065039.979
       221.000         169.000
  22280989.938    -2327417.47249  -1800756.98446  22280989.222    22280997.785
       230.000         187.000
  21474150.268      845741.14849    531549.75747  21474150.795    21474158.217
       238.000         199.000
  24666219.150      916879.36849    692098.45145  24666219.502    24666229.551
       206.000         140.000
  21468714.398     1417453.88549   1096691.62347  21468713.639    21468721.605
       236.000         196.000
 01  2  9  1 54  0.0000000  0  8G26G 6G23G 5G17G30G24G10
  23524581.725    -3281767.65849  -2539745.64645  23524581.731    23524591.037
       210.000         152.000
  20575719.847    -2015416.35649  -1432652.71648  20575719.716    20575726.684
       243.000         213.000
  23420819.144    -3706854.06549  -2859487.70545  23420818.615    23420829.622
       213.000         157.000
  23084369.882     1870843.89649   1440133.25346  23084369.663    23084378.566
       221.000         168.000
  22271389.026    -2377870.31849  -1840070.78247  22271388.638    22271397.347
       230.000         188.000
  21487721.397      917057.95849    587121.29947  21487721.860    21487729.498
       238.000         199.000
  24680278.704      990762.81849    749669.98145  24680278.239    24680288.596
       203.000         140.000
  21481261.194     1483387.85449   1148068.77247  21481260.793    21481268.377
       236.000         196.000
 01  2  9  1 54 30.0000000  0  8G 6G23G 5G26G17G30G24G10
  20568972.934    -2050871.45549  -1460280.01748  20568972.856    20568979.705
       244.000         213.000
  23402022.468    -3805630.47149  -2936456.15645  23402021.298    23402032.499
       214.000         157.000
  23103733.297     1972599.09349   1519422.96446  23103732.599    23103742.318
       221.000         168.000
                   -667490.77649   -501843.09943
       211.000          74.000
  22261823.203    -2428138.57349  -1879240.74547  22261822.441    22261831.310
       230.000         188.000
  21501370.666      988785.42149    643012.83247  21501371.111    21501378.536
       237.000         198.000
  24694327.604     1064590.30149    807197.88745  24694328.012    24694336.307
       204.000         140.000
  21493891.283     1549759.41049   1199786.89447  21493890.839    21493897.986
       236.000         196.000
 01  2  9  1 55  0.0000000  0  8G 6G23G 5G26G17G30G24G10
  20562284.430    -2086019.63349  -1487668.16048  20562284.397    20562291.221
       244.000         213.000
  23383265.770    -3904196.73949  -3013260.86245  23383264.813    23383276.194
       214.000         158.000
  23123120.824     2074480.91049   1598811.35746  23123120.926    23123130.511
       220.000         168.000
                   -750706.04549   -566685.85743
       212.000          74.000
  22252293.477    -2478217.26949  -1918263.00947  22252293.088    22252301.453
       230.000         188.000
  21515098.627     1060926.30249    699226.51047  21515098.967    21515106.872
       237.000         198.000
  24708366.739     1138366.77649    864686.05045  24708367.263    24708377.297
       202.000         139.000
  21506605.116     1616571.08649   1251847.96347  21506604.827    21506612.091
       236.000         195.000
 01  2  9  1 55 30.0000000  0  8G 6G23G 5G26G17G30G24G10
  20555654.476    -2120860.01649  -1514816.46148  20555654.367    20555661.349
       243.000         213.000
  23364549.364    -4002551.47949  -3089900.74745  23364549.009    23364559.366
       214.000         159.000
  23142531.714     2176485.66549   1678295.53746  23142532.038    23142540.628
       220.000         167.000
                   -833771.80649   -631412.26745                  23477085.307
       213.000         145.000
  22242799.578    -2528107.68449  -1957138.55347  22242799.111    22242807.698
       231.000         188.000
  21528904.557     1133476.97249    755759.50447  21528905.069    21528912.497
       237.000         198.000
  24722396.099     1212091.58349    922133.97445  24722395.482    24722407.344
       200.000         139.000
  21519402.048     1683819.47749   1304249.34047  21519401.468    21519409.349
       236.000         195.000
 01  2  9  1 56  0.0000000  0  8G 6G23G 5G26G17G30G24G10
  20549083.656    -2155389.76449  -1541722.71448  20549083.516    20549090.386
       244.000         213.000
  23345873.769    -4100691.71749  -3166373.49745  23345872.928    23345883.363
       214.000         159.000
  23161965.691     2278611.64049   1757874.17446  23161965.545    23161974.855
       220.000         167.000
  23461297.214     -916683.91249   -696018.94045  23461298.031    23461307.627
       212.000         153.000
  22233341.632    -2577809.17949  -1995866.89747  22233341.048    22233349.447
       231.000         188.000
  21542788.147     1206435.68749    812610.45347  21542788.728    21542796.302
       237.000         198.000
  24736415.726     1285765.49949    979542.21245  24736414.796    24736423.610
       197.000         137.000
  21532281.801     1751503.11449   1356989.85747  21532281.122    21532288.744
       236.000         195.000
 01  2  9  1 56 30.0000000  0  8G 6G23G 5G26G17G30G24G10
  20542572.403    -2189606.55449  -1568385.10248  20542572.383    20542579.412
       243.000         213.000
  23327239.498    -4198614.73549  -3242676.98045  23327238.549    23327249.170
       213.000         160.000
  23181422.242     2380856.48049   1837545.44146  23181422.255    23181431.307
       220.000         166.000
  23445549.629     -999438.45349   -760502.82445  23445549.844    23445559.681
       215.000         154.000
  22223919.666    -2627321.56449  -2034447.88147  22223918.841    22223927.515
       231.000         189.000
  21556748.986     1279800.30649    869777.69147  21556749.133    21556756.807
       237.000         198.000
  24750425.771     1359388.75649   1036910.99545  24750425.567    24750435.313
       197.000         138.000
  21545243.978     1819619.94549   1410067.93747  21545243.428    21545251.064
       235.000         195.000
 01  2  9  1 57  0.0000000  0  8G 6G23G 5G26G17G30G24G10
  20536120.719    -2223510.08049  -1594803.38448  20536120.699    20536127.603
       243.000         213.000
  23308646.761    -4296319.59649  -3318810.48445  23308646.320    23308656.358
       214.000         160.000
  23200900.648     2483216.13549   1917306.17046  23200901.180    23200910.351
       218.000         165.000
  23429832.427    -1082033.25149   -824862.23845  23429832.954    23429842.265
       214.000         155.000
  22214533.370    -2676646.43449  -2072882.74747  22214533.059    22214541.593
       231.000         189.000
  21570786.278     1353566.85649    927258.12147  21570786.615    21570794.079
       236.000         197.000
  24764425.880     1432959.86449   1094239.13745  24764425.995    24764435.740
       202.000         137.000
  21558287.822     1888165.95949   1463480.43747  21558287.098    21558294.952
       236.000         194.000
 01  2  9  1 57 30.0000000  0  8G 6G23G 5G26G17G30G24G10
  20529729.019    -2257098.62749  -1620976.22848  20529728.824    20529735.828
       243.000         213.000
  23290095.938    -4393804.27149  -3394772.41945  23290095.343    23290106.297
       216.000         161.000
  23220400.401     2585687.74849   1997154.13146  23220400.251    23220409.794
       217.000         164.000
  23414146.190    -1164464.94049   -889094.55745  23414146.254    23414155.661
       213.000         155.000
  22205182.671    -2725784.40349  -2111171.98247  22205182.502    22205190.591
       231.000         189.000
  21584899.599     1427732.78949    985049.76547  21584900.215    21584907.769
       236.000         197.000
  24778415.986     1506478.34049   1151526.27045  24778415.600    24778426.045
       199.000         138.000
  21571412.880     1957138.73549   1517225.48247  21571412.522    21571419.767
       235.000         194.000
 01  2  9  1 58  0.0000000  0  8G 6G23G 5G26G17G30G24G10
  20523397.292    -2290371.74849  -1646903.28648  20523397.208    20523404.061
       243.000         213.000
  23271587.128    -4491068.08349  -3470562.24845  23271586.546    23271597.278
       215.000         162.000
  23239920.667     2688267.25349   2077086.17546  23239920.967    23239929.968
       217.000         164.000
  23398491.361    -1246731.49549   -953198.20645  23398491.302    23398501.280
       215.000         155.000
  22195867.270    -2774736.79049  -2149316.60447  22195866.451    22195874.680
       232.000         189.000
  21599088.127     1502293.94849   1043149.37747  21599088.342    21599096.133
       237.000         197.000
  24792395.882     1579943.22349   1208771.64245  24792396.211    24792405.648
       197.000         138.000
  21584618.429     2026534.34049   1571300.00647  21584617.810    21584625.567
       236.000         194.000
 01  2  9  1 58 30.0000000  0  8G 6G23G 5G26G17G30G24G10
  20517126.075    -2323327.15949  -1672582.77848  20517125.969    20517132.823
       244.000         214.000
  23253120.839    -4588108.48449  -3546177.99146  23253120.710    23253130.392
       216.000         163.000
  23259461.021     2790952.40749   2157100.54946  23259460.990    23259470.096
       217.000         163.000
  23382868.676    -1328829.18049  -1017170.26945  23382868.757    23382877.823
       215.000         155.000
  22186587.163    -2823503.67549  -2187316.68647  22186586.586    22186595.153
       232.000         190.000
  21613351.396     1577248.06649   1101555.19147  21613351.988    21613359.482
       237.000         197.000
  24806365.579     1653354.47849   1265975.23845  24806365.431    24806375.038
       200.000         138.000
  21597903.948     2096350.29749   1625702.07647  21597903.473    21597911.156
       236.000         194.000
 01  2  9  1 59  0.0000000  0  8G 6G23G 5G26G17G30G24G10
  20510915.648    -2355962.94149  -1698013.20848  20510915.589    20510922.245
       244.000         214.000
  23234697.509    -4684923.10149  -3621617.78446  23234697.084    23234707.333
       217.000         164.000
  23279020.965     2893740.55849   2237195.17245  23279020.619    23279030.819
       216.000         162.000
  23367278.735    -1410754.34549  -1081007.90745  23367278.800    23367287.898
       215.000         155.000
  22177342.330    -2872085.37949  -2225172.47147  22177341.616    22177350.441
       231.000         190.000
  21627689.012     1652592.71649   1160265.32047  21627689.562    21627697.171
       236.000         196.000
  24820325.014     1726711.91649   1323136.91445  24820325.326    24820335.397
       203.000         138.000
  21611268.973     2166584.00549   1680429.66547  21611268.100    21611276.118
       235.000         194.000
 01  2  9  1 59 30.0000000  0  8G 6G23G 5G26G17G30G24G10
  20504766.238    -2388278.16849  -1723193.85648  20504766.186    20504773.050
       243.000         214.000
  23216317.438    -4781510.48049  -3696880.52246  23216316.329    23216326.868
       217.000         164.000
  23298599.879     2996628.26249   2317367.35945  23298599.855    23298609.682
       216.000         161.000
  23351722.165    -1492504.40449  -1144709.10845  23351722.149    23351731.189
       215.000         156.000
  22168132.519    -2920482.90649  -2262884.73947  22168131.572    22168140.525
       231.000         190.000
  21642100.239     1728324.26849   1219276.93047  21642100.645    21642108.322
       236.000         196.000
  24834274.190     1800015.50549   1380256.61345  24834274.310    24834284.010
       199.000         139.000
  21624712.882     2237232.17049   1735480.20847  21624712.473    21624720.298
       235.000         194.000
 01  2  9  2  0  0.0000000  0  8G 6G23G 5G26G17G30G24G10
  20498678.572    -2420268.98249  -1748121.71148  20498678.480    20498685.106
       244.000         214.000
  23197981.384    -4877866.61049  -3771963.05646  23197980.332    23197991.179
       217.000         165.000
  23318197.525     3099614.44249   2397616.29545  23318196.988    23318207.125
       215.000         160.000
  23336199.927    -1574074.03349  -1208269.71645  23336200.065    23336209.573
       216.000         156.000
  22158958.047    -2968694.75749  -2300452.32747  22158957.713    22158965.746
       232.000         190.000
  21656584.950     1804441.84849   1278589.33947  21656585.598    21656592.642
       236.000         196.000
  24848213.331     1873266.25249   1437335.14545  24848212.291    24848222.927
       201.000         140.000
  21638235.459     2308293.93949   1790853.03947  21638235.122    21638242.588
       235.000         193.000
 01  2  9  2  0 30.0000000  0  7G 6G23G 5G26G17G30G10
  20492651.667    -2451940.39449  -1772800.68048  20492651.662    20492658.460
       244.000         214.000
  23179688.436    -4973996.08249  -3846868.97146  23179687.536    23179698.362
       218.000         166.000
  23337812.072     3202689.66349   2477934.61245  23337811.749    23337821.960
       216.000         160.000
  23320711.362    -1655466.65149  -1271692.38745  23320711.407    23320720.092
       215.000         155.000
  22149817.537    -3016728.06749  -2337880.79047  22149817.101    22149825.522
       232.000         190.000
  21671141.270     1880935.97549   1338195.16747  21671141.661    21671149.272
       236.000         196.000
  21651834.995     2379760.07249   1846540.96547  21651834.217    21651842.121
       235.000         193.000
 01  2  9  2  1  0.0000000  0  7G 6G23G 5G26G17G30G10
  20486687.619    -2483281.56249  -1797222.31948  20486687.411    20486694.275
       245.000         214.000
  23161440.741    -5069887.78049  -3921589.59046  23161440.129    23161450.610
       218.000         166.000
  23357444.862     3305860.29349   2558327.26745  23357444.378    23357453.984
       216.000         159.000
  23305258.768    -1736669.66349  -1334967.32445  23305258.365    23305267.285
       216.000         156.000
  22140712.670    -3064574.14949  -2375163.36247  22140712.314    22140720.555
       232.000         190.000
  21685770.521     1957813.12649   1398099.45047  21685771.113    21685778.349
       237.000         196.000
  21665512.726     2451637.12349   1902549.08347  21665512.218    21665519.549
       235.000         193.000
 01  2  9  2  1 30.0000000  0  7G 6G23G 5G26G17G30G10
  20480786.366    -2514292.58949  -1821386.70248  20480786.297    20480793.052
       244.000         214.000
  23143238.327    -5165541.39949  -3996124.70346  23143237.180    23143248.079
       218.000         166.000
  23377094.893     3409121.83349   2638790.75745  23377094.214    23377104.242
       215.000         158.000
  23289842.613    -1817681.64549  -1398093.40545  23289843.007    23289851.397
       216.000         155.000
  22131642.986    -3112235.14249  -2412301.71147  22131642.363    22131650.725
       231.000         190.000
  21700471.723     2035068.52349   1458298.46947  21700471.946    21700479.699
       235.000         195.000
  21679267.761     2523920.50849   1958873.82047  21679266.936    21679274.931
       234.000         192.000
 01  2  9  2  2  0.0000000  0  7G 6G23G 5G26G17G30G10
  20474948.139    -2544972.52549  -1845293.09648  20474947.988    20474954.933
       244.000         214.000
  23125081.470    -5260955.69449  -4070473.33446  23125080.610    23125090.896
       219.000         167.000
  23396761.543     3512470.76349   2719322.33345  23396761.349    23396771.281
       215.000         157.000
  23274463.291    -1898499.82749  -1461068.46945  23274463.924    23274472.633
       215.000         155.000
  22122608.380    -3159712.10149  -2449296.66247  22122607.847    22122616.251
       232.000         190.000
  21715244.287     2112698.92649   1518789.69947  21715244.819    21715252.044
       236.000         195.000
  21693099.465     2596606.64749   2015512.39047  21693099.060    21693106.791
       235.000         192.000
 01  2  9  2  2 30.0000000  0  7G 6G23G 5G26G17G30G10
  20469173.274    -2575319.45249  -1868939.99848  20469173.176    20469179.962
       244.000         214.000
  23106970.550    -5356128.45949  -4144633.74646  23106969.698    23106979.903
       218.000         167.000
  23416444.394     3615904.57049   2799920.05245  23416443.983    23416455.174
       214.000         157.000
  23259121.567    -1979120.61949  -1523889.72345  23259121.895    23259129.952
       215.000         154.000
  22113608.721    -3207005.26049  -2486148.38947  22113608.318    22113616.342
       232.000         191.000
  21730087.644     2190701.37749   1579570.83947  21730088.143    21730095.700
       236.000         195.000
  21707007.329     2669692.97749   2072462.80047  21707006.912    21707014.256
       234.000         192.000
 01  2  9  2  3  0.0000000  0  7G 6G23G 5G26G17G30G10
  20463462.119    -2605331.57349  -1892326.01748  20463461.950    20463468.611
       244.000         214.000
  23088906.002    -5451057.63649  -4218604.33846  23088904.774    23088914.522
       219.000         167.000
  23436142.812     3719420.29049   2880581.59445  23436142.986    23436152.349
       213.000         156.000
  23243817.991    -2059540.82349  -1586554.68545  23243817.640    23243826.312
       215.000         155.000
  22104643.996    -3254114.91349  -2522857.12647  22104643.444    22104651.696
       232.000         191.000
  21745001.327     2269073.26249   1640639.84347  21745001.649    21745009.351
       236.000         195.000
  21720990.848     2743176.91349   2129723.02747  21720990.131    21720998.106
       234.000         192.000
 01  2  9  2  3 30.0000000  0  7G 6G23G 5G26G17G30G10
  20457814.895    -2635007.75049  -1915450.26048  20457814.760    20457821.340
       244.000         214.000
  23070888.030    -5545741.89649  -4292384.09046  23070887.247    23070897.280
       218.000         168.000
  23455856.195     3823014.64549   2961304.43045  23455856.319    23455866.038
       214.000         156.000
  23228553.170    -2139757.67449  -1649061.19445  23228553.737    23228561.458
       214.000         154.000
  22095713.967    -3301042.26749  -2559423.81647  22095713.466    22095721.689
       232.000         191.000
  21759984.650     2347811.11749   1701994.02647  21759985.006    21759992.591
       235.000         194.000
  21735049.361     2817054.96249   2187290.35947  21735048.959    21735056.218
       234.000         192.000
 01  2  9  2  4  0.0000000  0  7G 6G23G 5G26G17G30G10
  20452232.005    -2664345.71149  -1938310.96148  20452231.964    20452238.618
       244.000         214.000
  23052917.214    -5640178.41749  -4365970.80646  23052916.428    23052926.542
       218.000         168.000
  23475584.215     3926685.82549   3042087.11245  23475584.101    23475594.233
       215.000         155.000
  23213327.798    -2219766.89249  -1711405.90145  23213327.878    23213337.652
       214.000         154.000
  22086818.731    -3347786.65349  -2595847.93347  22086818.504    22086826.231
       232.000         191.000
  21775037.177     2426912.75849   1763631.67547  21775037.615    21775045.219
       235.000         194.000
  21749182.520     2891325.29649   2245163.37047  21749181.775    21749189.592
       234.000         191.000
 01  2  9  2  4 30.0000000  0  7G 6G23G 5G26G17G30G10
  20446713.603    -2693345.04649  -1960907.80048  20446713.475    20446720.158
       244.000         214.000
  23034993.656    -5734366.63049  -4439364.03746  23034992.676    23035003.098
       219.000         168.000
  23495326.009     4030429.40849   3122926.21945  23495326.154    23495335.984
       214.000         155.000
  23198142.304    -2299566.57249  -1773587.31745  23198141.381    23198150.788
       215.000         154.000
  22077957.938    -3394350.15649  -2632131.10947  22077957.388    22077965.233
       232.000         191.000
  21790158.128     2506373.94549   1825549.48347  21790158.847    21790166.260
       235.000         194.000
  21763389.570     2965983.99449   2303338.99347  21763388.909    21763396.481
       234.000         191.000
 01  2  9  2  5  0.0000000  0  7G 6G23G 5G26G17G30G10
  20441260.093    -2722003.26849  -1983238.82948  20441259.950    20441266.725
       243.000         214.000
  23017117.879    -5828303.71449  -4512561.58646  23017117.071    23017126.909
       219.000         168.000
  23515081.199     4134243.36149   3203820.15845  23515081.518    23515091.315
       214.000         155.000
  23182997.461    -2379152.76449  -1835602.41145  23182997.545    23183005.227
       215.000         154.000
  22069131.645    -3440732.38549  -2668273.02847  22069131.258    22069139.239
       232.000         192.000
  21805347.070     2586192.41249   1887745.70247  21805347.652    21805354.773
       235.000         194.000
  21777670.125     3041028.89049   2361815.55947  21777669.253    21777677.099
       234.000         191.000
 01  2  9  2  5 30.0000000  0  7G 6G23G 5G26G17G30G10
  20435871.899    -2750318.12949  -2005302.31248  20435871.900    20435878.498
       244.000         214.000
  22999290.391    -5921987.14549  -4585561.48346  22999290.003    22999300.309
       219.000         168.000
  23534849.393     4238125.60449   3284767.30445  23534849.743    23534858.883
       214.000         155.000
  23167894.018    -2458521.42849  -1897448.01345  23167894.301    23167901.724
       214.000         154.000
  22060339.883    -3486933.20349  -2704273.59547  22060339.245    22060347.480
       232.000         192.000
  21820603.619     2666366.02149   1950218.65147  21820604.090    21820611.434
       235.000         193.000
  21792023.697     3116457.52049   2420591.12647  21792022.896    21792030.943
       234.000         191.000
 01  2  9  2  6  0.0000000  0  7G 6G23G 5G26G17G30G10
  20430549.330    -2778288.31849  -2027097.21648  20430549.205    20430555.956
       244.000         214.000
  22981511.520    -6015415.19049  -4658362.38146  22981511.021    22981520.908
       220.000         168.000
  23554629.953     4342073.02149   3365765.23845  23554630.109    23554639.998
       214.000         156.000
  23152832.526    -2537669.46649  -1959121.64545  23152832.847    23152841.337
       214.000         154.000
  22051582.461    -3532953.34549  -2740133.37947  22051581.858    22051590.012
       233.000         192.000
  21835927.039     2746891.33449   2012965.65347  21835927.412    21835935.087
       235.000         193.000
  21806449.785     3192267.12949   2479663.56847  21806449.209    21806456.607
       234.000         191.000
 01  2  9  2  6 30.0000000  0  7G 6G23G 5G26G17G30G10
  20425292.694    -2805911.99549  -2048622.10948  20425292.674    20425299.180
       243.000         214.000
  22963781.588    -6108585.87349  -4730962.73146  22963780.396    22963790.572
       220.000         169.000
  23574422.430     4446082.72449   3446811.70245  23574422.077    23574433.223
       214.000         156.000
  23137813.651    -2616593.55049  -2020620.80945  23137813.365    23137821.654
       213.000         154.000
  22042859.370    -3578793.30249  -2775852.75647  22042859.066    22042866.899
       232.000         192.000
  21851316.928     2827765.66649   2075984.61947  21851317.618    21851324.671
       234.000         193.000
  21820947.820     3268454.86449   2539030.65447  21820947.293    21820954.852
       233.000         190.000
 01  2  9  2  7  0.0000000  0  7G 6G23G 5G26G17G30G10
  20420102.340    -2833187.23749  -2069875.49548  20420102.217    20420108.883
       244.000         214.000
  22946101.069    -6201496.96549  -4803360.80646  22946100.285    22946109.801
       221.000         169.000
  23594226.259     4550152.27549   3527904.81345  23594225.797    23594236.912
       214.000         156.000
  23122838.080    -2695290.13349  -2081942.64845  23122838.462    23122846.075
       214.000         154.000
  22034170.547    -3624453.11049  -2811431.75947  22034170.032    22034177.839
       233.000         193.000
  21866772.704     2908986.29149   2139273.41947  21866773.028    21866780.743
       234.000         192.000
  21835517.266     3345017.84249   2598690.13647  21835516.846    21835524.098
       234.000         190.000
 01  2  9  2  7 30.0000000  0  7G 6G23G 5G26G17G30G10
  20414978.666    -2860112.16349  -2090855.91048  20414978.554    20414985.200
       244.000         214.000
  22928470.338    -6294146.38149  -4875554.97146  22928469.581    22928478.464
       220.000         169.000
  23614041.031     4654279.21749   3609042.64345  23614040.970    23614050.517
       215.000         156.000
  23107906.502    -2773755.66449  -2143084.49145  23107906.669    23107914.737
       215.000         155.000
  22025515.979    -3669932.89849  -2846870.48547  22025515.263    22025523.795
       233.000         193.000
  21882293.888     2990550.65649   2202830.07447  21882294.513    21882301.742
       234.000         192.000
  21850157.715     3421953.93949   2658640.35947  21850157.361    21850164.630
       234.000         190.000
 01  2  9  2  8  0.0000000  0  7G 6G23G 5G26G17G30G10
  20409921.833    -2886685.83049  -2111562.61848  20409921.835    20409928.367
       243.000         214.000
  22910889.699    -6386532.50049  -4947543.97046  22910889.451    22910898.141
       221.000         170.000
  23633866.067     4758460.31949   3690222.67345  23633865.765    23633875.555
       215.000         156.000
  23093019.459    -2851987.26949  -2204044.06245  23093019.515    23093027.888
       216.000         155.000
  22016895.419    -3715233.97249  -2882169.96147  22016895.091    22016903.020
       233.000         193.000
  21897879.830     3072455.30549   2266651.88147  21897880.093    21897888.021
       234.000         192.000
  21864868.486     3499259.59549   2718878.55547  21864868.177    21864875.427
       233.000         190.000
 01  2  9  2  8 30.0000000  0  7G 6G23G 5G26G17G30G10
  20404932.306    -2912905.79249  -2131993.71148  20404932.239    20404938.782
       244.000         214.000
  22893359.682    -6478652.68149  -5019325.73846  22893359.327    22893368.491
       221.000         170.000
  23653701.048     4862693.55649   3771443.32445  23653700.784    23653711.405
       215.000         156.000
  23078177.662    -2929980.86849  -2264818.15145  23078177.510    23078186.633
       214.000         156.000
  22008308.976    -3760355.80349  -2917329.75947  22008308.495    22008316.778
       233.000         193.000
  21913530.077     3154698.00849   2330737.10747  21913530.429    21913537.804
       234.000         192.000
  21879649.242     3576932.94949   2779403.26847  21879648.634    21879656.090
       233.000         189.000
 01  2  9  2  9  0.0000000  0  7G 6G23G 5G26G17G30G10
  20400010.378    -2938770.51849  -2152147.99848  20400010.367    20400016.903
       244.000         214.000
  22875880.571    -6570505.35449  -5090899.06246  22875879.658    22875889.471
       220.000         170.000
  23673545.346     4966975.90349   3852702.25045  23673545.156    23673555.512
       215.000         156.000
  23063381.709    -3007733.35449  -2325404.38145  23063381.403    23063390.143
       215.000         156.000
  21999756.553    -3805298.87749  -2952350.26747  21999755.866    21999764.145
       233.000         193.000
  21929244.090     3237275.64849   2395083.32047  21929244.590    21929252.386
       233.000         191.000
  21894499.372     3654971.04949   2840212.20347  21894499.154    21894506.667
       232.000         189.000
 01  2  9  2  9 30.0000000  0  7G 6G23G 5G26G17G30G10
  20395156.290    -2964278.80949  -2172024.54148  20395156.187    20395162.745
       243.000         214.000
  22858452.644    -6662089.06849  -5162262.79046  22858451.883    22858461.536
       221.000         171.000
  23693398.353     5071303.87949   3933996.73445  23693397.952    23693408.372
       215.000         156.000
  23048632.241    -3085241.88649  -2385800.52245  23048632.094    23048640.166
       216.000         157.000
  21991237.952    -3850064.05449  -2987232.15147  21991237.233    21991245.441
       233.000         193.000
  21945021.153     3320184.61649   2459687.71247  21945021.018    21945028.969
       233.000         191.000
  21909418.250     3733370.31249   2901302.55847  21909417.546    21909424.944
       233.000         189.000
 01  2  9  2 10  0.0000000  0  7G 6G23G 5G26G17G30G10
  20390370.408    -2989428.60149  -2191621.73848  20390370.330    20390376.846
       244.000         214.000
  22841076.290    -6753401.67649  -5233415.27746  22841075.013    22841085.051
       221.000         171.000
  23713259.596     5175675.24649   4015325.01345  23713259.322    23713269.672
       214.000         156.000
  23033929.923    -3162502.70849  -2446003.63545  23033929.762    23033938.158
       216.000         157.000
  21982753.222    -3894651.40649  -3021975.46847  21982752.837    21982760.711
       233.000         193.000
  21960860.818     3403422.46049   2524548.37447  21960861.092    21960868.727
       233.000         191.000
  21924405.429     3812128.69049   2962672.74647  21924404.710    21924412.511
       232.000         188.000
 01  2  9  2 10 30.0000000  0  7G 6G23G 5G26G17G30G10
  20385653.257    -3014217.26049  -2210937.53548  20385653.336    20385659.720
       243.000         214.000
  22823752.126    -6844439.93049  -5304353.97346  22823751.715    22823761.099
       222.000         172.000
  23733128.835     5280088.47649   4096685.92545  23733128.097    23733139.051
       215.000         156.000
  23019275.560    -3239511.40449  -2506010.29845  23019275.547    23019284.002
       216.000         158.000
  21974302.458    -3939060.33149  -3056579.74947  21974301.927    21974309.884
       233.000         194.000
  21976762.670     3486987.30149   2589663.83347  21976763.074    21976770.606
       233.000         190.000
  21939460.660     3891244.44149   3024321.40647  21939459.718    21939467.336
       232.000         188.000
 01  2  9  2 11  0.0000000  0  7G 6G23G 5G26G17G30G10
  20381004.809    -3038644.83249  -2229971.96348  20381004.934    20381011.287
       244.000         214.000
  22806480.229    -6935203.64149  -5375078.74646  22806479.473    22806488.879
       222.000         172.000
  23753005.137     5384538.98149   4178075.88745  23753004.727    23753015.325
       214.000         156.000
  23004669.495    -3316266.31349  -2565819.20845  23004669.689    23004677.567
       215.000         158.000
  21965885.195    -3983293.00449  -3091046.69247  21965884.445    21965893.235
       234.000         194.000
  21992725.897     3570874.52749   2655030.50147  21992726.093    21992733.833
       233.000         190.000
  21954582.991     3970712.96049   3086244.94647  21954582.209    21954589.720
       233.000         188.000
 01  2  9  2 11 30.0000000  0  7G 6G23G 5G26G17G30G10
  20376425.606    -3062708.56349  -2248722.87848  20376425.514    20376432.100
       244.000         214.000
  22789261.091    -7025689.95749  -5445587.36346  22789260.653    22789269.688
       223.000         173.000
  23772888.234     5489025.20849   4259493.66345  23772888.432    23772898.317
       214.000         155.000
  22990112.590    -3392762.90849  -2625426.81345  22990112.666    22990121.379
       215.000         159.000
  21957501.613    -4027348.71949  -3125375.74047  21957501.348    21957509.326
       234.000         194.000
  22008750.097     3655082.33949   2720646.97247  22008750.689    22008757.836
       233.000         190.000
  21969772.129     4050532.50949   3148442.02447  21969771.674    21969778.997
       232.000         188.000
 01  2  9  2 12  0.0000000  0  7G 6G23G 5G26G17G30G10
  20371915.842    -3086407.33649  -2267189.41048  20371915.766    20371922.357
       243.000         214.000
  22772095.030    -7115897.50449  -5515878.75946  22772094.477    22772103.810
       222.000         173.000
  23792777.518     5593543.87649   4340936.72345  23792777.923    23792788.733
       214.000         155.000
  22975605.307    -3468998.56949  -2684831.11645  22975605.559    22975613.333
       216.000         159.000
  21949151.515    -4071228.47349  -3159567.67747  21949150.959    21949159.326
       234.000         194.000
  22024834.581     3739606.86949   2786510.23747  22024834.764    22024842.314
       233.000         190.000
  21985027.436     4130699.79949   3210910.06446  21985027.122    21985034.269
       232.000         187.000
 01  2  9  2 12 30.0000000  0  7G 6G23G 5G26G17G30G10
  20367475.980    -3109738.76449  -2285369.70648  20367476.050    20367482.424
       243.000         214.000
  22754982.499    -7205823.71449  -5585950.93446  22754981.664    22754990.559
       222.000         174.000
  23812672.638     5698093.25049   4422403.71545  23812672.480    23812682.605
       213.000         155.000
  22961148.487    -3544969.18549  -2744028.89245  22961148.368    22961156.925
       216.000         160.000
  21940834.971    -4114931.78149  -3193622.12547  21940834.476    21940842.811
       233.000         194.000
  22040978.989     3824446.23549   2852618.82247  22040979.397    22040986.950
       233.000         189.000
  22000348.532     4211212.79249   3273647.47546  22000347.926    22000355.272
       231.000         187.000
 01  2  9  2 13  0.0000000  0  7G 6G23G 5G26G17G30G10
  20363106.201    -3132701.91649  -2303263.02948  20363106.215    20363112.504
       243.000         214.000
  22737923.738    -7295467.33249  -5655802.90746  22737923.023    22737932.272
       224.000         174.000
  23832572.950     5802669.82649   4503891.90545  23832573.153    23832583.556
       212.000         154.000
  22946742.667    -3620671.85949  -2803017.88145  22946742.381    22946750.756
       218.000         161.000
  21932551.844    -4158459.73049  -3227539.93047  21932551.630    21932559.226
       234.000         194.000
  22057182.599     3909596.82649   2918969.93347  22057183.510    22057190.777
       232.000         189.000
  22015734.725     4292067.81849   3336651.40946  22015733.935    22015741.210
       231.000         186.000
 01  2  9  2 13 30.0000000  0  7G 6G23G 5G26G17G30G10
  20358806.965    -3155294.50649  -2320867.60148  20358806.981    20358813.426
       243.000         214.000
  22720919.220    -7384826.03749  -5725432.87246  22720918.615    22720927.936
       224.000         174.000
  23852477.999     5907271.45249   4585399.62145  23852477.274    23852488.065
       213.000         155.000
  22932388.512    -3696102.91049  -2861795.21445  22932388.528    22932397.487
       219.000         161.000
  21924302.070    -4201812.19449  -3261320.98947  21924301.522    21924309.897
       234.000         194.000
  22073444.991     3995056.22649   2985561.67247  22073445.362    22073453.087
       232.000         189.000
  22031185.583     4373262.70549   3399920.16746  22031185.358    22031192.660
       231.000         186.000
 01  2  9  2 14  0.0000000  0  7G 6G23G 5G26G17G30G10
  20354578.574    -3177514.67549  -2338181.97648  20354578.499    20354584.908
       243.000         214.000
  22703969.288    -7473897.65449  -5794839.13446  22703968.260    22703977.427
       224.000         175.000
  23872387.378     6011895.65249   4666924.92245  23872386.701    23872397.969
       212.000         154.000
  22918086.790    -3771258.65449  -2920358.01845  22918086.899    22918095.503
       218.000         162.000
  21916085.648    -4244989.37849  -3294965.46147  21916085.110    21916093.022
       233.000         195.000
  22089765.589     4080821.51649   3052391.76247  22089766.003    22089773.161
       232.000         188.000
  22046700.674     4454795.00249   3463451.84846  22046699.767    22046707.692
       231.000         186.000
 01  2  9  2 14 30.0000000  0  7G 6G23G 5G26G17G30G10
  20350421.209    -3199361.67149  -2355205.56548  20350421.067    20350427.695
       244.000         214.000
  22687074.230    -7562680.91149  -5864020.70346  22687073.666    22687082.343
       224.000         175.000
  23892300.389     6116538.94549   4748465.09745  23892300.025    23892311.363
       211.000         154.000
  22903837.981    -3846136.45949  -2978704.24946  22903837.913    22903846.015
       218.000         163.000
  21907902.407    -4287992.31649  -3328474.16447  21907902.065    21907909.525
       234.000         195.000
  22106143.706     4166889.17949   3119457.47447  22106144.085    22106151.757
       231.000         188.000
  22062279.320     4536661.32849   3527243.80546  22062278.722    22062286.371
       231.000         186.000
 01  2  9  2 15  0.0000000  0  7G 6G23G 5G26G17G30G10
  20346335.316    -3220833.01449  -2371936.44048  20346335.255    20346341.776
       243.000         214.000
  22670234.585    -7651173.21849  -5932975.57246  22670233.364    22670242.826
       225.000         175.000
  23912216.699     6221199.70349   4830018.88545  23912217.246    23912226.592
       212.000         153.000
  22889642.804    -3920732.16349  -3036830.67346  22889643.130    22889651.173
       218.000         163.000
  21899752.376    -4330820.66349  -3361846.81947  21899751.577    21899759.897
       234.000         195.000
  22122578.903     4253256.78449   3186756.89647  22122579.127    22122587.159
       232.000         188.000
  22077921.088     4618859.51849   3591294.35646  22077920.304    22077927.415
       231.000         185.000
 01  2  9  2 15 30.0000000  0  7G 6G23G 5G26G17G30G10
  20342321.061    -3241927.92649  -2388373.99148  20342320.914    20342327.416
       243.000         214.000
  22653450.456    -7739373.75249  -6001703.08746  22653449.783    22653457.976
       225.000         176.000
  23932135.603     6325874.03149   4911583.24145  23932135.367    23932146.118
       211.000         153.000
  22875501.778    -3995043.49349  -3094735.47446  22875502.009    22875509.616
       219.000         163.000
  21891635.289    -4373475.98149  -3395084.64947  21891634.487    21891642.622
       233.000         195.000
  22139070.444     4339920.34149   3254286.93946  22139071.010    22139078.851
       231.000         187.000
  22093625.346     4701386.03049   3655600.73446  22093624.692    22093632.555
       230.000         185.000
 01  2  9  2 16  0.0000000  0  7G 6G23G 5G26G17G30G10
  20338378.782    -3262644.53749  -2404516.76548  20338378.823    20338385.175
       243.000         214.000
  22636722.231    -7827280.26449  -6070201.50246  22636721.574    22636730.835
       225.000         177.000
  23952056.691     6430559.73849   4993156.46745  23952056.306    23952066.662
       209.000         152.000
  22861415.531    -4069066.64049  -3152415.74146  22861415.092    22861423.462
       219.000         164.000
  21883551.117    -4415958.23449  -3428187.62447  21883550.673    21883558.496
       234.000         195.000
  22155617.849     4426877.51049   3322045.76346  22155618.085    22155625.712
       232.000         187.000
  22109391.618     4784238.47649   3720161.09246  22109390.657    22109398.561
       230.000         184.000
 01  2  9  2 16 30.0000000  0  7G 6G23G 5G26G17G30G10
  20334508.983    -3282980.34849  -2420362.80648  20334508.892    20334515.357
       244.000         214.000
  22620050.529    -7914890.05449  -6138468.71246  22620049.755    22620058.883
       225.000         177.000
  23971979.594     6535255.24549   5074737.33845  23971980.094    23971989.767
       212.000         152.000
  22847384.971    -4142797.34849  -3209868.11746  22847385.194    22847393.344
       219.000         164.000
  21875500.040    -4458266.71549  -3461155.19047  21875499.597    21875507.520
       234.000         195.000
  22172220.787     4514126.28949   3390031.82046  22172221.281    22172228.404
       231.000         187.000
  22125219.523     4867414.74649   3784973.78746  22125218.770    22125226.471
       230.000         184.000
 01  2  9  2 17  0.0000000  0  7G 6G23G 5G26G17G30G10
  20330711.714    -3302934.90149  -2435911.76648  20330711.631    20330718.041
       243.000         214.000
  22603435.421    -8002202.42249  -6206504.16346  22603434.568    22603443.335
       225.000         177.000
  23991903.688     6639956.78149   5156322.90245  23991903.641    23991914.109
       210.000         151.000
  22833410.427    -4216233.54949  -3267091.01246  22833410.189    22833419.335
       220.000         165.000
  21867481.692    -4500403.14649  -3493988.69747  21867481.288    21867488.816
       234.000         195.000
  22188878.334     4601662.29349   3458241.69146  22188879.219    22188886.382
       231.000         186.000
  22141108.323     4950910.95949   3850035.78446  22141107.710    22141115.451
       230.000         184.000
 01  2  9  2 17 30.0000000  0  7G 6G23G 5G26G17G30G10
  20326987.491    -3322505.68849  -2451161.68548  20326987.369    20326993.995
       244.000         214.000
  22586877.374    -8089214.77449  -6274305.84846  22586876.731    22586885.699
       226.000         178.000
  24011828.559     6744662.59949   5237911.79545  24011827.188    24011838.702
       210.000         151.000
  22819492.760    -4289371.02149  -3324081.12846  22819492.954    22819501.020
       220.000         165.000
  21859496.168    -4542366.93249  -3526687.68047  21859495.716    21859503.500
       234.000         195.000
  22205590.151     4689483.52549   3526673.81746  22205590.460    22205598.101
       230.000         186.000
  22157057.636     5034725.14849   3915345.55846  22157056.849    22157064.530
       229.000         184.000
 01  2  9  2 18  0.0000000  0  7G 6G23G 5G26G17G30G10
  20323336.548    -3341691.46049  -2466111.59648  20323336.527    20323342.740
       243.000         214.000
  22570376.774    -8175925.42449  -6341872.44946  22570375.914    22570384.507
       226.000         178.000
  24031753.668     6849369.70149   5319501.70345  24031753.793    24031764.054
       209.000         149.000
  22805632.523    -4362206.66049  -3380836.04746  22805632.289    22805640.747
       220.000         166.000
  21851543.435    -4584158.56449  -3559252.51447  21851542.912    21851550.521
       234.000         195.000
  22222355.669     4777586.75349   3595325.68246  22222356.053    22222363.720
       231.000         186.000
  22173066.893     5118854.39849   3980900.82546  22173066.276    22173073.453
       230.000         183.000
 01  2  9  2 18 30.0000000  0  7G 6G23G 5G26G17G30G10
  20319759.070    -3360491.00949  -2480760.55348  20319758.984    20319765.376
       243.000         214.000
  22553933.781    -8262333.33249  -6409203.15546  22553932.777    22553942.106
       226.000         179.000
  24051678.399     6954074.68249   5401089.94045  24051677.820    24051688.544
       210.000         149.000
  22791830.262    -4434737.61949  -3437353.54246  22791830.534    22791838.663
       220.000         166.000
  21843623.255    -4625779.06249  -3591684.00647  21843622.905    21843630.824
       234.000         195.000
  22239174.110     4865968.34349   3664194.44746  22239174.350    22239182.077
       230.000         185.000
  22189135.476     5203295.26749   4046698.91646  22189134.672    22189142.704
       229.000         183.000
 01  2  9  2 19  0.0000000  0  7G 6G23G 5G26G17G30G10
  20316255.613    -3378901.66649  -2495106.48348  20316255.579    20316261.940
       244.000         214.000
  22537548.929    -8348435.78749  -6476295.85246  22537548.310    22537557.213
       226.000         179.000
  24071602.393     7058776.01849   5482675.34945  24071602.626    24071612.649
       208.000         148.000
  22778086.726    -4506959.68849  -3493630.35446  22778086.939    22778094.625
       220.000         166.000
  21835735.751    -4667227.89449  -3623981.72847  21835735.125    21835742.894
       235.000         196.000
  22256045.153     4954626.23249   3733278.51746  22256045.530    22256053.093
       230.000         185.000
  22205262.949     5288045.81549   4112738.31946  22205262.127    22205269.631
       229.000         183.000
 01  2  9  2 19 30.0000000  0  7G 6G23G 5G26G17G30G10
  20312826.341    -3396922.43049  -2509148.59848  20312826.313    20312832.832
       243.000         214.000
  22521222.431    -8434231.48249  -6543149.51946  22521222.242    22521231.137
       227.000         179.000
  24091525.132     7163470.54349   5564255.43445  24091524.884    24091535.317
       207.000         147.000
  22764402.533    -4578870.11149  -3549664.32746  22764403.212    22764410.560
       221.000         167.000
  21827880.786    -4708505.83149  -3656146.28547  21827880.203    21827887.951
       235.000         196.000
  22272968.097     5043556.97449   3802575.19046  22272968.515    22272976.182
       229.000         185.000
  22221448.800     5373103.09549   4179016.73446  22221447.952    22221455.977
       229.000         182.000
 01  2  9  2 20  0.0000000  0  7G 6G23G 5G26G17G30G10
  20309471.578    -3414551.61549  -2522885.59148  20309471.605    20309477.793
       243.000         214.000
  22504954.700    -8519718.41749  -6609762.59246  22504954.514    22504962.484
       226.000         180.000
  24111446.100     7268155.81749   5645828.31445  24111446.063    24111456.357
       208.000         145.000
  22750778.345    -4650465.47349  -3605452.79746  22750778.874    22750786.759
       221.000         167.000
  21820058.292    -4749613.08449  -3688177.84247  21820057.868    21820065.559
       235.000         196.000
  22289942.427     5132757.62549   3872082.19146  22289942.344    22289950.417
       230.000         184.000
  22237692.440     5458464.06849   4245531.79446  22237691.936    22237699.050
       229.000         182.000
 01  2  9  2 20 30.0000000  0  7G 6G23G 5G26G17G30G10
  20306191.684    -3431787.42849  -2536316.05848  20306191.636    20306198.109
       243.000         214.000
  22488746.095    -8604894.61749  -6676133.54546  22488744.976    22488754.308
       227.000         180.000
  24131364.880     7372829.48249   5727392.15345  24131364.604    24131375.354
       209.000         145.000
  22737214.739    -4721742.11849  -3660992.92346  22737214.674    22737222.468
       222.000         167.000
  21812268.240    -4790549.94649  -3720076.62747  21812268.031    21812275.288
       235.000         196.000
  22306967.553     5222225.24949   3941797.21846  22306968.127    22306975.222
       230.000         184.000
  22253993.396     5544126.33549   4312281.62246  22253992.462    22254000.738
       229.000         182.000
 01  2  9  2 21  0.0000000  0  7G 6G23G 5G26G17G30G10
  20302986.875    -3448628.63449  -2549439.04048  20302986.795    20302993.128
       243.000         214.000
  22472596.936    -8689758.53249  -6742261.15646  22472595.936    22472605.223
       226.000         180.000
  24151280.937     7477488.82149   5808944.82745  24151280.896    24151291.427
       210.000         145.000
  22723712.380    -4792697.17249  -3716282.44746  22723712.321    22723720.392
       223.000         167.000
  21804510.439    -4831317.16449  -3751843.22047  21804510.032    21804517.534
       235.000         196.000
  22324042.905     5311956.80249   4011717.90846  22324043.077    22324050.232
       229.000         184.000
  22270351.188     5630087.01449   4379263.98546  22270350.697    22270358.136
       228.000         182.000
 01  2  9  2 21 30.0000000  0  7G 6G23G 5G26G17G30G10
  20299857.512    -3465073.51249  -2562253.19448  20299857.531    20299863.882
       243.000         214.000
  22456507.574    -8774308.19249  -6808143.89746  22456506.734    22456515.602
       226.000         180.000
  24171193.859     7582131.62649   5890484.63145  24171193.531    24171203.730
       209.000         144.000
  22710271.878    -4863326.78849  -3771318.38546  22710271.756    22710279.576
       220.000         167.000
  21796784.945    -4871914.67949  -3783477.58147  21796784.530    21796791.965
       234.000         196.000
  22341168.005     5401949.63749   4081842.19246  22341168.391    22341176.069
       229.000         183.000
  22286765.269     5716343.61649   4446476.93646  22286764.424    22286771.823
       228.000         181.000
 01  2  9  2 22  0.0000000  0  7G 6G23G 5G26G17G30G10
  20296803.740    -3481120.96649  -2574757.66648  20296803.635    20296810.050
       243.000         214.000
  22440478.316    -8858542.24249  -6873780.70946  22440477.071    22440486.728
       226.000         181.000
  24191103.050     7686754.73049   5972009.07345  24191102.988    24191113.118
       211.000         144.000
  22696893.900    -4933628.16149  -3826098.56246  22696893.637    22696901.457
       222.000         167.000
  21789091.576    -4912343.38649  -3814980.39847  21789091.256    21789098.733
       235.000         197.000
  22358342.122     5492200.23849   4152167.33546  22358342.062    22358350.115
       229.000         183.000
  22303235.067     5802893.05049   4513918.06546  22303234.572    22303242.482
       228.000         181.000
 01  2  9  2 22 30.0000000  0  7G 6G23G 5G26G17G30G10
  20293825.968    -3496769.09049  -2586950.97548  20293825.917    20293832.185
       243.000         214.000
  22424509.402    -8942458.92049  -6939170.21346  22424508.896    22424517.869
       226.000         181.000
  24211007.984     7791355.50949   6053516.11945  24211007.618    24211018.265
       213.000         143.000
  22683579.017    -5003598.02849  -3880620.41346  22683579.045    22683586.442
       222.000         167.000
  21781430.338    -4952603.28449  -3846351.67647  21781430.030    21781437.443
       235.000         197.000
  22375564.753     5582705.72949   4222691.09046  22375565.498    22375572.685
       229.000         183.000
  22319760.086     5889732.63749   4581585.28846  22319759.582    22319766.373
       227.000         181.000
 01  2  9  2 23  0.0000000  0  7G 6G23G 5G26G17G30G10
  20290924.591    -3512015.86449  -2598831.53448  20290924.555    20290930.709
       243.000         214.000
  22408601.382    -9026055.86349  -7004310.57246  22408600.739    22408609.458
       227.000         182.000
  24230908.329     7895932.17449   6135004.37645  24230908.021    24230918.460
       211.000         143.000
  22670327.888    -5073232.46949  -3934880.90146  22670327.619    22670336.115
       221.000         167.000
  21773801.234    -4992694.15349  -3877591.24347  21773800.941    21773808.293
       235.000         197.000
  22392835.354     5673463.53949   4293411.45946  22392835.942    22392842.970
       229.000         183.000
  22336339.875     5976860.11249   4649476.83746  22336338.914    22336346.929
       227.000         180.000
 01  2  9  2 23 30.0000000  0  7G 6G23G 5G26G17G30G10
  20288099.720    -3526860.62349  -2610398.84148  20288099.551    20288105.956
       243.000         214.000
  22392754.312    -9109332.31849  -7069201.19846  22392754.219    22392761.748
       227.000         182.000
  24250803.443     8000481.41849   6216471.29145  24250803.328    24250813.521
       212.000         142.000
  22657141.062    -5142529.15849  -3988878.20446  22657141.607    22657148.379
       221.000         167.000
  21766204.065    -5032617.27149  -3908700.09147  21766203.751    21766211.322
       235.000         197.000
  22410153.266     5764469.82649   4364325.44446  22410153.903    22410160.831
       228.000         182.000
  22352973.760     6064271.76649   4717589.82546  22352973.768    22352981.407
       228.000         180.000
 01  2  9  2 24  0.0000000  0  8G22G 6G23G 5G26G17G30G10
  24365850.972    -6557072.78549  -5096703.23645  24365850.333    24365860.162
       200.000         141.000
  20285350.690    -3541306.62049  -2621655.42148  20285350.634    20285356.958
       243.000         214.000
  22376967.573    -9192291.57949  -7133844.65646  22376967.028    22376975.748
       227.000         182.000
  24270691.895     8104995.61949   6297910.90345  24270691.740    24270701.990
       213.000         142.000
  22644018.226    -5211489.53949  -4042613.45046  22644018.732    22644026.326
       222.000         167.000
  21758637.857    -5072377.82549  -3939682.27247  21758637.679    21758644.944
       235.000         197.000
  22427516.997     5855716.69249   4435426.89846  22427517.283    22427524.642
       229.000         182.000
  22369660.303     6151960.16649   4785918.46146  22369659.677    22369667.304
       227.000         180.000
 01  2  9  2 24 30.0000000  0  8G22G 6G23G 5G26G17G30G10
  24353664.016    -6621114.71949  -5146605.91445  24353662.031    24353673.098
       201.000         140.000
  20282678.645    -3555348.23649  -2632596.90448  20282678.674    20282684.843
       243.000         214.000
  22361242.396    -9274927.56249  -7198236.20746  22361241.804    22361250.380
       227.000         183.000
  24290573.974     8209476.47349   6379324.52545  24290573.466    24290583.558
       214.000         141.000
  22630960.846    -5280106.17349  -4096080.84846  22630960.672    22630968.527
       222.000         168.000
  21751103.269    -5111971.98949  -3970534.79247  21751102.755    21751110.076
       235.000         198.000
  22444926.733     5947205.60949   4506716.95746  22444926.651    22444935.101
       228.000         182.000
  22386399.748     6239926.52749   4854463.69046  22386399.128    22386407.175
       227.000         180.000
 01  2  9  2 25  0.0000000  0  8G22G 6G23G 5G26G17G30G10
  24341558.509    -6684729.13449  -5196175.47345  24341557.520    24341567.810
       198.000         140.000
  20280084.672    -3568979.50349  -2643218.63748  20280084.510    20280090.821
       243.000         214.000
  22345579.873    -9357234.15849  -7262371.09046  22345579.087    22345587.321
       227.000         183.000
  24310450.161     8313926.10949   6460713.79545  24310450.395    24310460.927
       213.000         142.000
  22617970.346    -5348371.32949  -4149274.36946  22617970.065    22617978.161
       222.000         168.000
  21743601.161    -5151395.58649  -4001254.40747  21743600.778    21743607.944
       235.000         198.000
  22462382.854     6038938.03049   4578196.77146  22462383.565    22462390.591
       228.000         181.000
  22403192.416     6328172.63749   4923226.89646  22403191.973    22403199.148
       228.000         179.000
 01  2  9  2 25 30.0000000  0  8G22G 6G23G 5G26G17G30G10
  24329534.218    -6747916.72649  -5245412.43645  24329533.295    24329543.604
       200.000         139.000
  20277568.690    -3582200.96249  -2653521.04048  20277568.681    20277574.952
       243.000         214.000
  22329979.954    -9439211.80849  -7326249.65346  22329979.267    22329987.542
       228.000         183.000
  24330319.466     8418339.76249   6542075.06445  24330319.710    24330329.412
       212.000         141.000
  22605046.966    -5416283.78549  -4202193.06046  22605046.372    22605054.638
       222.000         168.000
  21736131.039    -5190651.17749  -4031843.10347  21736130.550    21736138.063
       236.000         198.000
  22479884.269     6130908.58649   4649862.13546  22479884.400    22479892.562
       228.000         181.000
  22420037.377     6416693.72349   4992204.37846  22420036.442    22420044.076
       227.000         179.000
 01  2  9  2 26  0.0000000  0  8G22G 6G23G 5G26G17G30G10
  24317591.291    -6810676.51749  -5294316.04945  24317590.942    24317601.085
       198.000         139.000
  20275130.738    -3595012.34849  -2663503.90748  20275130.679    20275136.974
       243.000         214.000
  22314442.712    -9520860.02149  -7389871.51146  22314442.103    22314450.228
       228.000         184.000
  24350181.187     8522713.78749   6623405.44945  24350181.110    24350191.502
       211.000         141.000
  22592191.033    -5483841.72549  -4254835.50746  22592191.211    22592198.843
       222.000         168.000
  21728692.572    -5229740.24949  -4062302.04347  21728692.069    21728699.448
       236.000         198.000
  22497430.219     6223113.06549   4721709.77746  22497430.473    22497438.390
       228.000         181.000
  22436934.006     6505485.98049   5061393.15946  22436933.614    22436940.483
       226.000         179.000
 01  2  9  2 26 30.0000000  0  8G22G 6G23G 5G26G17G30G10
  24305730.441    -6873005.18449  -5342883.72145  24305729.624    24305739.975
       199.000         139.000
  20272771.302    -3607411.10049  -2673165.23948  20272771.253    20272777.561
       243.000         214.000
  22298968.707    -9602176.07449  -7453234.53646  22298968.226    22298976.516
       229.000         184.000
  24370035.151     8627046.84149   6704703.89645  24370034.716    24370046.285
       211.000         142.000
  22579403.460    -5551040.46649  -4307198.06246  22579403.324    22579411.090
       221.000         168.000
  21721285.963    -5268661.95349  -4092630.56847  21721285.487    21721292.906
       236.000         198.000
  22515020.315     6315549.58549   4793738.23446  22515020.646    22515028.398
       229.000         181.000
  22453881.895     6594547.84249   5130792.02146  22453880.882    22453888.364
       227.000         179.000
 01  2  9  2 27  0.0000000  0  8G22G 6G23G 5G26G17G30G10
  24293951.637    -6934902.57249  -5391115.34245  24293950.268    24293960.987
       201.000         139.000
  20270490.396    -3619397.32749  -2682505.12548  20270490.461    20270496.682
       243.000         214.000
  22283557.911    -9683159.90049  -7516338.69346  22283557.244    22283565.645
       229.000         185.000
  24389880.492     8731334.56549   6785967.02245  24389880.557    24389890.464
       212.000         142.000
  22566684.523    -5617878.62049  -4359279.64146  22566683.940    22566691.654
       223.000         168.000
  21713910.839    -5307418.20749  -4122830.17247  21713910.503    21713917.738
       236.000         199.000
  22532653.723     6408213.71149   4865944.04246  22532654.258    22532661.344
       228.000         180.000
  22470880.274     6683874.88549   5200397.52046  22470880.133    22470887.361
       228.000         178.000
 01  2  9  2 27 30.0000000  0  8G22G 6G23G 5G26G17G30G10
  24282255.318    -6996366.78449  -5439009.40045  24282253.985    24282264.358
       202.000         139.000
  20268288.346    -3630968.99549  -2691521.98148  20268288.246    20268294.445
       243.000         214.000
  22268210.733    -9763809.40649  -7579182.32846  22268210.029    22268218.265
       229.000         185.000
  24409716.799     8835574.98949   6867193.28445  24409716.535    24409727.375
       210.000         142.000
  22554034.909    -5684352.26949  -4411077.19446  22554035.156    22554042.963
       222.000         168.000
  21706567.198    -5346009.01049  -4152900.85247  21706566.816    21706573.920
       236.000         199.000
  22550329.953     6501102.90149   4938325.22446  22550330.351    22550338.146
       228.000         180.000
  22487928.691     6773464.97749   5270207.98446  22487928.401    22487935.616
       226.000         178.000
 01  2  9  2 28  0.0000000  0  8G22G 6G23G 5G26G17G30G10
  24270641.691    -7057396.21649  -5486564.68345  24270639.726    24270651.163
       203.000         140.000
  20266165.479    -3642124.67749  -2700214.69548  20266165.446    20266171.548
       243.000         214.000
  22252927.488    -9844122.90649  -7641764.15346  22252926.550    22252935.339
       229.000         185.000
  24429543.693     8939765.71649   6948380.82745  24429543.129    24429553.682
       208.000         143.000
  22541455.303    -5750458.24649  -4462588.25146  22541455.175    22541463.216
       223.000         168.000
  21699255.015    -5384434.48249  -4182842.70747  21699254.759    21699261.700
       236.000         199.000
  22568048.379     6594213.95949   5010879.29146  22568049.045    22568056.779
       228.000         180.000
  22505026.626     6863315.27449   5340221.21146  22505026.434    22505033.551
       226.000         178.000
 01  2  9  2 28 30.0000000  0  8G22G 6G23G 5G26G17G30G10
  24259111.176    -7117989.22049  -5533779.87745  24259111.117    24259119.926
       202.000         140.000
  20264121.851    -3652863.80149  -2708582.81948  20264121.820    20264128.067
       243.000         214.000
  22237708.310    -9924099.68349  -7704083.59346  22237707.675    22237715.959
       229.000         186.000
  24449360.542     9043903.61949   7029527.20045  24449360.610    24449370.717
       209.000         142.000
  22528946.056    -5816194.17549  -4513810.95946  22528945.885    22528953.666
       224.000         169.000
  21691974.079    -5422695.80949  -4212656.65347  21691973.609    21691981.053
       237.000         199.000
  22585808.373     6687543.34849   5083603.49146  22585808.720    22585816.486
       228.000         180.000
  22522173.446     6953422.33649   5410434.50646  22522172.824    22522180.104
       228.000         178.000
 01  2  9  2 29  0.0000000  0  8G22G 6G23G 5G26G17G30G10
  24247664.095    -7178143.56649  -5580653.26545  24247663.512    24247672.981
       205.000         140.000
  20262157.965    -3663184.08349  -2716624.57048  20262157.970    20262164.017
       243.000         214.000
  22222553.628   -10003737.66149  -7766139.03246  22222553.047    22222561.097
       229.000         186.000
  24469166.938     9147986.85549   7110630.98345  24469167.268    24469178.001
       206.000         142.000
  22516508.055    -5881556.16749  -4564742.28946  22516508.216    22516515.619
       222.000         169.000
  21684724.455    -5460792.64149  -4242342.42947  21684724.028    21684731.443
       236.000         199.000
  22603609.421     6781088.47149   5156495.78546  22603609.827    22603617.673
       228.000         179.000
  22539368.674     7043783.79349   5480846.04046  22539368.110    22539375.870
       227.000         178.000
 01  2  9  2 29 30.0000000  0  8G22G 6G23G 5G26G17G30G10
  24236300.946    -7237857.03349  -5627183.10345  24236299.969    24236310.639
       205.000         141.000
  20260274.071    -3673083.89349  -2724338.67948  20260274.014    20260280.117
       243.000         214.000
  22207463.753   -10083034.92849  -7827928.98446  22207463.143    22207471.372
       229.000         186.000
  24488962.505     9252013.18249   7191690.39345  24488961.635    24488973.387
       205.000         142.000
  22504141.857    -5946540.76149  -4615379.54246  22504141.717    22504149.286
       222.000         169.000
  21677506.094    -5498725.07449  -4271900.09847  21677505.745    21677512.770
       236.000         199.000
  22621451.011     6874846.59149   5229554.05646  22621451.315    22621458.398
       228.000         178.000
  22556611.867     7134397.41449   5551454.05746  22556611.093    22556619.056
       227.000         178.000
 01  2  9  2 30  0.0000000  0  8G22G 6G23G 5G26G17G30G10
  24225021.667    -7297129.64149  -5673369.40845  24225020.817    24225030.553
       204.000         141.000
  20258470.223    -3682563.09949  -2731725.04548  20258470.193    20258476.467
       243.000         214.000
  22192438.806   -10161991.11049  -7889453.15746  22192438.145    22192446.252
       230.000         187.000
  24508746.574     9355978.93349   7272702.62845  24508746.678    24508756.814
       202.000         141.000
  22491847.822    -6011145.91549  -4665721.13246  22491848.217    22491855.141
       222.000         169.000
  21670318.738    -5536494.60049  -4301330.83147  21670318.551    21670325.502
       237.000         199.000
  22639332.331     6968813.58749   5302775.08046  22639332.796    22639340.739
       228.000         178.000
  22573902.320     7225259.32249   5622255.54746  22573901.263    22573908.422
       227.000         177.000
 01  2  9  2 30 30.0000000  0  7G22G 6G23G26G17G30G10
  24213827.924    -7355952.65949  -5719205.39245  24213827.256    24213837.314
       209.000         142.000
  20256747.990    -3691613.40849  -2738777.20248  20256747.975    20256754.067
       243.000         214.000
  22177480.404   -10240597.74149  -7950704.95446  22177479.640    22177487.834
       230.000         187.000
  22479627.927    -6075361.55949  -4715759.20646  22479628.077    22479635.136
       222.000         169.000
  21663163.635    -5574094.66049  -4330629.51247  21663163.284    21663170.142
       237.000         200.000
  22657254.136     7062993.26949   5376161.84046  22657254.299    22657262.305
       227.000         177.000
  22591240.846     7316373.85549   5693253.88446  22591240.060    22591248.407
       227.000         177.000
 01  2  9  2 31  0.0000000  0  7G22G 6G23G26G17G30G10
  24202718.517    -7414332.78549  -5764696.25245  24202717.847    24202727.023
       209.000         143.000
  20255105.936    -3700242.26049  -2745500.95548  20255105.922    20255112.056
       243.000         214.000
  22162587.111   -10318861.99049  -8011689.95746  22162586.611    22162594.331
       230.000         187.000
  22467480.992    -6139193.57849  -4765498.35446  22467480.697    22467488.294
       222.000         170.000
  21656038.990    -5611534.55949  -4359803.39747  21656038.357    21656045.857
       237.000         200.000
  22675214.173     7157373.87349   5449705.15746  22675214.296    22675222.690
       228.000         177.000
  22608625.219     7407729.40649   5764440.02746  22608624.875    22608631.850
       227.000         176.000
 01  2  9  2 31 30.0000000  0  7G22G 6G23G26G17G30G10
  24191693.971    -7472266.66349  -5809839.38845  24191693.069    24191702.642
       209.000         142.000
  20253544.756    -3708446.36049  -2751893.73048  20253544.753    20253550.786
       243.000         214.000
  22147759.565   -10396780.77649  -8072405.77347  22147758.846    22147766.799
       231.000         188.000
  22455408.031    -6202637.05449  -4814934.73046  22455408.444    22455415.581
       223.000         170.000
  21648945.140    -5648812.70249  -4388851.23847  21648944.697    21648951.648
       237.000         200.000
  22693212.204     7251954.04049   5523403.98746  22693212.546    22693220.320
       227.000         177.000
  22626055.246     7499324.88549   5835813.12646  22626054.808    22626062.589
       226.000         176.000
 01  2  9  2 32  0.0000000  0  7G22G 6G23G26G17G30G10
  24180754.570    -7529752.94649  -5854633.74445  24180753.583    24180763.758
       209.000         143.000
  20252064.607    -3716224.49749  -2757954.58748  20252064.468    20252070.729
       243.000         214.000
  22132998.057   -10474352.65049  -8132851.27147  22132997.245    22133005.608
       231.000         188.000
  22443409.691    -6265688.85949  -4864065.90946  22443409.551    22443416.577
       222.000         171.000
  21641882.043    -5685929.41549  -4417773.28847  21641881.737    21641888.817
       237.000         200.000
  22711247.580     7346730.48449   5597255.75146  22711248.240    22711255.531
       227.000         177.000
  22643530.419     7591157.51649   5907371.01946  22643529.441    22643537.115
       226.000         176.000
 01  2  9  2 32 30.0000000  0  7G22G 6G23G26G17G30G10
  24169900.850    -7586789.31649  -5899077.52345  24169900.736    24169909.544
       210.000         144.000
  20250665.911    -3723574.48349  -2763681.82348  20250665.996    20250671.964
       243.000         214.000
  22118302.986   -10551575.11049  -8193024.49547  22118302.318    22118310.301
       230.000         188.000
  22431486.519    -6328344.87849  -4912888.69546  22431486.175    22431493.704
       222.000         171.000
  21634849.758    -5722884.01449  -4446569.02047  21634849.146    21634856.346
       237.000         200.000
  22729319.869     7441701.12249   5671258.83846  22729321.018    22729328.228
       226.000         176.000
  22661050.414     7683225.56049   5979112.34746  22661049.702    22661057.727
       226.000         175.000
 01  2  9  2 33  0.0000000  0  7G22G 6G23G26G17G30G10
  24159132.915    -7643374.70549  -5943169.88845  24159132.161    24159141.323
       211.000         143.000
  20249348.782    -3730495.92049  -2769075.12648  20249348.857    20249354.957
       243.000         214.000
  22103674.559   -10628447.65549  -8252925.06747  22103674.065    22103682.001
       231.000         189.000
  22419639.118    -6390602.91549  -4961401.36646  22419639.007    22419646.006
       222.000         171.000
  21627848.053    -5759677.92949  -4475239.53947  21627847.583    21627854.925
       237.000         200.000
  22747428.469     7536862.33649   5745410.42646  22747428.483    22747436.938
       226.000         176.000
  22678614.453     7775525.26849   6051034.19946  22678613.403    22678620.969
       226.000         175.000
 01  2  9  2 33 30.0000000  0  7G22G 6G23G26G17G30G10
  24148451.485    -7699505.74049  -5986908.21345  24148450.765    24148460.295
       212.000         144.000
  20248113.835    -3736985.69249  -2774132.06148  20248113.892    20248119.849
       243.000         214.000
  22089113.303   -10704967.07749  -8312550.47447  22089112.875    22089120.507
       231.000         189.000
  22407868.324    -6452458.24349  -5009600.22546  22407868.226    22407876.075
       222.000         171.000
  21620877.211    -5796309.78149  -4503783.78247  21620876.838    21620883.888
       237.000         200.000
  22765573.040     7632212.67649   5819709.38446  22765573.631    22765581.318
       226.000         175.000
  22696222.464     7868055.84449   6123135.93646  22696221.593    22696228.938
       225.000         175.000
 01  2  9  2 34  0.0000000  0  7G22G 6G23G26G17G30G10
  24137856.606    -7755181.69549  -6030291.92845  24137855.560    24137864.268
       212.000         143.000
  20246961.013    -3743043.60349  -2778852.48548  20246960.951    20246967.036
       244.000         214.000
  22074619.318   -10781133.05949  -8371900.47347  22074618.989    22074626.344
       231.000         189.000
  22396174.581    -6513908.79349  -5057483.67746  22396174.551    22396181.858
       223.000         172.000
  21613936.961    -5832780.83749  -4532202.72747  21613936.493    21613943.899
       238.000         200.000
  22783752.812     7727748.00349   5894152.49246  22783753.346    22783760.880
       226.000         175.000
  22713873.689     7960813.66149   6195414.75846  22713872.923    22713880.229
       226.000         174.000
 01  2  9  2 34 30.0000000  0  7G22G 6G23G26G17G30G10
  24127348.605    -7810401.08149  -6073319.88245  24127347.985    24127357.483
       213.000         143.000
  20245890.721    -3748668.05249  -2783235.15148  20245890.662    20245896.771
       243.000         214.000
  22060192.889   -10856943.88149  -8430973.73147  22060192.556    22060200.073
       231.000         190.000
  22384558.570    -6574951.12149  -5105049.03646  22384558.283    22384565.603
       223.000         172.000
  21607027.315    -5869091.08149  -4560496.37447  21607026.937    21607034.078
       237.000         200.000
  22801967.294     7823465.67749   5968737.68746  22801967.566    22801975.593
       226.000         175.000
  22731567.664     8053796.24049   6267868.71146  22731566.884    22731573.664
       226.000         174.000
 01  2  9  2 35  0.0000000  0  7G22G 6G23G26G17G30G10
  24116927.606    -7865163.13949  -6115991.48145  24116926.599    24116935.672
       213.000         144.000
  20244903.019    -3753858.37549  -2787279.53648  20244903.055    20244909.207
       243.000         214.000
  22045834.229   -10932398.69549  -8489769.58047  22045833.817    22045841.698
       232.000         190.000
  22373020.673    -6635582.85249  -5152294.44846  22373021.010    22373028.181
       223.000         172.000
  21600148.074    -5905241.46049  -4588665.44847  21600147.719    21600154.584
       237.000         200.000
  22820215.813     7919362.16849   6043462.20446  22820216.143    22820223.881
       226.000         174.000
  22749303.817     8147000.39449   6340495.31746  22749302.695    22749311.069
       225.000         173.000
 01  2  9  2 35 30.0000000  0  7G22G 6G23G26G17G30G10
  24106594.215    -7919464.87849  -6158304.38645  24106593.563    24106602.112
       212.000         144.000
  20243998.393    -3758612.10449  -2790983.71148  20243998.222    20244004.368
       243.000         214.000
  22031543.777   -11007495.11149  -8548286.16047  22031543.670    22031551.111
       231.000         190.000
  22361561.646    -6695800.02449  -5199216.83246  22361561.683    22361569.203
       223.000         173.000
  21593299.414    -5941231.19549  -4616709.34647  21593299.140    21593306.096
       237.000         200.000
  22838497.877     8015435.14849   6118324.26346  22838498.057    22838506.366
       225.000         174.000
  22767081.839     8240424.33249   6413293.18646  22767080.748    22767088.675
       224.000         173.000
 01  2  9  2 36  0.0000000  0  7G22G 6G23G26G17G30G10
  24096348.691    -7973304.94049  -6200257.55245  24096348.545    24096356.679
       214.000         144.000
  20243176.987    -3762928.43449  -2794347.06648  20243177.000    20243183.030
       243.000         214.000
  22017321.693   -11082232.20549  -8606522.74847  22017321.276    22017328.958
       232.000         190.000
  22350182.066    -6755599.93549  -5245814.08046  22350182.341    22350189.173
       223.000         173.000
  21586481.156    -5977061.01049  -4644628.63847  21586480.690    21586487.917
       237.000         200.000
  22856812.905     8111681.20149   6193321.17646  22856813.547    22856821.004
       223.000         174.000
  22784901.040     8334064.89749   6486259.85846  22784900.891    22784907.378
       225.000         172.000
 01  2  9  2 36 30.0000000  0  7G22G 6G23G26G17G30G10
  24086191.219    -8026682.35549  -6241850.21645  24086190.737    24086199.804
       214.000         143.000
  20242439.022    -3766806.36749  -2797368.81248  20242439.001    20242445.210
       243.000         214.000
  22003168.205   -11156608.77349  -8664478.41347  22003167.894    22003175.501
       232.000         191.000
  22338882.461    -6814979.71649  -5292083.95146  22338882.324    22338889.602
       224.000         173.000
  21579693.247    -6012731.46249  -4672423.75147  21579693.029    21579700.011
       237.000         201.000
  22875160.210     8208097.04349   6268450.39346  22875160.816    22875168.703
       223.000         173.000
  22802760.908     8427919.10349   6559393.00146  22802760.098    22802767.854
       224.000         172.000
 01  2  9  2 37  0.0000000  0  7G22G 6G23G26G17G30G10
  24076122.097    -8079595.47649  -6283081.09845  24076121.788    24076130.192
       214.000         144.000
  20241784.845    -3770244.03649  -2800047.49448  20241784.884    20241790.997
       244.000         214.000
  21989083.711   -11230622.96649  -8722151.70747  21989083.344    21989091.080
       232.000         191.000
  22327663.401    -6873936.03749  -5338023.85546  22327664.420    22327670.842
       223.000         174.000
  21572935.747    -6048242.31149  -4700094.49747  21572935.438    21572942.199
       237.000         201.000
  22893539.430     8304680.40949   6343710.15446  22893540.162    22893548.489
       223.000         173.000
  22820660.979     8521984.68649   6632690.84646  22820660.256    22820666.978
       224.000         171.000
 01  2  9  2 37 30.0000000  0  7G22G 6G23G26G17G30G10
  24066141.535    -8132043.19749  -6323949.33445  24066141.307    24066149.793
       214.000         144.000
  20241214.553    -3773240.79749  -2802382.60548  20241214.619    20241220.630
       243.000         214.000
  21975068.337   -11304273.87949  -8779541.92547  21975067.687    21975075.405
       233.000         192.000
  22316525.347    -6932466.34549  -5383631.80946  22316525.391    22316531.889
       224.000         174.000
  21566208.455    -6083594.25249  -4727641.41547  21566208.095    21566214.983
       237.000         201.000
  22911949.792     8401427.54949   6419097.52746  22911950.327    22911957.851
       223.000         172.000
  22838600.791     8616259.05949   6706151.39546  22838600.226    22838608.094
       224.000         170.000
 01  2  9  2 38  0.0000000  0  7G22G 6G23G26G17G30G10
  24056249.973    -8184023.24149  -6364453.15845  24056249.355    24056258.025
       213.000         144.000
  20240728.500    -3775794.95549  -2804372.82948  20240728.355    20240734.639
       243.000         214.000
  21961122.386   -11377559.86249  -8836647.78647  21961121.972    21961129.871
       233.000         192.000
  22305469.038    -6990567.22049  -5428905.13646  22305469.465    22305476.044
       225.000         174.000
  21559511.377    -6118787.43549  -4755064.63247  21559511.031    21559517.910
       237.000         201.000
  22930390.881     8498335.98349   6494610.58446  22930391.850    22930398.844
       223.000         172.000
  22856579.902     8710739.80749   6779772.75046  22856579.170    22856587.194
       222.000         170.000
 01  2  9  2 38 30.0000000  0  7G22G 6G23G26G17G30G10
  24046447.739    -8235533.83049  -6404591.18545  24046447.611    24046455.367
       213.000         144.000
  20240326.935    -3777905.23549  -2806017.17948  20240326.993    20240332.943
       243.000         214.000
  21947246.205   -11450479.29349  -8893468.02347  21947245.418    21947253.140
       233.000         192.000
  22294495.123    -7048235.47649  -5473841.36246  22294495.382    22294502.543
       225.000         174.000
  21552844.505    -6153821.97449  -4782364.23147  21552844.156    21552851.164
       237.000         201.000
  22948862.129     8595402.90649   6570247.13846  22948862.603    22948869.682
       224.000         172.000
  22874597.764     8805424.22549   6853552.81646  22874597.116    22874604.614
       223.000         169.000
 01  2  9  2 39  0.0000000  0  7G22G 6G23G26G17G30G10
  24036734.865    -8286574.80949  -6444363.27745  24036733.496    24036743.820
       213.000         144.000
  20240009.853    -3779571.32849  -2807315.40748  20240009.723    20240015.817
       243.000         214.000
  21933439.883   -11523031.64849  -8950002.22847  21933439.286    21933447.091
       233.000         193.000
  22283603.888    -7105468.99049  -5518438.82846  22283603.682    22283610.365
       224.000         175.000
  21546207.667    -6188698.73549  -4809540.88847  21546207.261    21546214.140
       238.000         201.000
  22967362.687     8692623.94649   6646003.79146  22967363.575    22967370.994
       224.000         172.000
  22892653.730     8900308.98549   6927488.99446  22892653.166    22892660.578
       222.000         169.000
 01  2  9  2 39 30.0000000  0  7G22G 6G23G26G17G30G10
  24027111.839    -8337143.51049  -6483767.38145  24027111.357    24027120.236
       213.000         144.000
  20239777.852    -3780790.50749  -2808265.39048  20239777.863    20239783.787
       243.000         214.000
  21919703.955   -11595214.12149  -9006248.22347  21919703.485    21919711.299
       233.000         193.000
  22272796.189    -7162263.27249  -5562694.03546  22272796.314    22272803.403
       225.000         175.000
  21539601.008    -6223416.67749  -4836593.78747  21539600.705    21539607.534
       238.000         201.000
  22985892.406     8789998.23249   6721879.84646  22985893.057    22985900.564
       223.000         171.000
  22910747.612     8995393.05749   7001580.46846  22910747.080    22910755.170
       221.000         168.000
 01  2  9  2 40  0.0000000  0  7G22G 6G23G26G17G30G10
  24017578.704    -8387240.00349  -6522803.53545  24017578.167    24017587.042
       212.000         145.000
  20239630.737    -3781563.45249  -2808867.66248  20239630.695    20239636.872
       243.000         214.000
  21906038.275   -11667027.31849  -9062206.46647  21906037.266    21906045.602
       233.000         193.000
  22262072.376    -7218617.29049  -5606606.18446  22262072.408    22262079.072
       224.000         175.000
  21533024.220    -6257977.90649  -4863524.57247  21533023.798    21533030.831
       238.000         201.000
  23004450.324     8887520.59049   6797871.28746  23004451.170    23004457.829
       223.000         171.000
  22928878.549     9090671.68149   7075823.54646  22928877.868    22928885.603
       221.000         168.000
 01  2  9  2 40 30.0000000  0  7G22G 6G23G26G17G30G10
  24008135.933    -8436861.69449  -6561469.71245  24008135.364    24008143.670
       213.000         144.000
  20239568.939    -3781888.24549  -2809120.72748  20239568.848    20239574.973
       243.000         214.000
  21892443.295   -11738469.09249  -9117875.29147  21892443.087    21892450.256
       233.000         194.000
  22251432.978    -7274527.23449  -5650172.30046  22251433.373    22251440.580
       225.000         175.000
  21526477.342    -6292381.75749  -4890332.72547  21526476.900    21526483.624
       238.000         201.000
  23023036.039     8985189.03449   6873976.56346  23023035.634    23023043.992
       223.000         171.000
  22947046.182     9186143.26149   7150216.98846  22947045.381    22947052.280
       221.000         168.000
 01  2  9  2 41  0.0000000  0  7G22G 6G23G26G17G30G10
  23998783.740    -8486007.48949  -6599765.08045  23998783.488    23998793.093
       212.000         145.000
  20239592.571    -3781763.87549  -2809023.79848  20239592.592    20239598.511
       243.000         214.000
  21878919.175   -11809538.44349  -9173253.91747  21878918.820    21878926.316
       234.000         194.000
  22240878.604    -7329990.46949  -5693390.33246  22240879.150    22240886.402
       225.000         176.000
  21519960.358    -6326628.63849  -4917018.56347  21519959.982    21519966.939
       238.000         201.000
  23041648.935     9083000.41649   6950193.21946  23041649.238    23041656.458
       223.000         170.000
  22965250.034     9281805.28949   7224758.82446  22965248.899    22965256.342
       220.000         168.000
 01  2  9  2 41 30.0000000  0  7G22G 6G23G26G17G30G10
  23989522.189    -8534676.82649  -6637689.18245  23989521.250    23989530.125
       212.000         146.000
  20239701.931    -3781189.15949  -2808575.94848  20239701.836    20239707.770
       243.000         214.000
  21865466.169   -11880234.19449  -9228341.43047  21865465.573    21865473.251
       234.000         194.000
  22230409.750    -7385004.25949  -5736258.15646  22230409.947    22230416.654
       225.000         176.000
  21513473.188    -6360718.79449  -4943582.27747  21513472.713    21513479.587
       238.000         202.000
  23060288.401     9180951.44049   7026518.69146  23060289.524    23060297.136
       223.000         170.000
  22983489.571     9377654.75349   7299446.70746  22983488.782    22983495.899
       220.000         167.000
 01  2  9  2 42  0.0000000  0  7G22G 6G23G26G17G30G10
  23980351.589    -8582868.37549  -6675240.98645  23980351.198    23980359.977
       211.000         145.000
  20239897.189    -3780162.98549  -2807776.31048  20239897.121    20239903.358
       243.000         214.000
  21852084.460   -11950555.18249  -9283136.92147  21852083.827    21852091.333
       234.000         195.000
  22220026.993    -7439565.73249  -5778773.52246  22220026.816    22220034.163
       225.000         176.000
  21507015.739    -6394652.68649  -4970024.22847  21507015.213    21507022.166
       238.000         202.000
  23078953.872     9279039.30549   7102950.79546  23078954.572    23078961.105
       223.000         170.000
  23001764.288     9473688.86749   7374278.48946  23001763.141    23001771.547
       221.000         167.000
 01  2  9  2 42 30.0000000  0  7G22G 6G23G26G17G30G10
  23971272.626    -8630578.39049  -6712417.57645  23971270.934    23971280.781
       212.000         145.000
  20240178.871    -3778682.51849  -2806622.68448  20240178.896    20240184.877
       243.000         214.000
  21838774.619   -12020498.41749  -9337638.06347  21838773.941    21838781.393
       235.000         195.000
  22209731.239    -7493670.10449  -5820932.71046  22209731.343    22209738.011
       225.000         176.000
  21500588.341    -6428428.67449  -4996343.13547  21500588.083    21500594.694
       238.000         202.000
  23097645.153     9377262.57749   7179488.40046  23097645.163    23097653.929
       222.000         170.000
  23020073.962     9569906.78549   7449253.47846  23020073.655    23020081.345
       221.000         167.000
 01  2  9  2 43  0.0000000  0  7G22G 6G23G26G17G30G10
  23962285.012    -8677808.36649  -6749220.12545  23962284.206    23962293.311
       212.000         145.000
  20240546.713    -3776749.45549  -2805116.37848  20240546.651    20240552.683
       243.000         214.000
  21825536.348   -12090065.65249  -9391846.21647  21825535.406    21825543.425
       234.000         195.000
  22199522.417    -7547317.48849  -5862735.79946  22199522.480    22199529.248
       226.000         176.000
  21494190.405    -6462049.99249  -5022541.52147  21494189.762    21494197.051
       238.000         202.000
  23116361.084     9475615.44649   7256127.00246  23116360.667    23116369.568
       222.000         169.000
  23038417.622     9666303.37849   7524367.70746  23038416.876    23038425.279
       220.000         167.000
 01  2  9  2 43 30.0000000  0  7G22G 6G23G26G17G30G10
  23953389.147    -8724556.17349  -6785646.94845  23953389.304    23953397.371
       211.000         146.000
  20241001.049    -3774361.81249  -2803255.86148  20241001.107    20241007.021
       243.000         213.000
  21812370.073   -12159254.50949  -9445759.53247  21812369.811    21812377.082
       234.000         195.000
  22189401.387    -7600503.85749  -5904179.67146  22189401.307    22189408.407
       226.000         177.000
  21487822.078    -6495515.68749  -5048618.64447  21487821.571    21487828.639
       238.000         202.000
  23135101.346     9574096.12049   7332865.18746  23135101.712    23135109.071
       221.000         169.000
  23056795.036     9762877.26549   7599620.08446  23056794.543    23056801.970
       219.000         167.000
 01  2  9  2 44  0.0000000  0  7G22G 6G23G26G17G30G10
  23944585.270    -8770820.76449  -6821697.24845  23944584.879    23944594.123
       210.000         146.000
  20241542.214    -3771518.06249  -2801039.93448  20241542.262    20241548.018
       243.000         213.000
  21799276.062   -12228063.70349  -9499377.00747  21799275.476    21799282.660
       235.000         196.000
  22179368.617    -7653226.21149  -5945261.95646  22179368.513    22179375.979
       226.000         177.000
  21481483.368    -6528825.64849  -5074574.41547  21481482.789    21481489.805
       239.000         202.000
  23153865.359     9672701.71349   7409700.71346  23153866.112    23153873.574
       221.000         169.000
  23075205.790     9859626.28849   7675008.92446  23075204.348    23075212.990
       220.000         167.000
 01  2  9  2 44 30.0000000  0  7G22G 6G23G26G17G30G10
  23935873.606    -8816600.50849  -6857369.72745  23935872.880    23935881.718
       210.000         146.000
  20242170.324    -3768217.10049  -2798467.73848  20242170.387    20242176.258
       243.000         213.000
  21786254.589   -12296491.78049  -9552697.51447  21786254.380    21786261.310
       236.000         196.000
  22169424.695    -7705481.68049  -5985980.44346  22169424.487    22169431.636
       225.000         177.000
  21475174.212    -6561980.18249  -5100409.06847  21475173.837    21475180.793
       239.000         202.000
  23172652.635     9771429.34149   7486631.32746  23172653.296    23172660.438
       222.000         169.000
  23093649.291     9956547.53349   7750531.96446  23093648.660    23093655.756
       221.000         167.000
 01  2  9  2 45  0.0000000  0  7G22G 6G23G26G17G30G10
  23927254.463    -8861894.23549  -6892663.49945  23927253.337    23927263.160
       212.000         147.000
  20242885.589    -3764458.33749  -2795538.82048  20242885.602    20242891.406
       243.000         213.000
  21773305.790   -12364537.84949  -9605720.35147  21773305.085    21773312.912
       235.000         196.000
  22159570.066    -7757267.74749  -6026333.15946  22159570.489    22159577.331
       226.000         177.000
  21468894.512    -6594980.02049  -5126123.18547  21468894.144    21468901.163
       238.000         202.000
  23191462.481     9870275.81849   7563654.56146  23191462.964    23191470.548
       222.000         169.000
  23112124.978    10053637.95549   7826186.84146  23112124.719    23112131.894
       220.000         167.000
 01  2  9  2 45 30.0000000  0  7G22G 6G23G26G17G30G10
  23918728.201    -8906699.87249  -6927576.93645  23918727.689    23918737.047
       210.000         147.000
  20243688.326    -3760239.89049  -2792251.70348  20243688.386    20243694.269
       243.000         213.000
  21760430.043   -12432200.10649  -9658444.12247  21760429.568    21760437.039
       236.000         197.000
  22149805.408    -7808581.03649  -6066317.47946  22149805.589    22149812.424
       226.000         178.000
  21462644.420    -6627824.40949  -5151716.17447  21462644.191    21462651.231
       238.000         202.000
  23210294.450     9969238.57549   7640768.38346  23210295.027    23210302.796
       221.000         168.000
  23130632.509    10150895.67449   7901972.07046  23130631.777    23130638.933
       221.000         167.000
 01  2  9  2 46  0.0000000  0  7G22G 6G23G26G17G30G10
  23910294.754    -8951017.64449  -6962110.20545  23910293.958    23910303.520
       210.000         148.000
  20244578.535    -3755561.76849  -2788606.40048  20244578.500    20244584.507
       243.000         213.000
  21747627.349   -12499478.44649  -9710868.73047  21747626.751    21747634.289
       236.000         197.000
  22140131.154    -7859419.63149  -6105931.90346  22140131.256    22140137.241
       225.000         178.000
  21456423.667    -6660514.43649  -5177188.87447  21456423.167    21456430.075
       238.000         202.000
  23229147.869    10068313.93849   7717969.97246  23229148.105    23229155.714
       221.000         168.000
  23149171.338    10248317.74449   7977885.37546  23149170.823    23149177.672
       220.000         167.000
 01  2  9  2 46 30.0000000  0  7G22G 6G23G26G17G30G10
  23901954.483    -8994845.93349  -6996262.06845  23901953.552    23901963.094
       209.000         147.000
  20245556.527    -3750422.27349  -2784601.59148  20245556.423    20245562.489
       243.000         213.000
  21734898.036   -12566371.08149  -9762992.79047  21734897.534    21734904.928
       236.000         197.000
  22130547.838    -7909780.17349  -6145173.82046  22130547.581    22130554.956
       225.000         178.000
  21450232.361    -6693049.75149  -5202541.02747  21450231.913    21450238.965
       238.000         202.000
  23248022.262    10167499.62349   7795257.52346  23248023.009    23248030.732
       220.000         168.000
  23167741.054    10345902.23649   8053925.23646  23167740.807    23167747.744
       220.000         167.000
 01  2  9  2 47  0.0000000  0  7G22G 6G23G26G17G30G10
  23893707.529    -9038183.63349  -7030031.61945  23893706.291    23893715.152
       209.000         147.000
  20246622.409    -3744821.02049  -2780236.96348  20246622.335    20246628.467
       243.000         213.000
  21722242.231   -12632877.52349  -9814815.92347  21722241.525    21722248.857
       236.000         197.000
  22121055.832    -7959660.47249  -6184041.52246  22121056.122    22121062.811
       226.000         178.000
  21444070.352    -6725431.13249  -5227773.22747  21444069.829    21444076.880
       238.000         203.000
  23266916.975    10266791.97549   7872628.17846  23266917.728    23266925.173
       221.000         167.000
  23186341.038    10443645.62249   8130088.91646  23186340.441    23186348.311
       220.000         167.000
 01  2  9  2 47 30.0000000  0  7G22G 6G23G26G17G30G10
  23885554.217    -9081029.42449  -7063417.86345  23885553.226    23885560.977
       209.000         147.000
  20247776.335    -3738757.02149  -2775511.75048  20247776.416    20247782.410
       243.000         213.000
  21709660.108   -12698996.71149  -9866337.30147  21709659.715    21709666.701
       236.000         198.000
  22111655.734    -8009057.87849  -6222532.93946  22111655.589    22111663.012
       226.000         179.000
  21437937.602    -6757658.86249  -5252885.70147  21437937.215    21437943.976
       239.000         203.000
  23285831.506    10366188.41349   7950079.94346  23285832.504    23285839.250
       221.000         167.000
  23204970.858    10541545.94749   8206374.88846  23204970.143    23204977.621
       220.000         167.000
 01  2  9  2 48  0.0000000  0  7G22G 6G23G26G17G30G10
  23877494.691    -9123382.10449  -7096419.85245  23877493.635    23877503.020
       208.000         147.000
  20249018.561    -3732229.11649  -2770425.05248  20249018.696    20249024.416
       243.000         213.000
  21697151.975   -12764727.20049  -9917555.79547  21697151.445    21697158.662
       236.000         198.000
  22102348.152    -8057969.46449  -6260645.79546  22102348.203    22102354.500
       226.000         179.000
  21431834.041    -6789733.11249  -5277878.58247  21431833.680    21431840.339
       238.000         203.000
  23304765.227    10465685.72449   8027610.32046  23304766.046    23304773.132
       220.000         167.000
  23223630.107    10639600.94949   8282781.38746  23223629.586    23223637.185
       219.000         167.000
 01  2  9  2 48 30.0000000  0  7G22G 6G23G26G17G30G10
  23869529.011    -9165241.44449  -7129037.41745  23869528.329    23869537.011
       209.000         148.000
  20250349.118    -3725236.84449  -2764976.51748  20250349.055    20250355.124
       243.000         213.000
  21684717.921   -12830068.36149  -9968470.91847  21684717.522    21684724.532
       236.000         198.000
  22093133.480    -8106392.83949  -6298378.23246  22093133.512    22093140.249
       225.000         179.000
  21425759.616    -6821654.22649  -5302752.13547  21425759.106    21425766.114
       238.000         203.000
  23323717.595    10565280.96049   8105217.00146  23323718.146    23323725.428
       220.000         166.000
  23242318.176    10737807.46549   8359305.94646  23242316.699    23242324.652
       220.000         166.000
 01  2  9  2 49  0.0000000  0  7G22G 6G23G26G17G30G10
  23861657.668    -9206605.25349  -7161268.84445  23861657.188    23861665.426
       208.000         148.000
  20251768.468    -3717778.19549  -2759164.57048  20251768.572    20251774.495
       243.000         213.000
  21672358.337   -12895018.12949 -10019081.06247  21672357.919    21672365.156
       236.000         198.000
  22084012.302    -8154324.35549  -6335727.40446  22084012.656    22084018.804
       225.000         179.000
  21419714.520    -6853421.25749  -5327505.62547  21419714.180    21419721.149
       238.000         203.000
  23342688.102    10664971.80249   8182898.17746  23342688.683    23342695.842
       220.000         165.000
  23261034.780    10836163.85849   8435947.29546  23261033.462    23261042.111
       220.000         166.000
 01  2  9  2 49 30.0000000  0  7G22G 6G23G26G17G30G10
  23853880.551    -9247473.80749  -7193114.35745  23853879.553    23853888.596
       207.000         148.000
  20253276.382    -3709853.93649  -2752989.80948  20253276.438    20253282.499
       243.000         213.000
  21660073.111   -12959577.23349 -10069386.79247  21660072.664    21660079.937
       236.000         199.000
  22074984.916    -8201763.27649  -6372692.72446  22074985.426    22074991.381
       226.000         179.000
  21413698.337    -6885036.35949  -5352140.73347  21413698.035    21413704.715
       238.000         203.000
  23361675.954    10764753.67049   8260650.27346  23361676.548    23361684.058
       218.000         165.000
  23279779.138    10934666.09049   8512702.29146  23279778.705    23279786.349
       220.000         165.000
 01  2  9  2 50  0.0000000  0  7G22G 6G23G26G17G30G10
  23846198.097    -9287844.95749  -7224572.27145  23846197.221    23846206.194
       207.000         149.000
  20254873.289    -3701462.13149  -2746450.72848  20254873.283    20254879.193
       243.000         213.000
  21647862.587   -13023743.65749 -10119386.53847  21647861.817    21647869.287
       237.000         199.000
  22066052.050    -8248705.83049  -6409271.27346  22066052.090    22066058.857
       227.000         179.000
  21407711.268    -6916498.50849  -5376656.65247  21407710.670    21407717.475
       240.000         203.000
  23380680.826    10864624.85349   8338471.97346  23380681.261    23380688.656
       218.000         164.000
  23298550.969    11033312.65249   8589569.74846  23298550.209    23298557.545
       219.000         165.000
 01  2  9  2 50 30.0000000  0  7G22G 6G23G26G17G30G10
  23838610.436    -9327718.23149  -7255642.23345  23838608.815    23838618.984
       207.000         149.000
  20256559.258    -3692602.17249  -2739546.85948  20256559.166    20256565.077
       243.000         213.000
  21635726.935   -13087516.67149 -10169079.73247  21635726.578    21635733.439
       237.000         199.000
  22057213.964    -8295149.78049  -6445461.29846  22057214.568    22057220.823
       226.000         180.000
  21401753.242    -6947808.09849  -5401053.69547  21401753.015    21401759.437
       240.000         203.000
  23399702.014    10964581.86949   8416360.55846  23399702.853    23399709.630
       218.000         164.000
  23317349.708    11132100.89449   8666547.60846  23317349.835    23317356.681
       220.000         164.000
 01  2  9  2 51  0.0000000  0  7G22G 6G23G26G17G30G10
  23831117.665    -9367092.47849  -7286323.33145  23831117.001    23831125.667
       209.000         149.000
  20258334.614    -3683272.51249  -2732276.98748  20258334.717    20258340.648
       243.000         213.000
  21623666.446   -13150894.80449 -10218465.22747  21623665.958    21623673.016
       237.000         200.000
  22048471.410    -8341092.00249  -6481260.36646  22048471.661    22048478.563
       226.000         180.000
  21395824.246    -6978964.89849  -5425331.68047  21395823.689    21395830.798
       239.000         203.000
  23418739.109    11064622.43849   8494314.24146  23418740.214    23418748.059
       218.000         163.000
  23336175.080    11231029.00049   8743634.45046  23336173.623    23336181.523
       218.000         163.000
 01  2  9  2 51 30.0000000  0  7G22G 6G23G26G17G30G10
  23823719.946    -9405967.16549  -7316615.16445  23823718.843    23823728.124
       207.000         149.000
  20260199.378    -3673473.05149  -2724641.03248  20260199.396    20260205.386
       243.000         213.000
  21611681.117   -13213877.79749 -10267542.81747  21611680.735    21611687.671
       237.000         200.000
  22039824.707    -8386530.54749  -6516666.95246  22039824.957    22039831.268
       226.000         180.000
  21389924.187    -7009969.79749  -5449491.30147  21389923.894    21389930.649
       240.000         203.000
  23437791.403    11164742.95549   8572330.23645  23437791.215    23437799.787
       217.000         162.000
  23355026.429    11330093.48349   8820827.54945  23355026.162    23355032.733
       217.000         162.000
 01  2  9  2 52  0.0000000  0  7G22G 6G23G26G17G30G10
  23816417.944    -9444339.03249  -7346515.19245  23816416.828    23816426.224
       208.000         149.000
  20262154.068    -3663201.09949  -2716636.90248  20262153.953    20262160.203
       243.000         213.000
  21599771.538   -13276462.84149 -10316310.32347  21599771.000    21599778.375
       237.000         200.000
  22031274.673    -8431461.08049  -6551677.69646  22031274.786    22031280.961
       227.000         180.000
  21384053.382    -7040821.07549  -5473531.22147  21384053.148    21384059.819
       240.000         203.000
  23456858.688    11264942.37549   8650407.69545  23456859.004    23456865.950
       218.000         162.000
  23373903.630    11429293.88649   8898126.57045  23373902.474    23373910.188
       216.000         161.000
 01  2  9  2 52 30.0000000  0  7G22G 6G23G26G17G30G10
  23809211.087    -9482210.59449  -7376025.37445  23809210.117    23809218.767
       209.000         149.000
  20264198.190    -3652459.17149  -2708266.56148  20264198.267    20264204.080
       243.000         213.000
  21587937.228   -13338652.28149 -10364769.56647  21587936.752    21587943.661
       237.000         200.000
  22022821.164    -8475884.41649  -6586293.21546  22022821.178    22022827.881
       226.000         180.000
  21378211.087    -7071522.29849  -5497454.21147  21378210.733    21378217.518
       240.000         203.000
  23475939.842    11365214.34449   8728541.68645  23475940.644    23475947.859
       216.000         161.000
  23392805.622    11528624.49449   8975527.04345  23392805.138    23392812.510
       215.000         160.000
 01  2  9  2 53  0.0000000  0  7G22G 6G23G26G17G30G10
  23802100.026    -9519579.01849  -7405143.48445  23802099.729    23802108.374
       208.000         150.000
  20266332.313    -3641244.25049  -2699527.65248  20266332.400    20266338.149
       243.000         213.000
  21576178.853   -13400442.78749 -10412917.95047  21576178.203    21576185.259
       238.000         201.000
  22014465.065    -8519795.72349  -6620509.75246  22014464.793    22014471.509
       227.000         180.000
  21372397.769    -7102071.31249  -5521258.59747  21372397.337    21372403.866
       240.000         203.000
  23495034.624    11465558.35149   8806731.83245  23495034.876    23495042.526
       216.000         160.000
  23411732.370    11628085.30549   9053028.97345  23411731.785    23411738.767
       215.000         159.000
 01  2  9  2 53 30.0000000  0  7G22G 6G23G26G17G30G10
  23795084.721    -9556444.21249  -7433869.48945  23795084.196    23795092.477
       207.000         150.000
  20268556.484    -3629556.03049  -2690419.93448  20268556.500    20268562.538
       243.000         213.000
  21564496.390   -13461834.17249 -10460755.33647  21564495.980    21564503.037
       238.000         201.000
  22006206.786    -8563192.94949  -6654325.70946  22006207.250    22006213.193
       227.000         181.000
  21366613.286    -7132468.77549  -5544944.89347  21366612.872    21366619.611
       240.000         204.000
  23514142.523    11565970.96549   8884975.41645  23514142.718    23514150.535
       217.000         159.000
  23430683.335    11727673.45549   9130630.12445  23430683.315    23430689.825
       215.000         158.000
 01  2  9  2 54  0.0000000  0  7G22G 6G23G26G17G30G10
                   -841500.06649   -646097.43343
       209.000          74.000
  20270872.153    -3617387.08049  -2680937.62048  20270872.187    20270878.059
       243.000         213.000
  21552891.359   -13522818.86749 -10508275.82247  21552890.984    21552897.988
       238.000         201.000
  21998048.048    -8606067.15449  -6687734.11746  21998048.518    21998054.656
       226.000         181.000
  21360858.928    -7162708.01249  -5568507.89647  21360858.505    21360865.242
       240.000         204.000
  23533264.112    11666455.66149   8963275.17945  23533263.751    23533272.189
       216.000         159.000
  23449659.299    11827392.79149   9208333.50045  23449658.589    23449666.795
       214.000         157.000
 01  2  9  2 54 30.0000000  0  7G22G 6G23G26G17G30G10
                   -877351.22349   -674032.83943
       209.000          74.000
  20273277.565    -3604746.52049  -2671087.81548  20273277.572    20273283.546
       243.000         213.000
  21541361.979   -13583405.85349 -10555486.40147  21541361.356    21541368.492
       238.000         201.000
  21989987.434    -8648425.61249  -6720740.64446  21989987.428    21989994.469
       226.000         181.000
  21355132.815    -7192798.78149  -5591955.20347  21355132.499    21355139.071
       240.000         204.000
  23552397.075    11767000.08249   9041621.47945  23552398.154    23552405.259
       216.000         159.000
  23468657.959    11927231.48249   9286129.87545  23468656.917    23468664.632
       214.000         156.000
 01  2  9  2 55  0.0000000  0  7G22G 6G23G26G17G30G10
                   -912697.99149   -701575.72245                  23774625.386
       209.000         143.000
  20275773.127    -3591632.36749  -2660868.98848  20275773.074    20275779.094
       243.000         213.000
  21529908.703   -13643593.07849 -10602385.48747  21529908.445    21529915.190
       238.000         201.000
  21982025.672    -8690264.72049  -6753342.48046  21982025.780    21982032.618
       226.000         181.000
  21349435.101    -7222740.34349  -5615286.25247  21349434.854    21349441.436
       240.000         204.000
  23571541.063    11867602.31549   9120012.83545  23571541.671    23571547.835
       215.000         158.000
  23487679.021    12027187.90549   9364017.99245  23487677.579    23487685.471
       213.000         155.000
 01  2  9  2 55 30.0000000  0  7G22G 6G23G26G17G30G10
  23767988.202     -947538.72949   -728724.24145  23767987.425    23767995.997
       210.000         150.000
  20278359.156    -3578042.61549  -2650279.55748  20278359.204    20278365.021
       243.000         213.000
  21518531.910   -13703378.37749 -10648971.38247  21518531.561    21518538.624
       238.000         202.000
  21974163.397    -8731580.92949  -6785536.87746  21974163.873    21974170.348
       226.000         181.000
  21343765.955    -7252531.65549  -5638500.22247  21343765.449    21343772.205
       239.000         204.000
  23590695.694    11968260.78749   9198447.99845  23590695.831    23590704.292
       216.000         157.000
  23506722.360    12127261.37449   9441997.31545  23506722.135    23506728.985
       215.000         154.000
 01  2  9  2 56  0.0000000  0  7G22G 6G23G26G17G30G10
  23761453.948     -981875.31649   -755479.91945  23761453.568    23761461.441
       211.000         152.000
  20281035.296    -3563979.33949  -2639321.14648  20281035.301    20281041.214
       243.000         213.000
  21507231.215   -13762763.66249 -10695245.57947  21507230.584    21507237.808
       238.000         202.000
  21966400.593    -8772374.49149  -6817324.00446  21966400.807    21966407.799
       227.000         181.000
  21338124.936    -7282175.27749  -5661599.11247  21338124.344    21338131.325
       240.000         204.000
  23609860.024    12068970.00849   9276922.71645  23609860.124    23609868.050
       215.000         157.000
  23525786.937    12227446.36949   9520063.54645  23525786.117    23525793.314
       214.000         154.000
 01  2  9  2 56 30.0000000  0  7G22G 6G23G26G17G30G10
  23755016.258    -1015704.76949   -781840.43745  23755015.645    23755023.791
       211.000         153.000
  20283802.013    -3549440.18649  -2627991.92148  20283802.026    20283807.951
       243.000         213.000
  21496007.105   -13821746.39649 -10741206.10347  21496006.684    21496013.855
       238.000         202.000
  21958737.989    -8812641.43749  -6848700.79346  21958738.262    21958744.665
       227.000         181.000
  21332512.277    -7311669.85349  -5684581.86347  21332511.989    21332518.541
       240.000         204.000
  23629033.755    12169728.62749   9355435.93445  23629034.220    23629042.311
       216.000         157.000
  23544872.687    12327742.59649   9598216.44845  23544871.475    23544879.486
       214.000         153.000
 01  2  9  2 57  0.0000000  0  7G22G 6G23G26G17G30G10
  23748675.565    -1049025.00749   -807804.16245  23748674.855    23748683.009
       210.000         153.000
  20286659.629    -3534423.22649  -2616290.37948  20286659.648    20286665.585
       244.000         213.000
  21484860.024   -13880324.54849 -10786851.37347  21484859.621    21484866.636
       239.000         202.000
  21951176.299    -8852378.09549  -6879664.36546  21951176.807    21951182.888
       228.000         181.000
  21326928.215    -7341014.19549  -5707447.55247  21326927.815    21326934.552
       240.000         204.000
  23648216.608    12270534.99949   9433986.34645  23648217.190    23648224.721
       216.000         157.000
  23563979.316    12428148.70449   9676454.96345  23563978.507    23563986.014
       214.000         153.000
 01  2  9  2 57 30.0000000  0  7G22G 6G23G26G17G30G10
  23742432.013    -1081834.83649   -833370.16945  23742431.017    23742439.669
       210.000         154.000
  20289608.456    -3518927.00249  -2604215.39348  20289608.466    20289614.297
       243.000         213.000
  21473790.236   -13938496.47949 -10832180.09947  21473789.815    21473796.652
       239.000         203.000
  21943716.177    -8891581.30349  -6910212.26946  21943715.872    21943722.910
       227.000         181.000
  21321372.828    -7370207.68249  -5730195.68747  21321372.421    21321379.077
       240.000         204.000
  23667408.147    12371387.18649   9512572.45745  23667408.194    23667416.198
       216.000         157.000
  23583106.645    12528663.38749   9754778.10145  23583106.075    23583113.252
       215.000         153.000
 01  2  9  2 58  0.0000000  0  7G22G 6G23G26G17G30G10
  23736285.762    -1114133.24649   -858537.68245  23736284.942    23736292.986
       212.000         154.000
  20292648.765    -3502949.97349  -2591765.75248  20292648.812    20292654.602
       243.000         213.000
  21462797.992   -13996260.89049 -10877191.28647  21462797.654    21462804.609
       238.000         203.000
  21936358.046    -8930248.18449  -6940342.24846  21936358.275    21936364.834
       227.000         181.000
  21315846.300    -7399249.72649  -5752825.81947  21315846.047    21315852.531
       240.000         204.000
  23686607.984    12472282.98649   9591192.56145  23686609.092    23686615.791
       216.000         157.000
  23602254.306    12629284.95649   9833184.52745  23602253.490    23602260.705
       215.000         153.000
 01  2  9  2 58 30.0000000  0  7G22G 6G23G26G17G30G10
  23730236.956    -1145919.64249   -883306.21845  23730236.419    23730245.228
       212.000         154.000
  20295780.594    -3486492.12649  -2578941.44248  20295780.563    20295786.493
       243.000         213.000
  21451883.331   -14053617.55149 -10921884.74647  21451883.080    21451889.836
       240.000         203.000
  21929102.337    -8968376.89549  -6970052.89146  21929102.428    21929108.766
       227.000         181.000
  21310348.463    -7428140.97349  -5775338.44747  21310348.363    21310354.816
       240.000         205.000
  23705815.483    12573218.98849   9669844.00045  23705815.296    23705823.329
       216.000         157.000
  23621421.723    12730010.35549   9911671.84645  23621421.710    23621427.409
       214.000         153.000
 01  2  9  2 59  0.0000000  0  7G22G 6G23G26G17G30G10
  23724285.607    -1177194.05449   -907675.80945  23724284.310    23724292.819
       213.000         155.000
  20299003.800    -3469554.00249  -2565742.89348  20299003.872    20299009.635
       243.000         213.000
  21441046.248   -14110566.74749 -10966260.70047  21441045.643    21441052.958
       240.000         203.000
  21921949.269    -9005966.24549  -6999343.24046  21921949.470    21921956.012
       227.000         181.000
  21304879.092    -7456882.51749  -5797734.42547  21304878.559    21304885.267
       240.000         205.000
  23725029.860    12674191.18949   9748523.63145  23725030.133    23725037.830
       216.000         157.000
  23640608.230    12830836.30749   9990237.53045  23640607.678    23640614.154
       215.000         153.000
 01  2  9  2 59 30.0000000  0  7G22G 6G23G26G17G30G10
  23718431.791    -1207955.76249   -931645.89645  23718431.042    23718439.547
       212.000         156.000
  20302318.538    -3452134.78149  -2552169.46947  20302318.617    20302324.550
       242.000         212.000
  21430286.880   -14167107.41349 -11010318.32247  21430286.451    21430293.591
       240.000         203.000
  21914899.297    -9043013.80449  -7028211.42546  21914899.521    21914905.624
       228.000         182.000
  21299438.253    -7485474.10949  -5820013.55747  21299438.046    21299444.227
       240.000         205.000
  23744250.704    12775197.20949   9827229.62645  23744251.237    23744258.246
       217.000         157.000
  23659813.540    12931760.83749  10068880.03245  23659812.563    23659819.702
       216.000         153.000
 01  2  9  3  0  0.0000000  0  7G22G 6G23G26G17G30G10
  23712675.686    -1238203.85949   -955215.75845  23712674.757    23712683.272
       211.000         156.000
  20305725.118    -3434233.06849  -2538220.07647  20305725.069    20305730.919
       243.000         212.000
  21419605.483   -14223238.30849 -11054056.64247  21419605.266    21419612.211
       240.000         204.000
  21907953.023    -9079516.62849  -7056655.14046  21907953.000    21907959.594
       227.000         182.000
  21294026.094    -7513915.15149  -5842175.38147  21294025.713    21294032.541
       240.000         205.000
  23763477.514    12876234.72149   9905960.14645  23763478.066    23763485.745
       217.000         158.000
  23679037.215    13032782.16249  10147597.96245  23679036.424    23679044.267
       216.000         153.000
 01  2  9  3  0 30.0000000  0  7G22G 6G23G26G17G30G10
  23707017.244    -1267939.01149   -978385.93145  23707016.294    23707024.483
       212.000         156.000
  20309223.395    -3415849.50349  -2523895.20747  20309223.347    20309229.164
       243.000         212.000
  21409001.993   -14278959.71149 -11097475.87747  21409001.727    21409008.373
       240.000         204.000
  21901110.546    -9115473.81449  -7084673.67446  21901110.657    21901117.085
       227.000         182.000
  21288642.323    -7542206.96249  -5864220.91847  21288641.770    21288648.481
       240.000         205.000
  23782709.529    12977299.58449   9984711.99045  23782710.592    23782718.033
       216.000         158.000
  23698278.745    13133896.91949  10226388.68945  23698277.764    23698285.485
       215.000         154.000
 01  2  9  3  1  0.0000000  0  7G22G 6G23G26G17G30G10
  23701456.603    -1297160.06749  -1001155.50945  23701456.193    23701464.313
       212.000         156.000
  20312813.452    -3396983.58849  -2509194.49047  20312813.482    20312819.381
       243.000         212.000
  21398476.590   -14334271.02149 -11140575.56047  21398476.193    21398483.009
       240.000         204.000
  21894372.369    -9150883.05349  -7112265.24346  21894372.341    21894378.788
       228.000         182.000
  21283286.915    -7570349.70249  -5886150.29947  21283286.547    21283293.088
       240.000         205.000
  23801946.288    13078389.28449  10063483.18045  23801946.805    23801954.567
       216.000         158.000
  23717537.581    13235102.82649  10305250.44045  23717536.671    23717544.322
       215.000         153.000
 01  2  9  3  1 30.0000000  0  7G22G 6G23G26G17G30G10
  23695994.047    -1325865.69649  -1023523.45945  23695993.225    23696001.132
       214.000         157.000
  20316495.554    -3377633.99749  -2494116.88347  20316495.653    20316501.523
       243.000         212.000
  21388029.468   -14389170.93649 -11183354.67947  21388029.056    21388036.069
       240.000         205.000
  21887738.980    -9185741.51349  -7139427.63646  21887739.163    21887745.734
       228.000         182.000
  21277960.029    -7598342.56449  -5907962.89147  21277959.655    21277966.407
       240.000         205.000
  23821187.302    13179501.47749  10142271.90345  23821186.826    23821194.587
       216.000         157.000
  23736813.499    13336398.50849  10384182.14545  23736813.356    23736819.667
       215.000         154.000
 01  2  9  3  2  0.0000000  0  7G22G 6G23G26G17G30G10
  23690629.576    -1354056.00349  -1045489.85645  23690628.949    23690637.319
       213.000         157.000
  20320269.680    -3357800.75749  -2478662.40247  20320269.530    20320275.499
       243.000         212.000
  21377660.642   -14443659.37649 -11225813.16547  21377660.254    21377667.262
       241.000         205.000
  21881210.672    -9220047.70149  -7166159.68346  21881211.093    21881216.681
       227.000         182.000
  21272661.516    -7626186.30949  -5929659.28647  21272661.003    21272667.715
       240.000         205.000
  23840431.929    13280632.81149  10221075.52745  23840431.942    23840440.101
       216.000         157.000
  23756105.958    13437780.91849  10463181.43445  23756105.870    23756112.123
       215.000         154.000
 01  2  9  3  2 30.0000000  0  7G22G 6G23G26G17G30G10
  23685363.086    -1381731.25749  -1067054.91345  23685362.255    23685370.672
       214.000         157.000
  20324135.920    -3337483.55749  -2462830.81047  20324135.864    20324141.684
       243.000         212.000
  21367370.195   -14497735.82349 -11267950.61947  21367369.728    21367376.393
       241.000         205.000
  21874787.914    -9253799.61349  -7192459.82546  21874788.309    21874794.842
       228.000         182.000
  21267391.328    -7653881.20949  -5951239.70247  21267390.832    21267397.440
       240.000         205.000
  23859679.699    13381780.47049  10299891.87545  23859680.537    23859688.239
       216.000         157.000
  23775414.415    13539247.52049  10542246.33745  23775414.363    23775421.226
       215.000         154.000
 01  2  9  3  3  0.0000000  0  7G22G 6G23G26G17G30G10
  23680194.907    -1408889.77649  -1088217.31945  23680194.193    23680202.450
       214.000         157.000
  20328094.483    -3316681.15749  -2446621.14247  20328094.323    20328100.489
       243.000         212.000
  21357158.445   -14551398.75849 -11309765.85147  21357158.107    21357165.046
       241.000         205.000
  21868471.135    -9286994.38949  -7218325.84146  21868471.292    21868477.711
       228.000         182.000
  21262149.629    -7681426.34449  -5972703.41547  21262149.380    21262155.821
       240.000         205.000
  23878930.191    13482942.36149  10378719.31145  23878931.230    23878937.717
       215.000         157.000
  23794738.644    13640797.10449  10621375.88745  23794737.396    23794746.492
       214.000         154.000
 01  2  9  3  3 30.0000000  0  7G22G 6G23G26G17G30G10
  23675125.045    -1435531.94249  -1108977.36745  23675123.893    23675132.251
       213.000         157.000
  20332145.247    -3295394.25549  -2430033.93747  20332145.329    20332151.209
       243.000         212.000
  21347025.236   -14604649.01949 -11351259.52447  21347024.852    21347031.801
       241.000         205.000
  21862260.538    -9319631.24449  -7243757.10246  21862260.492    21862267.206
       228.000         182.000
  21256936.196    -7708823.03249  -5994051.45947  21256935.720    21256942.495
       241.000         205.000
  23898182.566    13584114.37349  10457554.63745  23898183.122    23898189.821
       214.000         156.000
  23814078.027    13742426.14349  10700567.35345  23814077.247    23814085.207
       214.000         154.000
 01  2  9  3  4  0.0000000  0  7G22G 6G23G26G17G30G10
  23670153.724    -1461656.14049  -1129333.81445  23670153.214    23670161.344
       214.000         157.000
  20336288.460    -3273621.37049  -2413068.04847  20336288.371    20336294.306
       242.000         212.000
  21336970.880   -14657484.89549 -11392430.29547  21336970.443    21336977.402
       241.000         206.000
  21856156.705    -9351706.99749  -7268751.14246  21856156.538    21856162.969
       228.000         183.000
  21251751.240    -7736070.10649  -6015282.91447  21251751.019    21251757.497
       240.000         205.000
  23917436.596    13685294.94649  10536396.63145  23917437.083    23917444.913
       213.000         155.000
  23833432.260    13844133.42649  10779819.78345  23833432.088    23833438.696
       213.000         154.000
 01  2  9  3  4 30.0000000  0  7G22G 6G23G26G17G30G10
  23665280.819    -1487263.37449  -1149287.43045  23665280.177    23665287.963
       214.000         157.000
  20340524.044    -3251363.25249  -2395724.06347  20340524.048    20340530.020
       243.000         212.000
  21326995.291   -14709906.74149 -11433278.44747  21326995.119    21327002.014
       242.000         206.000
  21850159.822    -9383220.59749  -7293307.14446  21850160.089    21850166.416
       228.000         183.000
  21246594.527    -7763168.64149  -6036398.62947  21246594.229    21246600.725
       240.000         205.000
  23936691.512    13786480.24149  10615242.29445  23936692.003    23936699.929
       213.000         155.000
  23852800.796    13945915.73049  10859130.66945  23852800.630    23852807.610
       214.000         154.000
 01  2  9  3  5  0.0000000  0  7G22G 6G23G26G17G30G10
  23660506.282    -1512353.54949  -1168838.14145  23660505.563    23660513.259
       214.000         157.000
  20344852.049    -3228619.35049  -2378001.54247  20344852.152    20344857.909
       242.000         212.000
  21317098.610   -14761914.10049 -11473803.62247  21317098.400    21317105.013
       241.000         206.000
  21844270.256    -9414170.18349  -7317423.65346  21844270.816    21844276.523
       229.000         183.000
  21241466.107    -7790118.58149  -6057398.55247  21241465.889    21241472.384
       240.000         205.000
  23955946.825    13887667.41449  10694089.43745  23955946.773    23955955.426
       213.000         154.000
  23872183.188    14047770.84749  10938498.29245  23872182.482    23872189.858
       212.000         154.000
 01  2  9  3  5 30.0000000  0  7G22G 6G23G26G17G30G10
  23655830.574    -1536924.13549  -1187983.97545  23655829.730    23655837.452
       215.000         158.000
  20349272.921    -3205387.52949  -2359898.82347  20349272.951    20349278.843
       243.000         212.000
  21307281.200   -14813504.75149 -11514004.08947  21307280.826    21307287.709
       241.000         206.000
  21838488.747    -9444552.11349  -7341097.83446  21838489.049    21838495.238
       229.000         183.000
  21236366.268    -7816918.27749  -6078281.40047  21236365.880    21236372.345
       241.000         205.000
  23975202.276    13988855.47849  10772937.25945  23975202.083    23975210.559
       213.000         154.000
  23891579.382    14149698.50749  11017922.43345  23891579.354    23891585.831
       213.000         153.000
 01  2  9  3  6  0.0000000  0  7G22G 6G23G26G17G30G10
  23651253.386    -1560977.16649  -1206726.52545  23651251.959    23651260.937
       214.000         158.000
  20353786.176    -3181670.24149  -2341417.81847  20353786.207    20353792.165
       242.000         212.000
  21297542.668   -14864680.89249 -11553881.55747  21297542.338    21297549.078
       241.000         206.000
  21832815.073    -9474367.24249  -7364330.35346  21832815.296    21832821.994
       229.000         183.000
  21231294.498    -7843570.51449  -6099049.34647  21231294.081    21231300.679
       240.000         205.000
  23994456.852    14090038.93549  10851781.49445  23994457.543    23994465.379
       212.000         154.000
  23910988.401    14251693.72649  11097399.24145  23910986.898    23910995.251
       211.000         153.000
 01  2  9  3  6 30.0000000  0  7G22G 6G23G26G17G30G10
  23646774.891    -1584511.40349  -1225064.80945  23646773.839    23646782.179
       215.000         158.000
  20358392.082    -3157465.95649  -2322557.33947  20358392.308    20358397.907
       242.000         212.000
  21287883.338   -14915440.84449 -11593434.72747  21287882.965    21287889.582
       241.000         206.000
  21827249.863    -9503612.47949  -7387118.79746  21827249.889    21827256.280
       229.000         183.000
  21226251.013    -7870074.23349  -6119701.57047  21226250.523    21226257.110
       241.000         206.000
  24013710.207    14191215.99249  10930620.74145  24013711.294    24013718.245
       212.000         153.000
  23930410.045    14353755.20449  11176927.66145  23930409.402    23930417.296
       211.000         152.000
 01  2  9  3  7  0.0000000  0  7G22G 6G23G26G17G30G10
  23642395.316    -1607526.01249  -1242998.19445  23642394.621    23642402.279
       215.000         158.000
  20363090.924    -3132773.40649  -2303316.38047  20363090.955    20363096.719
       242.000         212.000
  21278303.482   -14965783.18049 -11632662.47947  21278303.097    21278309.812
       242.000         207.000
  21821793.641    -9532284.87349  -7409460.87746  21821793.966    21821799.300
       229.000         184.000
  21221235.974    -7896428.26649  -6140237.14847  21221235.684    21221241.843
       240.000         206.000
  24032962.035    14292385.06849  11009453.77145  24032962.616    24032970.052
       213.000         153.000
  23949844.095    14455881.88449  11256506.88745  23949843.358    23949851.193
       211.000         152.000
 01  2  9  3  7 30.0000000  0  7G22G 6G23G26G17G30G10
  23638114.620    -1630020.85649  -1260526.57745  23638114.424    23638122.590
       217.000         158.000
  20367882.698    -3107592.47449  -2283694.86547  20367882.718    20367888.609
       242.000         212.000
  21268803.139   -15015707.63949 -11671564.61647  21268802.674    21268809.554
       241.000         207.000
  21816446.736    -9560382.93149  -7431355.41746  21816446.748    21816452.910
       229.000         184.000
  21216249.359    -7922633.03549  -6160656.42247  21216249.176    21216255.563
       241.000         206.000
  24052211.774    14393543.04349  11088278.14845  24052212.230    24052219.881
       210.000         152.000
  23969290.076    14558071.39749  11336135.09045  23969289.636    23969296.610
       210.000         151.000
 01  2  9  3  8  0.0000000  0  7G22G 6G23G26G17G30G10
  23633932.835    -1651996.09749  -1277650.07445  23633932.169    23633939.524
       215.000         158.000
  20372767.256    -3081923.94449  -2263693.40347  20372767.327    20372773.215
       242.000         211.000
  21259382.281   -15065214.49049 -11710141.34447  21259381.846    21259388.870
       241.000         207.000
  21811209.316    -9587905.68649  -7452801.67946  21811209.104    21811215.439
       229.000         184.000
  21211290.974    -7948689.46549  -6180960.10647  21211290.429    21211297.020
       240.000         206.000
  24071458.720    14494686.36149  11167091.11045  24071459.535    24071467.141
       209.000         152.000
  23988747.426    14660320.70049  11415809.86245  23988746.946    23988754.082
       209.000         150.000
 01  2  9  3  8 30.0000000  0  7G22G 6G23G26G17G30G10
  23629849.730    -1673452.58949  -1294369.34545  23629848.996    23629856.941
       216.000         158.000
  20377744.411    -3055768.74749  -2243312.72647  20377744.571    20377750.274
       242.000         211.000
  21250040.626   -15114304.94249 -11748393.60647  21250040.313    21250047.035
       242.000         207.000
  21806081.439    -9614852.68149  -7473799.28946  21806081.844    21806086.959
       230.000         184.000
  21206360.563    -7974598.80049  -6201149.17247  21206360.222    21206366.721
       241.000         206.000
  24090702.085    14595810.97049  11245889.49645  24090702.134    24090710.353
       211.000         151.000
  24008215.551    14762626.30149  11495528.50745  24008214.959    24008223.502
       207.000         148.000
 01  2  9  3  9  0.0000000  0  7G22G 6G23G26G17G30G10
  23625865.830    -1694387.85249  -1310682.46445  23625865.114    23625873.228
       216.000         158.000
  20382814.760    -3029123.94649  -2222550.54147  20382814.901    20382820.660
       242.000         211.000
  21240778.834   -15162975.91749 -11786318.99847  21240778.435    21240785.236
       242.000         207.000
  21801063.948    -9641219.50349  -7494344.81646  21801064.097    21801070.166
       230.000         184.000
  21201458.640    -8000358.38349  -6221221.54447  21201458.316    21201464.616
       241.000         206.000
  24109941.876    14696916.77249  11324673.22245  24109942.424    24109949.763
       209.000         150.000
  24027694.396    14864988.50649  11575291.27045  24027693.674    24027700.831
       206.000         147.000
 01  2  9  3  9 30.0000000  0  7G22G 6G23G26G17G30G10
  23621980.890    -1714803.01649  -1326590.32145  23621979.564    23621988.227
       216.000         159.000
  20387978.152    -3001990.19949  -2201407.36147  20387978.106    20387984.098
       243.000         211.000
  21231596.806   -15211227.71949 -11823917.76747  21231596.242    21231603.179
       243.000         207.000
  21796157.044    -9667005.25249  -7514437.56146  21796157.454    21796163.114
       230.000         184.000
  21196585.087    -8025969.06149  -6241177.88447  21196584.740    21196591.059
       240.000         206.000
  24129177.410    14798000.22249  11403439.53245  24129177.708    24129185.652
       210.000         150.000
  24047183.554    14967404.58849  11655096.00345  24047183.451    24047190.648
       208.000         147.000
 01  2  9  3 10  0.0000000  0  7G22G 6G23G26G17G30G10
  23618195.062    -1734697.49449  -1342092.44945  23618194.474    23618202.406
       214.000         158.000
  20393234.614    -2974367.23649  -2179882.97647  20393234.518    20393240.581
       242.000         211.000
  21222494.573   -15259060.11049 -11861189.71847  21222494.303    21222500.945
       242.000         207.000
  21791361.005    -9692208.32749  -7534076.28246  21791361.434    21791367.137
       230.000         184.000
  21191739.859    -8051430.85849  -6261018.21647  21191739.494    21191745.787
       240.000         206.000
  24148408.124    14899058.35949  11482186.12045  24148408.435    24148416.613
       209.000         149.000
  24066682.531    15069872.38649  11734941.04545  24066681.503    24066689.460
       208.000         146.000
 01  2  9  3 10 30.0000000  0  7G22G 6G23G26G17G30G10
  23614508.031    -1754072.58649  -1357189.84945  23614506.937    23614515.104
       216.000         158.000
  20398583.896    -2946256.55049  -2157978.54247  20398583.924    20398589.740
       243.000         211.000
  21213471.908   -15306474.27449 -11898135.77547  21213471.569    21213478.118
       242.000         207.000
  21786675.927    -9716828.66149  -7553260.90746  21786676.218    21786682.075
       230.000         184.000
  21186922.613    -8076745.42949  -6280743.82647  21186922.219    21186928.725
       240.000         206.000
  24167633.156    15000086.81649  11560909.58745  24167633.735    24167641.431
       209.000         148.000
  24086190.560    15172388.10049  11814823.41645  24086190.707    24086196.715
       205.000         145.000
 01  2  9  3 11  0.0000000  0  7G22G 6G23G26G17G30G10
  23610920.399    -1772925.47349  -1371880.34445  23610919.261    23610927.357
       215.000         158.000
  20404026.505    -2917655.44849  -2135691.96547  20404026.446    20404032.340
       242.000         211.000
  21204529.391   -15353467.39749 -11934753.75047  21204529.150    21204535.546
       241.000         207.000
  21782102.471    -9740861.96049  -7571988.11146  21782102.764    21782108.821
       230.000         185.000
  21182133.917    -8101910.09349  -6300352.62347  21182133.424    21182139.922
       240.000         206.000
  24186852.555    15101085.43149  11639609.78545  24186852.620    24186861.441
       209.000         148.000
  24105707.884    15274952.28449  11894743.55945  24105707.496    24105714.834
       207.000         145.000
 01  2  9  3 11 30.0000000  0  8G22G 6G23G21G26G17G30G10
  23607430.942    -1791262.39949  -1386168.78845  23607430.906    23607438.561
       216.000         158.000
  20409561.343    -2888569.63749  -2113027.69547  20409561.395    20409567.240
       242.000         211.000
  21195665.903   -15400045.21449 -11971048.11547  21195665.486    21195672.158
       241.000         208.000
  24902316.661    -2203716.95249  -1458790.30645  24902314.007    24902325.829
       197.000         137.000
  21777639.948    -9764312.53149  -7590261.24046  21777640.293    21777646.308
       230.000         185.000
  21177372.630    -8126930.72149  -6319849.18547  21177372.210    21177378.680
       240.000         206.000
  24206064.734    15202046.04849  11718280.38145  24206065.360    24206073.332
       209.000         147.000
  24125232.857    15377556.76849  11974695.11145  24125232.769    24125239.252
       207.000         144.000
 01  2  9  3 12  0.0000000  0  8G22G 6G23G21G26G17G30G10
  23604040.566    -1809078.63649  -1400051.49945  23604040.583    23604048.079
       217.000         158.000
  20415189.395    -2858994.08749  -2089981.81247  20415189.309    20415195.344
       242.000         211.000
  21186882.390   -15446202.73149 -12007014.96447  21186882.017    21186888.733
       241.000         208.000
  24885238.356    -2293462.99748  -1528721.92645  24885236.299    24885247.426
       193.000         136.000
  21773289.524    -9787173.95749  -7608075.29346  21773289.765    21773295.652
       231.000         185.000
  21172639.642    -8151802.64249  -6339229.86747  21172639.447    21172645.696
       239.000         206.000
  24225269.989    15302970.19649  11796922.55345  24225270.394    24225277.365
       209.000         147.000
  24144766.069    15480204.52049  12054680.37545  24144766.226    24144772.777
       208.000         144.000
 01  2  9  3 12 30.0000000  0  8G22G 6G23G21G26G17G30G10
  23600749.791    -1826371.43449  -1413526.33545  23600749.161    23600757.580
       215.000         157.000
  20420911.026    -2828926.65549  -2066552.64747  20420910.938    20420916.965
       242.000         211.000
  21178179.431   -15491936.89049 -12042651.93247  21178179.072    21178185.716
       242.000         208.000
  24868188.889    -2383057.25549  -1598535.27245  24868187.552    24868197.802
       203.000         135.000
  21769051.930    -9809442.50049  -7625427.36146  21769051.689    21769058.514
       231.000         185.000
  21167935.399    -8176523.43149  -6358492.78447  21167935.223    21167941.440
       240.000         206.000
  24244468.247    15403857.71949  11875536.19645  24244468.833    24244476.456
       210.000         146.000
  24164307.510    15582895.54749  12134699.36045  24164308.018    24164314.942
       208.000         144.000
 01  2  9  3 13  0.0000000  0  8G22G 6G23G21G26G17G30G10
  23597558.411    -1843141.97649  -1426594.22545  23597558.021    23597565.636
       216.000         157.000
  20426726.007    -2798368.75549  -2042741.29847  20426726.192    20426731.866
       242.000         210.000
  21169556.739   -15537249.23349 -12077960.20747  21169556.291    21169562.980
       241.000         208.000
  24851168.314    -2472499.61149  -1668230.27545  24851167.435    24851177.554
       199.000         135.000
  21764927.215    -9831117.97249  -7642317.29246  21764927.474    21764933.272
       230.000         185.000
  21163259.697    -8201094.41649  -6377638.97447  21163259.330    21163265.680
       240.000         206.000
  24263658.813    15504704.60149  11954118.14645  24263658.699    24263667.140
       211.000         146.000
  24183856.564    15685626.39149  12214749.38645  24183855.685    24183863.329
       209.000         143.000
 01  2  9  3 13 30.0000000  0  8G22G 6G23G21G26G17G30G10
  23594466.197    -1859391.62449  -1439256.20945  23594465.571    23594473.770
       216.000         157.000
  20432634.162    -2767321.20049  -2018548.39747  20432634.142    20432640.025
       243.000         210.000
  21161014.166   -15582140.60349 -12112940.45047  21161013.855    21161020.440
       242.000         208.000
  24834176.584    -2561790.29148  -1737807.08745  24834175.738    24834185.721
       194.000         135.000
  21760915.366    -9852200.00449  -7658744.79946  21760915.742    21760921.221
       230.000         185.000
  21158612.214    -8225516.94249  -6396669.47847  21158611.948    21158617.905
       240.000         206.000
  24282840.902    15605507.10449  12032665.52545  24282840.619    24282849.274
       211.000         145.000
  24203412.509    15788393.74949  12294827.83945  24203410.548    24203418.629
       210.000         143.000
 01  2  9  3 14  0.0000000  0  8G22G 6G23G21G26G17G30G10
  23591473.231    -1875119.61949  -1451511.72445  23591472.563    23591479.942
       215.000         157.000
  20438635.746    -2735782.62949  -1993972.88247  20438635.867    20438641.581
       242.000         210.000
  21152552.004   -15626609.55549 -12147591.54147  21152551.613    21152558.207
       241.000         208.000
  24817214.229    -2650926.54649  -1807263.59545  24817212.042    24817223.303
       198.000         135.000
  21757017.020    -9872685.86149  -7674707.76746  21757017.061    21757022.968
       230.000         185.000
  21153993.269    -8249789.53349  -6415583.15147  21153993.015    21153999.188
       240.000         206.000
  24302014.188    15706263.32649  12111176.85245  24302015.045    24302022.613
       211.000         145.000
  24222975.291    15891196.70249  12374934.04745  24222974.374    24222981.825
       211.000         143.000
 01  2  9  3 14 30.0000000  0  8G22G 6G23G21G26G17G30G10
  23588579.246    -1890327.21049  -1463361.72445  23588578.427    23588586.213
       216.000         157.000
  20444730.487    -2703754.56949  -1969015.94847  20444730.558    20444736.166
       242.000         210.000
  21144170.006   -15670657.10849 -12181914.27247  21144169.746    21144176.290
       242.000         208.000
  24800281.277    -2739908.53849  -1876599.92445  24800279.883    24800289.963
       199.000         135.000
  21753232.130    -9892575.37849  -7690206.04946  21753231.941    21753238.664
       230.000         185.000
  21149402.645    -8273913.35749  -6434380.90147  21149402.263    21149408.667
       240.000         207.000
  24321177.906    15806969.10549  12189648.87145  24321177.329    24321185.726
       211.000         144.000
  24242544.206    15994031.79449  12455065.31445  24242544.016    24242551.397
       212.000         142.000
 01  2  9  3 15  0.0000000  0  8G22G 6G23G21G26G17G30G10
  23585784.391    -1905014.00949  -1474805.90145  23585784.031    23585791.294
       216.000         157.000
  20450918.357    -2671237.00049  -1943677.57747  20450918.334    20450924.276
       242.000         210.000
  21135868.241   -15714282.88449 -12215908.34747  21135867.893    21135874.461
       242.000         209.000
  24783377.832    -2828735.56849  -1945815.52145  24783376.775    24783387.263
       200.000         136.000
  21749560.976    -9911867.21849  -7705238.60346  21749561.222    21749567.237
       230.000         185.000
  21144840.315    -8297888.37949  -6453062.69847  21144839.962    21144846.190
       240.000         207.000
  24340331.570    15907622.19949  12268079.83845  24340332.808    24340339.911
       213.000         144.000
  24262118.840    16096897.22449  12535220.19745  24262118.545    24262125.015
       212.000         142.000
 01  2  9  3 15 30.0000000  0  8G22G 6G23G21G26G17G30G10
  23583088.786    -1919179.08849  -1485843.55445  23583087.578    23583095.162
       216.000         157.000
  20457199.600    -2638228.90349  -1917956.98647  20457199.555    20457205.433
       242.000         210.000
  21127646.922   -15757486.10549 -12249573.15747  21127646.625    21127652.970
       242.000         209.000
  24766504.363    -2917405.25349  -2014908.53245  24766504.066    24766512.795
       202.000         137.000
  21746003.994    -9930559.14049  -7719803.69846  21746004.185    21746010.314
       230.000         185.000
  21140306.469    -8321713.76249  -6471627.89747  21140306.231    21140312.236
       240.000         207.000
  24359474.821    16008220.61349  12346468.21345  24359474.737    24359483.099
       213.000         143.000
  24281699.068    16199791.96349  12615397.92245  24281698.140    24281706.224
       212.000         142.000
 01  2  9  3 16  0.0000000  0  8G22G 6G23G21G26G17G30G10
  23580492.262    -1932823.67649  -1496475.63645  23580491.465    23580500.165
       215.000         157.000
  20463574.033    -2604730.98449  -1891854.71347  20463574.013    20463579.769
       242.000         210.000
  21119505.926   -15800267.13649 -12282908.98647  21119505.341    21119512.204
       242.000         209.000
  24749661.015    -3005916.50149  -2083878.10645  24749660.646    24749669.053
       202.000         138.000
  21742561.324    -9948650.41949  -7733900.74946  21742561.398    21742567.772
       230.000         185.000
  21135801.009    -8345390.05949  -6490076.92547  21135800.590    21135806.784
       240.000         207.000
  24378607.122    16108761.17949  12424811.50845  24378607.791    24378616.018
       216.000         142.000
  24301284.379    16302713.22049  12695596.33045  24301283.911    24301290.992
       212.000         141.000
 01  2  9  3 16 30.0000000  0  8G22G 6G23G21G26G17G30G10
  23577994.592    -1945948.68849  -1506702.85445  23577993.385    23578001.909
       216.000         157.000
  20470041.566    -2570743.93249  -1865371.29447  20470041.645    20470047.451
       242.000         210.000
  21111445.201   -15842626.42749 -12315916.18747  21111444.791    21111451.429
       242.000         209.000
  24732847.855    -3094269.28949  -2152724.21345  24732846.906    24732855.976
       206.000         139.000
  21739233.106    -9966140.13849  -7747529.06046  21739233.372    21739238.848
       231.000         185.000
  21131323.817    -8368917.63149  -6508410.06347  21131323.459    21131329.726
       240.000         207.000
  24397727.730    16209240.66049  12503107.20845  24397727.775    24397736.063
       214.000         143.000
  24320874.229    16405658.41649  12775813.37545  24320874.419    24320880.850
       212.000         141.000
 01  2  9  3 17  0.0000000  0  8G22G 6G23G21G26G17G30G10
  23575596.040    -1958552.89349  -1516524.25245  23575595.735    23575603.752
       216.000         157.000
  20476602.372    -2536266.68249  -1838505.90347  20476602.393    20476608.349
       242.000         210.000
  21103464.967   -15884562.70649 -12348593.77447  21103464.675    21103471.237
       242.000         209.000
  24716065.280    -3182461.38449  -2221445.12245  24716064.465    24716073.642
       205.000         139.000
  21736019.780    -9983026.01049  -7760686.83746  21736019.747    21736026.179
       231.000         185.000
  21126875.172    -8392295.32949  -6526626.41747  21126874.779    21126881.118
       240.000         207.000
  24416836.445    16309657.54249  12581354.12545  24416836.426    24416844.378
       214.000         143.000
  24340468.371    16508626.52549  12856048.30045  24340469.154    24340475.161
       213.000         140.000
 01  2  9  3 17 30.0000000  0  8G22G 6G23G21G26G17G30G10
  23573296.491    -1970636.78249  -1525940.20645  23573295.607    23573303.487
       215.000         156.000
  20483256.322    -2501299.91749  -1811259.07047  20483256.377    20483262.151
       242.000         209.000
  21095565.138   -15926076.49349 -12380942.14247  21095564.724    21095571.405
       242.000         209.000
  24699313.415    -3270492.19749  -2290040.38345  24699312.152    24699321.305
       207.000         138.000
  21732921.552    -9999307.28949  -7773373.50346  21732921.512    21732927.908
       231.000         185.000
  21122454.898    -8415523.83249  -6544726.51747  21122454.459    21122460.768
       240.000         207.000
  24435932.648    16410008.58149  12659549.73845  24435932.696    24435941.297
       215.000         142.000
  24360066.422    16611615.01649  12936299.07845  24360066.497    24360073.652
       213.000         140.000
 01  2  9  3 18  0.0000000  0  8G22G 6G23G21G26G17G30G10
  23571095.880    -1982200.80549  -1534951.07545  23571095.040    23571103.302
       217.000         157.000
  20490003.325    -2465844.06549  -1783631.13847  20490003.296    20490009.078
       242.000         209.000
  21087745.657   -15967167.94149 -12412961.41547  21087745.208    21087751.956
       242.000         209.000
  24682592.400    -3358360.89949  -2358509.33345  24682591.857    24682599.993
       208.000         138.000
  21729938.530   -10014982.96649  -7785588.26746  21729938.247    21729944.847
       230.000         185.000
  21118063.043    -8438603.13949  -6562710.35847  21118062.410    21118068.887
       240.000         207.000
  24455015.757    16510290.87049  12737691.79045  24455016.195    24455024.496
       216.000         143.000
  24379667.977    16714621.86949  13016564.17945  24379667.527    24379674.647
       213.000         141.000
 01  2  9  3 18 30.0000000  0  8G22G 6G23G21G26G17G30G10
  23568994.209    -1993245.03349  -1543556.92145  23568993.136    23569001.194
       216.000         156.000
  20496843.480    -2429898.76749  -1755621.82047  20496843.511    20496849.275
       242.000         209.000
  21080006.673   -16007836.48549 -12444651.15347  21080006.335    21080012.885
       242.000         210.000
  24665902.645    -3446065.44649  -2426850.36745  24665901.692    24665911.244
       209.000         138.000
  21727071.073   -10030051.28349  -7797329.76746  21727071.272    21727077.015
       230.000         185.000
  21113699.636    -8461532.84749  -6580577.63047  21113699.290    21113705.581
       240.000         207.000
  24474085.314    16610501.97449  12815778.34545  24474086.742    24474093.615
       215.000         143.000
  24399272.714    16817645.49149  13096842.35745  24399272.185    24399279.467
       212.000         140.000
 01  2  9  3 19  0.0000000  0  8G22G 6G23G21G26G17G30G10
  23566991.279    -2003770.06649  -1551758.19645  23566991.391    23566998.786
       215.000         157.000
  20503776.771    -2393464.12849  -1727231.19347  20503776.721    20503782.720
       241.000         209.000
  21072348.117   -16048082.25049 -12476011.45147  21072347.657    21072354.199
       242.000         210.000
  24649244.297    -3533604.94549  -2495062.80245  24649244.263    24649252.038
       210.000         139.000
  21724319.431   -10044511.08749  -7808597.09946  21724319.926    21724325.703
       230.000         185.000
  21109364.755    -8484312.69349  -6598328.12547  21109364.291    21109370.563
       240.000         207.000
  24493140.816    16710639.45549  12893807.53745  24493140.652    24493149.072
       214.000         144.000
  24418880.198    16920683.78449  13177131.93745  24418879.452    24418887.624
       212.000         140.000
 01  2  9  3 19 30.0000000  0  8G22G 6G23G21G26G17G30G10
  23565087.252    -2013775.76549  -1559554.79645  23565086.390    23565094.468
       216.000         156.000
  20510803.086    -2356540.58649  -1698459.60247  20510803.166    20510809.011
       241.000         209.000
  21064770.006   -16087905.21749 -12507042.29547  21064769.623    21064776.180
       243.000         210.000
  24632617.545    -3620978.48949  -2563145.93345  24632616.874    24632624.992
       211.000         138.000
  21721683.746   -10058361.45449  -7819389.54246  21721683.881    21721689.731
       230.000         185.000
  21105058.377    -8506942.65749  -6615961.82647  21105058.012    21105064.191
       240.000         207.000
  24512181.843    16810700.67649  12971777.29945  24512182.929    24512190.604
       214.000         144.000
  24438490.145    17023734.65149  13257431.35145  24438489.536    24438497.389
       210.000         140.000
 01  2  9  3 20  0.0000000  0  8G22G 6G23G21G26G17G30G10
  23563281.920    -2023262.51149  -1566947.02545  23563281.400    23563289.669
       215.000         156.000
  20517922.376    -2319128.56149  -1669307.37747  20517922.308    20517928.453
       241.000         209.000
  21057272.338   -16127305.66949 -12537743.90947  21057271.934    21057278.573
       242.000         210.000
  24616022.567    -3708185.11649  -2631099.01145  24616022.222    24616030.403
       211.000         138.000
  21719164.232   -10071601.40249  -7829706.34446  21719164.335    21719170.212
       230.000         185.000
  21100780.463    -8529423.08649  -6633479.01047  21100779.974    21100786.336
       240.000         207.000
  24531207.849    16910682.89049  13049685.50645  24531208.418    24531215.645
       214.000         144.000
  24458102.089    17126796.12049  13337739.01745  24458100.729    24458108.761
       209.000         140.000
 01  2  9  3 20 30.0000000  0  8G22G 6G23G21G26G17G30G10
  23561575.320    -2032230.56849  -1573935.08145  23561574.651    23561582.686
       215.000         156.000
  20525134.596    -2281228.03049  -1639774.49947  20525134.655    20525140.374
       242.000         209.000
  21049855.075   -16166283.44549 -12568116.16047  21049854.619    21049861.224
       242.000         210.000
  24599459.558    -3795223.38449  -2698920.90145  24599458.719    24599467.295
       211.000         138.000
  21716761.114   -10084229.64849  -7839546.49446  21716761.289    21716767.400
       231.000         186.000
  21096531.077    -8551753.58049  -6650879.36047  21096530.626    21096536.933
       240.000         207.000
  24550218.336    17010583.46849  13127530.06945  24550218.617    24550227.697
       212.000         144.000
  24477715.734    17229866.46749  13418053.59945  24477715.190    24477722.803
       209.000         140.000
 01  2  9  3 21  0.0000000  0  8G22G 6G23G21G26G17G30G10
  23559967.239    -2040680.91249  -1580519.71545  23559966.355    23559973.350
       215.000         157.000
  20532439.731    -2242839.27449  -1609861.18347  20532439.758    20532445.817
       242.000         209.000
  21042518.268   -16204838.55049 -12598159.06147  21042517.858    21042524.474
       243.000         210.000
  24582928.803    -3882092.36349  -2766610.88645  24582928.193    24582936.185
       210.000         138.000
  21714474.566   -10096245.18749  -7848909.20646  21714474.982    21714480.812
       231.000         186.000
  21092310.236    -8573934.06749  -6668162.82347  21092309.848    21092316.263
       241.000         207.000
  24569212.755    17110399.80849  13205309.01145  24569212.388    24569220.451
       211.000         144.000
  24497330.576    17332943.37349  13498373.28245  24497330.611    24497337.616
       207.000         139.000
 01  2  9  3 21 30.0000000  0  8G22G 6G23G21G26G17G30G10
  23558457.648    -2048613.62549  -1586701.00945  23558456.780    23558465.097
       216.000         157.000
  20539837.728    -2203962.47249  -1579567.57547  20539837.706    20539843.570
       241.000         209.000
  21035261.904   -16242970.82349 -12627872.48147  21035261.561    21035267.928
       243.000         210.000
  24566430.468    -3968791.06749  -2834168.18845  24566429.685    24566437.815
       212.000         138.000
  21712304.892   -10107646.96149  -7857793.66046  21712305.054    21712311.119
       230.000         186.000
  21088117.995    -8595964.41349  -6685329.29047  21088117.580    21088123.631
       241.000         207.000
  24588190.749    17210129.58749  13283020.50345  24588192.069    24588198.665
       209.000         144.000
  24516946.322    17436025.11349  13578696.74645  24516945.642    24516954.139
       206.000         139.000
 01  2  9  3 22  0.0000000  0  8G22G 6G23G21G26G17G30G10
  23557046.731    -2056027.97949  -1592478.38545  23557046.616    23557052.728
       215.000         157.000
  20547328.720    -2164597.15849  -1548893.32147  20547328.920    20547334.569
       242.000         209.000
  21028086.120   -16280679.65449 -12657255.94947  21028085.729    21028092.309
       243.000         210.000
  24549964.864    -4055317.89449  -2901591.56245  24549965.233    24549972.403
       211.000         138.000
  21710252.323   -10118433.12549  -7866198.42446  21710252.585    21710258.518
       231.000         186.000
  21083954.498    -8617843.62849  -6702377.99747  21083954.242    21083960.463
       241.000         207.000
  24607151.859    17309770.64749  13360662.86145  24607151.364    24607159.029
       208.000         143.000
  24536562.822    17539110.51349  13659023.04345  24536562.261    24536569.995
       207.000         138.000
 01  2  9  3 22 30.0000000  0  8G22G 6G23G21G26G17G30G10
  23555734.047    -2062925.89349  -1597853.33845  23555733.405    23555740.656
       216.000         157.000
  20554912.282    -2124745.27649  -1517839.91047  20554912.500    20554918.158
       241.000         209.000
  21020990.599   -16317966.72449 -12686310.76647  21020990.271    21020996.756
       243.000         210.000
  24533532.018    -4141672.68049  -2968880.88145  24533531.809    24533541.029
       210.000         138.000
  21708316.783   -10128604.23549  -7874123.91446  21708317.035    21708323.011
       231.000         186.000
  21079819.501    -8639573.06349  -6719309.98247  21079819.115    21079825.201
       240.000         208.000
  24626095.302    17409319.06849  13438233.02245  24626095.249    24626103.835
       207.000         143.000
  24556179.357    17642196.19149  13739349.58145  24556177.112    24556186.650
       204.000         138.000
 01  2  9  3 23  0.0000000  0  8G22G 6G23G21G26G17G30G10
  23554519.873    -2069306.32349  -1602825.06745  23554519.545    23554526.992
       215.000         156.000
  20562588.732    -2084405.20949  -1486406.08947  20562588.806    20562594.729
       242.000         209.000
  21013975.684   -16354830.22849 -12715035.53847  21013975.158    21013981.865
       243.000         211.000
  24517132.236    -4227853.41949  -3036034.59645  24517131.483    24517140.092
       213.000         139.000
  21706498.796   -10138157.61149  -7881568.06646  21706499.003    21706504.825
       231.000         186.000
  21075713.357    -8661150.91349  -6736123.85347  21075712.978    21075719.308
       241.000         208.000
  24645020.941    17508774.03049  13515730.34545  24645021.207    24645029.169
       204.000         142.000
  24575795.931    17745282.00749  13819676.19945  24575796.070    24575801.347
       201.000         137.000
 01  2  9  3 23 30.0000000  0  8G22G 6G23G21G26G17G30G10
  23553403.732    -2075171.48949  -1607395.29045  23553403.358    23553410.563
       215.000         156.000
  20570357.781    -2043578.69749  -1454593.21447  20570357.718    20570363.568
       241.000         208.000
  21007041.085   -16391271.65449 -12743431.41747  21007040.688    21007047.110
       243.000         211.000
  24500765.595    -4313860.04349  -3103052.62745  24500765.303    24500772.943
       211.000         139.000
  21704798.285   -10147093.66549  -7888531.18546  21704798.221    21704803.844
       231.000         186.000
  21071635.796    -8682578.48749  -6752820.63247  21071635.380    21071641.645
       240.000         208.000
  24663928.083    17608131.57049  13593151.77045  24663928.398    24663936.092
       202.000         141.000
  24595411.806    17848364.56149  13900000.26945  24595410.741    24595418.683
       201.000         137.000
 01  2  9  3 24  0.0000000  0  8G22G 6G23G21G26G17G30G10
  23552385.765    -2080520.82249  -1611563.55345  23552385.353    23552392.826
       217.000         157.000
  20578219.438    -2002265.34749  -1422400.98947  20578219.475    20578225.421
       242.000         208.000
  21000186.893   -16427290.44049 -12771497.96847  21000186.593    21000193.001
       243.000         211.000
  24484432.498    -4399690.48749  -3169933.39145  24484431.771    24484441.294
       212.000         140.000
  21703215.557   -10155410.82449  -7895012.04846  21703215.916    21703221.598
       231.000         186.000
  21067587.021    -8703854.76249  -6769399.51647  21067586.563    21067592.743
       241.000         208.000
  24682816.268    17707389.74349  13670495.72745  24682816.012    24682823.934
       201.000         140.000
  24615026.864    17951442.65149  13980320.85945  24615026.672    24615032.972
       199.000         136.000
 01  2  9  3 24 30.0000000  0  8G22G 6G23G21G26G17G30G10
  23551465.798    -2085355.04949  -1615330.45045  23551465.200    23551472.528
       215.000         156.000
  20586173.551    -1960466.13149  -1389830.17047  20586173.449    20586179.510
       241.000         208.000
  20993413.003   -16462887.41449 -12799235.83047  20993412.693    20993419.129
       243.000         211.000
  24468132.932    -4485344.85549  -3236676.93945  24468132.504    24468141.238
       211.000         140.000
  21701750.659   -10163108.79349  -7901010.42746  21701750.711    21701756.917
       231.000         186.000
  21063566.953    -8724980.16949  -6785860.83747  21063566.406    21063572.787
       241.000         208.000
  24701684.966    17806545.41249  13747759.81845  24701684.290    24701693.781
       198.000         140.000
  24634640.776    18054514.29549  14060636.42445  24634639.994    24634648.834
       198.000         136.000
 01  2  9  3 25  0.0000000  0  8G22G 6G23G21G26G17G30G10
  23550644.007    -2089673.32849  -1618695.31345  23550643.829    23550650.428
       216.000         156.000
  20594220.332    -1918180.03849  -1356879.98047  20594220.538    20594226.199
       241.000         208.000
  20986719.634   -16498061.09549 -12826643.85847  20986719.257    20986725.717
       243.000         211.000
  24451867.384    -4570820.42249  -3303281.15845  24451866.575    24451874.907
       211.000         140.000
  21700404.008   -10170185.32849  -7906524.57546  21700403.923    21700410.261
       231.000         186.000
  21059575.942    -8745952.96749  -6802203.24747  21059575.569    21059581.615
       241.000         208.000
  24720533.994    17905597.61749  13824943.29645  24720533.831    24720541.917
       196.000         138.000
  24654253.347    18157578.82049  14140946.45245  24654253.046    24654260.278
       200.000         137.000
 01  2  9  3 25 30.0000000  0  8G22G 6G23G21G26G17G30G10
  23549919.872    -2093478.68249  -1621660.49545  23549919.890    23549926.577
       216.000         156.000
  20602359.306    -1875409.50649  -1323552.29847  20602359.363    20602365.232
       241.000         208.000
  20980106.404   -16532813.68749 -12853723.76147  20980105.895    20980112.588
       243.000         211.000
  24435635.753    -4656117.67349  -3369746.43545  24435635.751    24435643.690
       212.000         140.000
  21699175.402   -10176641.49849  -7911555.32046  21699175.463    21699181.565
       231.000         186.000
  21055613.613    -8766775.04049  -6818428.21047  21055613.212    21055619.299
       241.000         208.000
  24739362.430    18004541.93249  13902042.70345  24739362.476    24739370.534
       196.000         138.000
  24673863.772    18260632.48249  14221247.99445  24673863.849    24673870.255
       201.000         136.000
 01  2  9  3 26  0.0000000  0  8G22G 6G23G21G26G17G30G10
  23549293.476    -2096770.17949  -1624225.26945  23549292.904    23549300.473
       216.000         156.000
  20610590.748    -1832153.13549  -1289846.03047  20610590.705    20610596.657
       241.000         208.000
  20973573.607   -16567143.74749 -12880474.41647  20973573.117    20973579.616
       243.000         211.000
  24419438.511    -4741234.32049  -3436070.97645  24419437.875    24419447.349
       210.000         142.000
  21698065.322   -10182474.94749  -7916100.82246  21698065.842    21698071.280
       231.000         186.000
  21051680.287    -8787444.67149  -6834534.37847  21051679.815    21051685.968
       240.000         208.000
  24758170.205    18103377.43149  13979057.31145  24758169.986    24758178.921
       198.000         138.000
  24693472.066    18363674.80949  14301540.73045  24693471.475    24693479.324
       202.000         138.000
 01  2  9  3 26 30.0000000  0  8G22G 6G23G21G26G17G30G10
  23548764.694    -2099548.82749  -1626390.41845  23548764.100    23548771.448
       216.000         156.000
  20618914.311    -1788412.47249  -1255762.39747  20618914.353    20618920.297
       241.000         208.000
  20967120.937   -16601052.46649 -12906896.75647  20967120.744    20967126.957
       243.000         211.000
  24403275.605    -4826170.53849  -3502254.93145  24403275.674    24403283.787
       210.000         141.000
  21697073.668   -10187685.91249  -7920161.27846  21697073.978    21697080.078
       231.000         186.000
  21047775.791    -8807962.82449  -6850522.51747  21047775.408    21047781.706
       241.000         208.000
  24776956.558    18202100.43149  14055984.25445  24776956.360    24776965.579
       198.000         138.000
  24713077.781    18466703.19349  14381822.59245  24713077.303    24713084.525
       202.000         138.000
 01  2  9  3 27  0.0000000  0  8G22G 6G23G21G26G17G30G10
  23548333.617    -2101814.24149  -1628155.65245  23548333.718    23548340.873
       216.000         156.000
  20627330.118    -1744187.01449  -1221301.00647  20627330.156    20627336.060
       241.000         208.000
  20960748.632   -16634539.10149 -12932990.19747  20960748.176    20960754.836
       243.000         211.000
  24387147.407    -4910924.16249  -3568296.58745  24387146.959    24387155.319
       208.000         142.000
  21696200.839   -10192272.70649  -7923735.37346  21696200.893    21696206.815
       232.000         186.000
  21043900.348    -8828328.29349  -6866391.68747  21043900.051    21043906.134
       241.000         208.000
  24795721.305    18300709.43049  14132822.35945  24795722.798    24795730.107
       199.000         139.000
  24732680.584    18569716.80749  14462092.94445  24732680.042    24732686.687
       201.000         140.000
 01  2  9  3 27 30.0000000  0  7G22G 6G23G21G26G17G30
  23547999.821    -2103568.12749  -1629522.29345  23547999.119    23548006.013
       214.000         156.000
  20635837.941    -1699478.24249  -1186463.01047  20635837.937    20635843.787
       241.000         208.000
  20954456.404   -16667604.77049 -12958755.61547  20954455.982    20954462.319
       243.000         211.000
  24371053.956    -4995495.28649  -3634196.04445  24371053.741    24371061.802
       209.000         142.000
  21695446.640   -10196235.63249  -7926823.33046  21695446.435    21695452.568
       231.000         186.000
  21040053.837    -8848541.67049  -6882142.34747  21040053.354    21040059.430
       241.000         208.000
  24814463.722    18399201.23049  14209569.14445  24814464.833    24814472.827
       200.000         139.000
 01  2  9  3 28  0.0000000  0  6G22G 6G23G21G26G17
  23547763.568    -2104809.41749  -1630489.50345  23547763.303    23547770.250
       214.000         157.000
  20644438.055    -1654284.40049  -1151247.03147  20644438.143    20644443.916
       241.000         208.000
  20948244.681   -16700247.54549 -12984191.49947  20948244.342    20948250.700
       243.000         211.000
  24354995.865    -5079880.62749  -3699950.74745  24354995.447    24355003.238
       208.000         142.000
  21694811.785   -10199571.63349  -7929422.77746  21694811.954    21694817.885
       232.000         186.000
  21036236.751    -8868600.51749  -6897772.58947  21036236.367    21036242.621
       241.000         208.000
 01  2  9  3 28 30.0000000  0  6G22G 6G23G21G26G17
  23547624.720    -2105539.15149  -1631058.10045  23547624.079    23547630.989
       217.000         156.000
  20653130.258    -1608606.60349  -1115653.94447  20653130.235    20653136.147
       241.000         207.000
  20942113.237   -16732468.27049 -13009298.51547  20942112.867    20942119.121
       243.000         211.000
  24338973.140    -5164080.05049  -3765560.56645  24338971.990    24338980.687
       207.000         142.000
  21694296.235   -10202280.74649  -7931533.73546  21694296.371    21694301.923
       232.000         186.000
  21032449.040    -8888505.00749  -6913282.55047  21032448.639    21032454.880
       241.000         208.000
 01  2  9  3 29  0.0000000  0  6G22G 6G23G21G26G17
  23547582.789    -2105759.57749  -1631229.82345  23547582.048    23547590.095
       214.000         156.000
  20661914.068    -1562447.42149  -1079685.75647  20661914.095    20661919.919
       241.000         207.000
  20936061.709   -16764269.11249 -13034078.34747  20936061.316    20936067.713
       243.000         211.000
  24322985.791    -5248093.74249  -3831025.66345  24322984.688    24322992.989
       206.000         142.000
  21693899.716   -10204364.39549  -7933157.32946  21693900.225    21693905.682
       231.000         186.000
  21028690.332    -8908256.96049  -6928673.64947  21028689.841    21028696.002
       241.000         208.000
 01  2  9  3 29 30.0000000  0  6G22G 6G23G21G26G17
  23547637.555    -2105471.53849  -1631005.34845  23547637.000    23547644.861
       217.000         156.000
  20670789.394    -1515807.35849  -1043342.85747  20670789.330    20670795.336
       241.000         207.000
  20930090.023   -16795650.31549 -13058531.19247  20930089.780    20930095.969
       243.000         211.000
  24307033.817    -5331921.47149  -3896345.86245  24307033.841    24307041.770
       206.000         143.000
  21693622.281   -10205822.07649  -7934293.15246  21693622.678    21693628.345
       231.000         186.000
  21024960.711    -8927856.22749  -6943945.77747  21024960.393    21024966.414
       241.000         208.000
 01  2  9  3 30  0.0000000  0  6G22G 6G23G21G26G17
  23547788.869    -2104676.21049  -1630385.57245  23547788.155    23547796.101
       215.000         156.000
  20679756.024    -1468687.34649  -1006625.96547  20679756.003    20679761.961
       241.000         207.000
  20924198.092   -16826612.41249 -13082657.46147  20924197.779    20924203.963
       243.000         211.000
  24291117.426    -5415562.13649  -3961520.29445  24291116.660    24291124.696
       206.000         144.000
  21693464.083   -10206653.28849  -7934940.81246  21693464.327    21693469.958
       231.000         186.000
  21021260.141    -8947302.79149  -6959098.91447  21021259.935    21021265.957
       241.000         208.000
 01  2  9  3 30 30.0000000  0  6G22G 6G23G21G26G17
  23548036.674    -2103373.78349  -1629370.64645  23548036.444    23548044.352
       215.000         156.000
  20688814.115    -1421086.80149   -969534.62847  20688814.202    20688819.933
       241.000         207.000
  20918386.067   -16857154.69049 -13106456.59847  20918385.673    20918391.915
       243.000         211.000
  24275236.923    -5499014.30249  -4026547.85245  24275236.144    24275244.465
       207.000         145.000
  21693425.374   -10206856.52249  -7935099.14346  21693425.444    21693430.924
       232.000         186.000
  21017588.828    -8966595.56549  -6974132.21347  21017588.406    21017594.432
       241.000         208.000
 01  2  9  3 31  0.0000000  0  6G22G 6G23G21G26G17
  23548381.110    -2101563.72849  -1627960.17245  23548379.766    23548388.313
       214.000         156.000
  20697963.700    -1373005.50549   -932068.68647  20697963.688    20697969.634
       241.000         207.000
  20912654.008   -16887276.75349 -13129928.29947  20912653.731    20912660.122
       243.000         211.000
  24259392.628    -5582276.17049  -4091427.14045  24259392.532    24259400.460
       208.000         145.000
  21693506.388   -10206430.59249  -7934767.21846  21693506.538    21693512.397
       231.000         186.000
  21013946.981    -8985733.46949  -6989044.83847  21013946.677    21013952.711
       241.000         208.000
 01  2  9  3 31 30.0000000  0  6G22G 6G23G21G26G17
  23548821.671    -2099248.21649  -1626155.82845  23548821.060    23548828.257
       216.000         156.000
  20707204.306    -1324445.68649   -894229.86747  20707204.461    20707210.294
       241.000         207.000
  20907001.538   -16916980.51249 -13153074.04547  20907001.144    20907007.367
       243.000         212.000
  24243584.437    -5665348.39749  -4156158.65645  24243583.966    24243592.087
       208.000         147.000
  21693706.979   -10205376.49249  -7933945.80546  21693707.279    21693712.573
       231.000         186.000
  21010334.348    -9004717.77449  -7003837.77847  21010333.968    21010339.993
       241.000         208.000
 01  2  9  3 32  0.0000000  0  6G22G 6G23G21G26G17
  23549358.365    -2096427.75949  -1623958.00745  23549357.149    23549365.072
       215.000         156.000
  20716535.927    -1275407.61749   -856018.38647  20716536.011    20716541.926
       241.000         207.000
  20901428.700   -16946265.86749 -13175893.76247  20901428.392    20901434.767
       243.000         212.000
  24227812.607    -5748229.47349  -4220741.24345  24227812.454    24227820.548
       209.000         148.000
  21694027.221   -10203693.51149  -7932634.35846  21694027.427    21694032.903
       231.000         186.000
  21006751.119    -9023547.78449  -7018510.48347  21006750.939    21006756.920
       241.000         208.000
 01  2  9  3 32 30.0000000  0  6G22G 6G23G21G26G17
  23549990.921    -2093103.26549  -1621367.43545  23549989.561    23549997.923
       215.000         155.000
  20725958.532    -1225891.60449   -817434.48847  20725958.577    20725964.475
       241.000         206.000
  20895935.495   -16975132.59749 -13198387.28147  20895934.995    20895941.214
       243.000         212.000
  24212077.565    -5830917.34949  -4285173.27945  24212077.218    24212084.871
       210.000         149.000
  21694467.299   -10201380.59949  -7930832.04946  21694467.762    21694473.387
       231.000         186.000
  21003197.373    -9042222.69049  -7033062.33247  21003197.259    21003203.152
       241.000         208.000
 01  2  9  3 33  0.0000000  0  6G22G 6G23G21G26G17
  23550719.286    -2089275.56649  -1618384.75645  23550718.297    23550726.551
       215.000         156.000
  20735471.939    -1175898.32649   -778478.69447  20735471.892    20735477.737
       241.000         206.000
  20890521.869   -17003581.22949 -13220555.01247  20890521.523    20890527.901
       244.000         212.000
  24196379.417    -5913411.42849  -4349454.31745  24196379.155    24196387.300
       211.000         150.000
  21695027.342   -10198437.50449  -7928538.69746  21695027.745    21695033.218
       232.000         186.000
  20999673.189    -9060742.31749  -7047493.18347  20999672.779    20999678.797
       241.000         208.000
 01  2  9  3 33 30.0000000  0  6G22G 6G23G21G26G17
  23551543.319    -2084945.07649  -1615010.29945  23551542.456    23551549.860
       215.000         156.000
  20745076.056    -1125428.31549   -739151.41747  20745076.013    20745082.050
       240.000         206.000
  20885187.751   -17031612.03949 -13242397.16547  20885187.406    20885193.650
       243.000         212.000
  24180718.215    -5995711.37149  -4413584.08345  24180717.188    24180726.436
       212.000         151.000
  21695707.335   -10194863.99349  -7925754.11246  21695707.734    21695713.829
       231.000         186.000
  20996178.614    -9079106.22449  -7061802.69647  20996178.368    20996184.345
       241.000         209.000
 01  2  9  3 34  0.0000000  0  6G22G 6G23G21G26G17
  23552462.796    -2080113.15649  -1611245.11445  23552461.260    23552469.438
       215.000         156.000
  20754770.639    -1074482.91849   -699453.70247  20754770.641    20754776.375
       240.000         206.000
  20879932.941   -17059226.16749 -13263914.62847  20879932.643    20879938.846
       243.000         212.000
  24165094.131    -6077816.49649  -4477562.04445  24165093.924    24165101.599
       213.000         152.000
  21696507.271   -10190660.14949  -7922478.35346  21696507.670    21696513.095
       231.000         186.000
  20992713.654    -9097314.70949  -7075991.09847  20992713.277    20992719.121
       241.000         209.000
 01  2  9  3 34 30.0000000  0  6G22G 6G23G21G26G17
  23553477.345    -2074781.13149  -1607090.22645  23553476.867    23553484.045
       214.000         156.000
  20764555.541    -1023062.83149   -659386.09947  20764555.627    20764561.337
       241.000         206.000
  20874757.303   -17086424.13449 -13285107.81147  20874756.996    20874763.260
       243.000         212.000
  24149507.262    -6159725.92749  -4541387.52645  24149506.455    24149514.794
       214.000         153.000
  21697427.212   -10185825.70149  -7918711.22446  21697427.164    21697432.979
       231.000         186.000
  20989278.297    -9115367.43449  -7090058.12147  20989277.925    20989283.969
       241.000         208.000
 01  2  9  3 35  0.0000000  0  6G22G 6G23G21G26G17
  23554587.172    -2068948.79749  -1602545.49845  23554586.099    23554594.316
       215.000         156.000
  20774430.948     -971167.21149   -618947.95447  20774430.791    20774436.854
       240.000         206.000
  20869661.100   -17113204.73949 -13305975.77347  20869660.824    20869666.994
       243.000         212.000
  24133957.953    -6241437.90249  -4605059.13845  24133957.599    24133965.156
       213.000         154.000
  21698467.489   -10180358.90649  -7914451.35446  21698467.833    21698473.319
       231.000         186.000
  20985872.972    -9133262.54049  -7104002.32947  20985872.553    20985878.604
       241.000         209.000
 01  2  9  3 35 30.0000000  0  6G22G 6G23G21G26G17
  23555791.897    -2062617.75849  -1597612.16745  23555792.104    23555798.272
       214.000         156.000
  20784396.515     -918797.89249   -578140.69247  20784396.552    20784402.289
       240.000         205.000
  20864644.026   -17139569.36849 -13326519.59547  20864643.618    20864649.843
       243.000         212.000
  24118446.361    -6322951.77849  -4668576.40145  24118446.727    24118453.593
       214.000         154.000
  21699627.954   -10174260.43949  -7909699.27346  21699628.180    21699633.671
       231.000         186.000
  20982497.483    -9151000.71449  -7117824.25247  20982497.249    20982503.121
       241.000         209.000
 01  2  9  3 36  0.0000000  0  6G22G 6G23G21G26G17
  23557091.113    -2055790.13349  -1592291.88945  23557089.396    23557097.461
       215.000         156.000
  20794451.750     -865957.18249   -536966.11147  20794451.801    20794457.691
       240.000         205.000
  20859705.778   -17165519.99049 -13346740.82247  20859705.317    20859711.442
       243.000         212.000
  24102972.283    -6404268.50949  -4731940.03545  24102971.710    24102979.737
       214.000         154.000
  21700908.365   -10167531.77049  -7904456.12546  21700908.354    21700914.279
       231.000         186.000
  20979151.588    -9168583.28149  -7131524.92747  20979151.146    20979157.180
       241.000         209.000
 01  2  9  3 36 30.0000000  0  6G22G 6G23G21G26G17
  23558485.092    -2048464.52149  -1586583.57045  23558484.271    23558492.153
       215.000         156.000
  20804597.041     -812643.30749   -495422.82847  20804597.227    20804602.792
       240.000         205.000
  20854846.694   -17191054.43349 -13366637.75347  20854846.250    20854852.338
       243.000         212.000
  24087536.342    -6485384.71049  -4795147.42445  24087536.146    24087544.020
       215.000         154.000
  21702309.231   -10160170.01449  -7898719.66746  21702309.884    21702315.279
       231.000         186.000
  20975835.912    -9186007.27349  -7145102.03947  20975835.381    20975841.544
       241.000         209.000
 01  2  9  3 37  0.0000000  0  6G22G 6G23G21G26G17
  23559973.394    -2040643.18849  -1580488.96845  23559972.920    23559979.993
       214.000         156.000
  20814832.038     -758858.08749   -453512.26547  20814832.202    20814837.886
       240.000         205.000
  20850066.580   -17216174.01949 -13386211.41747  20850066.299    20850072.481
       243.000         212.000
  24072138.566    -6566300.29249  -4858198.46645  24072138.325    24072146.332
       216.000         155.000
  21703830.448   -10152175.95549  -7892490.49746  21703830.791    21703835.928
       231.000         186.000
  20972550.279    -9203273.20949  -7158555.99247  20972549.956    20972555.911
       241.000         209.000
 01  2  9  3 37 30.0000000  0  6G22G 6G23G21G26G17
  23561555.577    -2032328.37449  -1574009.84845  23561554.685    23561562.856
       214.000         155.000
  20825156.398     -704603.18649   -411235.71847  20825156.424    20825162.299
       240.000         205.000
  20845365.127   -17240880.20249 -13405462.94947  20845364.714    20845370.959
       243.000         212.000
  24056778.981    -6647015.38849  -4921093.29845  24056778.849    24056787.321
       216.000         155.000
  21705471.779   -10143550.47849  -7885769.31946  21705471.974    21705477.532
       231.000         186.000
  20969294.625    -9220381.68049  -7171887.24247  20969294.270    20969300.106
       241.000         209.000
 01  2  9  3 38  0.0000000  0  6G22G 6G23G21G26G17
  23563231.783    -2023519.48949  -1567145.72245  23563231.634    23563237.624
       214.000         155.000
  20835570.205     -649878.29649   -368592.94847  20835570.135    20835575.871
       240.000         205.000
  20840742.436   -17265172.48949 -13424391.96747  20840742.214    20840748.087
       243.000         212.000
  24041457.976    -6727527.63049  -4983830.05945  24041458.555    24041465.949
       217.000         155.000
  21707233.565   -10134292.26749  -7878555.09746  21707233.975    21707239.505
       231.000         186.000
  20966069.229    -9237331.24349  -7185094.66547  20966068.833    20966074.644
       241.000         209.000
 01  2  9  3 38 30.0000000  0  6G22G 6G23G21G26G17
  23565001.862    -2014217.66249  -1559897.48545  23565001.279    23565008.387
       214.000         155.000
  20846073.225     -594684.49649   -325584.79847  20846073.304    20846078.985
       240.000         204.000
  20836198.348   -17289051.68449 -13442999.09847  20836198.020    20836204.029
       243.000         212.000
  24026175.598    -6807836.94149  -5046408.69245  24026175.165    24026183.089
       217.000         154.000
  21709115.677   -10124401.44249  -7870847.94046  21709116.252    21709121.693
       231.000         186.000
  20962874.109    -9254121.61449  -7198178.04847  20962873.794    20962879.668
       241.000         209.000
 01  2  9  3 39  0.0000000  0  6G22G 6G23G21G26G17
  23566865.192    -2004425.72049  -1552267.33745  23566864.459    23566871.697
       215.000         155.000
  20856665.029     -539024.27549   -282213.20247  20856665.211    20856671.012
       239.000         204.000
  20831732.487   -17312519.78349 -13461285.88747  20831732.222    20831738.401
       243.000         212.000
  24010931.640    -6887944.13549  -5108829.82445  24010931.948    24010939.648
       216.000         154.000
  21711117.900   -10113879.68049  -7862649.12946  21711118.326    21711123.759
       232.000         186.000
  20959709.076    -9270753.87349  -7211138.22547  20959708.646    20959714.737
       241.000         209.000
 01  2  9  3 39 30.0000000  0  6G22G 6G23G21G26G17
  23568821.753    -1994143.70949  -1544255.32445  23568821.025    23568827.602
       213.000         155.000
  20867345.718     -482896.81249   -238477.51947  20867345.677    20867351.622
       239.000         204.000
  20827345.060   -17335575.75449 -13479251.54248  20827344.699    20827350.896
       244.000         213.000
  23995726.692    -6967846.41949  -5171091.28945  23995726.534    23995733.519
       215.000         154.000
  21713240.471   -10102725.24849  -7853957.33746  21713240.886    21713246.428
       231.000         186.000
  20956574.483    -9287226.15049  -7223973.74147  20956574.016    20956579.942
       241.000         209.000
 01  2  9  3 40  0.0000000  0  6G22G 6G23G21G26G17
  23570871.533    -1983371.53449  -1535861.35845  23570871.275    23570878.036
       215.000         155.000
  20878115.376     -426301.96049   -194377.63147  20878115.631    20878121.181
       240.000         204.000
  20823036.168   -17358218.93449 -13496895.53948  20823035.722    20823041.928
       243.000         213.000
  23980561.010    -7047542.45649  -5233192.03845  23980560.903    23980568.514
       216.000         154.000
  21715483.699   -10090937.12749  -7844771.75746  21715483.933    21715489.032
       231.000         186.000
  20953470.627    -9303536.88949  -7236683.37947  20953470.144    20953476.244
       241.000         209.000
 01  2  9  3 40 30.0000000  0  6G22G 6G23G21G26G17
  23573014.038    -1972112.25949  -1527087.83045  23573012.843    23573020.948
       215.000         155.000
  20888973.339     -369242.92849   -149916.04647  20888973.275    20888979.255
       239.000         204.000
  20818805.281   -17380452.27649 -13514220.18648  20818804.841    20818810.894
       244.000         213.000
  23965434.388    -7127033.19949  -5295132.81745  23965434.065    23965441.239
       214.000         153.000
  21717846.998   -10078517.68449  -7835094.24246  21717847.347    21717852.777
       231.000         186.000
  20950397.149    -9319688.05649  -7249268.67947  20950396.672    20950402.702
       241.000         209.000
 01  2  9  3 41  0.0000000  0  6G22G 6G23G21G26G17
  23575249.117    -1960366.82649  -1517935.49245  23575248.545    23575255.841
       215.000         155.000
  20899919.437     -311720.77449   -105093.58347  20899919.567    20899925.450
       239.000         204.000
  20814652.301   -17402276.18049 -13531225.78748  20814651.906    20814658.019
       244.000         213.000
  23950347.071    -7206317.23849  -5356912.51845  23950346.860    23950354.077
       215.000         152.000
  21720330.444   -10065466.96749  -7824924.82946  21720330.468    21720336.107
       231.000         185.000
  20947354.144    -9335679.08349  -7261729.19247  20947353.899    20947359.731
       241.000         209.000
 01  2  9  3 41 30.0000000  0  6G22G 6G23G21G26G17
  23577576.722    -1948135.08449  -1508404.20445  23577576.044    23577583.638
       215.000         156.000
  20910953.798     -253734.79549    -59909.70447  20910953.848    20910959.709
       239.000         203.000
  20810577.429   -17423689.66949 -13547911.58748  20810577.097    20810583.179
       244.000         213.000
  23935299.415    -7285392.95949  -5418529.89945  23935297.818    23935306.856
       214.000         152.000
  21722934.321   -10051783.31249  -7814262.21346  21722934.615    21722940.278
       231.000         185.000
  20944341.976    -9351507.98349  -7274063.37347  20944341.584    20944347.501
       241.000         209.000
 01  2  9  3 42  0.0000000  0  6G22G 6G23G21G26G17
  23579996.195    -1935420.36749  -1498496.57045  23579995.339    23580002.515
       215.000         156.000
  20922075.986     -195287.34049    -14366.23047  20922075.788    20922081.935
       239.000         203.000
  20806580.236   -17444694.96449 -13564279.31448  20806579.845    20806585.948
       244.000         213.000
  23920291.264    -7364260.98249  -5479985.43045  23920290.358    23920298.082
       215.000         151.000
  21725658.337   -10037468.43049  -7803107.73646  21725658.560    21725663.946
       231.000         185.000
  20941360.472    -9367175.73149  -7286271.98247  20941360.118    20941366.168
       241.000         209.000
 01  2  9  3 42 30.0000000  0  6G22G 6G23G21G26G17
  23582507.610    -1922222.40949  -1488212.39745  23582507.030    23582513.783
       214.000         156.000
  20933285.964     -136378.49749     31536.77247  20933286.108    20933291.898
       239.000         203.000
  20802660.749   -17465291.83449 -13580328.78548  20802660.388    20802666.533
       243.000         213.000
  23905322.972    -7442919.48049  -5541277.70945  23905322.080    23905329.794
       214.000         152.000
  21728502.638   -10022521.43849  -7791460.70546  21728502.691    21728508.629
       230.000         185.000
  20938409.914    -9382680.91349  -7298353.91947  20938409.621    20938415.482
       241.000         209.000
 01  2  9  3 43  0.0000000  0  6G22G 6G23G21G26G17
  23585110.543    -1908543.48249  -1477553.44645  23585110.218    23585117.038
       215.000         156.000
  20944583.307      -77010.60349     77797.47147  20944583.367    20944588.799
       239.000         203.000
  20798818.700   -17485481.84749 -13596061.22948  20798818.338    20798824.459
       244.000         213.000
  23890394.448    -7521369.09549  -5602407.20645  23890393.255    23890401.443
       215.000         152.000
  21731466.939   -10006943.90849  -7779322.34546  21731466.799    21731472.368
       231.000         185.000
  20935490.105    -9398024.46949  -7310309.91247  20935489.762    20935495.864
       241.000         209.000
 01  2  9  3 43 30.0000000  0  6G22G 6G23G21G26G17
  23587805.221    -1894383.05349  -1466519.31645  23587804.663    23587812.736
       216.000         156.000
  20955968.158      -17182.86049    124416.49147  20955968.075    20955973.859
       239.000         203.000
  20795054.281   -17505263.89849 -13611475.77848  20795053.904    20795059.992
       244.000         213.000
  23875506.145    -7599607.32049  -5663371.98745  23875506.311    23875513.447
       215.000         151.000
  21734551.511    -9990734.18149  -7766691.36746  21734551.843    21734557.397
       230.000         185.000
  20932601.491    -9413204.04449  -7322138.13347  20932601.112    20932607.018
       241.000         209.000
 01  2  9  3 44  0.0000000  0  6G22G 6G23G21G26G17
  23590590.762    -1879745.01249  -1455113.00745  23590589.675    23590597.016
       216.000         155.000
  20967439.921       43101.71649    171391.48447  20967439.903    20967445.619
       239.000         202.000
  20791366.944   -17524640.69549 -13626574.54548  20791366.636    20791372.623
       244.000         213.000
  23860657.922    -7677634.96949  -5724172.68745  23860657.740    23860665.929
       215.000         152.000
  21737755.998    -9973894.47949  -7753569.49846  21737756.474    21737761.114
       230.000         185.000
  20929743.835    -9428221.17949  -7333839.77847  20929743.610    20929749.326
       241.000         209.000
 01  2  9  3 44 30.0000000  0  6G22G 6G23G21G26G17
  23593467.079    -1864629.53249  -1443334.66945  23593465.913    23593472.805
       215.000         156.000
  20978998.624      103843.10249    218722.43647  20978998.671    20979004.522
       239.000         202.000
  20787756.844   -17543611.84549 -13641357.22148  20787756.356    20787762.478
       244.000         213.000
  23845850.056    -7755450.50149  -5784808.10045  23845849.432    23845856.434
       215.000         152.000
  21741080.460    -9956424.14149  -7739956.22846  21741080.723    21741086.007
       231.000         185.000
  20926917.317    -9443074.47049  -7345413.75247  20926916.987    20926922.911
       241.000         209.000
 01  2  9  3 45  0.0000000  0  6G22G 6G23G21G26G17
  23596434.079    -1849037.63149  -1431185.10945  23596433.109    23596440.908
       215.000         155.000
  20990644.017      165040.15549    266408.45547  20990643.960    20990649.971
       239.000         202.000
  20784223.781   -17562178.09549 -13655824.39248  20784223.452    20784229.394
       244.000         213.000
  23831082.606    -7833053.51549  -5845277.91545  23831082.825    23831089.649
       214.000         153.000
  21744524.926    -9938323.39149  -7725851.72246  21744525.158    21744530.327
       230.000         185.000
  20924122.106    -9457763.38649  -7356859.63947  20924121.722    20924127.675
       241.000         209.000
 01  2  9  3 45 30.0000000  0  6G22G 6G23G21G26G17
  23599491.504    -1832970.35149  -1418665.11345  23599491.142    23599498.382
       215.000         156.000
  21002375.976      226691.95149    314448.81447  21002376.038    21002381.810
       239.000         202.000
  20780767.624   -17580340.14749 -13669976.60348  20780767.234    20780773.310
       244.000         213.000
  23816355.790    -7910443.30049  -5905581.58045  23816354.411    23816362.079
       215.000         153.000
  21748089.280    -9919592.43649  -7711256.15346  21748089.571    21748094.961
       230.000         185.000
  20921358.322    -9472287.13949  -7368176.82647  20921358.025    20921363.737
       241.000         209.000
 01  2  9  3 46  0.0000000  0  6G22G 6G23G21G26G17
  23602638.953    -1816430.08449  -1405776.57645  23602638.124    23602646.031
       216.000         156.000
  21014194.080      288796.45549    362841.93247  21014194.186    21014200.016
       239.000         202.000
  20777388.127   -17598099.42249 -13683814.96548  20777387.644    20777393.657
       244.000         213.000
  23801669.633    -7987619.20449  -5965718.58545  23801668.598    23801677.177
       214.000         153.000
  21751773.344    -9900232.52349  -7696170.48946  21751773.421    21751779.067
       230.000         185.000
  20918625.884    -9486646.06349  -7379365.57647  20918625.477    20918631.382
       241.000         209.000
 01  2  9  3 46 30.0000000  0  6G22G 6G23G21G26G17
  23605876.121    -1799418.73649  -1392520.95545  23605876.032    23605882.845
       214.000         156.000
  21026098.110      351352.61749    411586.99247  21026098.075    21026104.040
       239.000         202.000
  20774085.100   -17615456.66749 -13697340.05548  20774084.620    20774090.637
       244.000         213.000
  23787024.265    -8064580.74149  -6025688.56845  23787023.886    23787031.050
       215.000         154.000
  21755577.022    -9880244.00849  -7680595.00446  21755577.247    21755582.618
       230.000         185.000
  20915924.869    -9500839.84649  -7390425.64547  20915924.527    20915930.465
       241.000         209.000
 01  2  9  3 47  0.0000000  0  6G22G 6G23G21G26G17
  23609202.876    -1781936.63949  -1378898.51245  23609202.349    23609210.261
       216.000         156.000
  21038088.015      414360.00249    460683.65547  21038088.185    21038094.012
       239.000         201.000
  20770858.661   -17632411.70349 -13710551.73548  20770858.284    20770864.256
       244.000         213.000
  23772419.999    -8141326.28149  -6085490.22645  23772419.017    23772427.441
       214.000         155.000
  21759500.375    -9859626.56649  -7664529.43946  21759500.391    21759505.762
       230.000         185.000
  20913255.585    -9514867.03249  -7401355.89147  20913255.235    20913261.266
       241.000         209.000
 01  2  9  3 47 30.0000000  0  6G22G 6G23G21G26G17
  23612619.021    -1763984.74949  -1364909.99845  23612618.724    23612625.384
       215.000         155.000
  21050163.592      477817.58549    510131.11747  21050163.465    21050169.606
       238.000         201.000
  20767708.612   -17648965.13849 -13723450.47948  20767708.155    20767714.274
       244.000         213.000
  23757856.952    -8217855.50649  -6145123.33345  23757856.388    23757864.165
       214.000         155.000
  21763543.362    -9838380.49949  -7647974.04546  21763543.512    21763548.876
       231.000         185.000
  20910618.065    -9528727.10549  -7412155.92047  20910617.721    20910623.466
       241.000         209.000
 01  2  9  3 48  0.0000000  0  6G22G 6G23G21G26G17
  23616123.884    -1745566.98149  -1350558.47445  23616123.688    23616130.011
       215.000         156.000
  21062324.172      541721.80649    559926.61047  21062324.366    21062330.309
       238.000         201.000
  20764634.337   -17665120.35649 -13736038.92348  20764633.873    20764639.874
       244.000         213.000
  23743334.639    -8294170.28349  -6204589.33445  23743334.771    23743342.088
       215.000         155.000
  21767705.379    -9816508.80449  -7630931.14846  21767705.651    21767711.127
       230.000         185.000
  20908011.978    -9542422.16449  -7422827.36947  20908011.565    20908017.398
       241.000         209.000
 01  2  9  3 48 30.0000000  0  6G22G 6G23G21G26G17
  23619717.627    -1726681.88549  -1335842.78745  23619716.730    23619724.857
       214.000         156.000
  21074570.141      606074.82449    610071.82247  21074570.199    21074576.009
       238.000         201.000
  20761636.351   -17680874.78049 -13748315.06048  20761635.949    20761642.001
       244.000         213.000
  23728854.061    -8370266.16949  -6263884.76545  23728852.997    23728861.567
       213.000         156.000
  21771986.988    -9794008.66249  -7613398.55246  21771987.197    21771992.311
       231.000         185.000
  20905438.014    -9555948.33649  -7433367.21847  20905437.607    20905443.553
       241.000         209.000
 01  2  9  3 49  0.0000000  0  6G22G 6G23G21G26G17
  23623399.344    -1707333.66049  -1320766.22545  23623398.512    23623405.588
       215.000         156.000
  21086900.802      670872.79249    660563.74347  21086900.722    21086906.822
       238.000         201.000
  20758713.987   -17696231.67649 -13760281.43448  20758713.692    20758719.558
       244.000         213.000
  23714414.704    -8446145.25949  -6323011.26845  23714414.063    23714422.841
       216.000         157.000
  21776387.640    -9770882.96749  -7595378.50146  21776388.210    21776393.561
       230.000         185.000
  20902895.845    -9569307.35749  -7443776.81647  20902895.397    20902901.332
       241.000         209.000
 01  2  9  3 49 30.0000000  0  6G22G 6G23G21G26G17
  23627169.512    -1687520.89149  -1305327.67345  23627168.612    23627176.434
       216.000         156.000
  21099316.407      736117.24449    711403.57547  21099316.477    21099322.063
       238.000         201.000
  20755867.601   -17711189.46749 -13771936.82448  20755867.192    20755873.156
       243.000         213.000
  23700017.202    -8521804.23849  -6381966.25445  23700016.800    23700024.414
       217.000         157.000
  21780907.706    -9747129.93649  -7576869.62846  21780908.061    21780913.246
       230.000         185.000
  20900386.087    -9582496.23149  -7454053.83447  20900385.804    20900391.652
       241.000         209.000
 01  2  9  3 50  0.0000000  0  6G22G 6G23G21G26G17
  23631027.225    -1667247.98849  -1289530.57845  23631026.701    23631034.455
       215.000         155.000
  21111816.087      801803.55949    762587.71847  21111816.084    21111822.075
       238.000         200.000
  20753096.391   -17725752.01649 -13783284.23048  20753096.001    20753101.972
       244.000         213.000
  23685661.167    -8597245.78749  -6440751.81845  23685660.728    23685668.300
       217.000         158.000
  21785546.397    -9722753.21749  -7557874.76246  21785546.450    21785551.964
       230.000         185.000
  20897908.196    -9595517.51049  -7464200.26547  20897907.839    20897913.759
       241.000         209.000
 01  2  9  3 50 30.0000000  0  6G22G 6G23G21G26G17
  23634972.539    -1646514.88149  -1273374.88345  23634972.179    23634978.405
       215.000         156.000
  21124400.026      867932.44549    814116.72247  21124400.022    21124405.847
       238.000         200.000
  20750400.657   -17739918.14849 -13794322.74248  20750400.327    20750406.199
       244.000         213.000
  23671346.956    -8672467.28549  -6499365.90245  23671346.688    23671354.200
       218.000         159.000
  21790304.025    -9697751.60049  -7538392.96646  21790304.306    21790309.897
       230.000         185.000
  20895462.621    -9608368.91549  -7474214.32847  20895462.193    20895467.990
       241.000         209.000
 01  2  9  3 51  0.0000000  0  6G22G 6G23G21G26G17
  23639005.209    -1625323.85649  -1256862.36745  23639004.508    23639011.650
       216.000         156.000
  21137067.811      934502.11349    865989.18947  21137067.663    21137073.786
       237.000         200.000
  20747780.115   -17753689.03249 -13805053.26548  20747779.721    20747785.716
       244.000         213.000
  23657074.668    -8747468.60949  -6557808.41445  23657074.468    23657082.027
       217.000         160.000
  21795180.377    -9672126.13749  -7518425.05746  21795180.580    21795185.505
       230.000         185.000
  20893049.410    -9621050.30449  -7484095.91247  20893049.133    20893054.826
       241.000         209.000
 01  2  9  3 51 30.0000000  0  6G22G 6G23G21G26G17
  23643124.393    -1603676.79249  -1239994.50345  23643123.926    23643130.545
       215.000         156.000
  21149819.179     1001510.99749    918203.89847  21149819.215    21149825.181
       237.000         200.000
  20745234.584   -17767065.83749 -13815476.71648  20745234.183    20745240.225
       244.000         213.000
  23642844.336    -8822249.21249  -6616078.94045  23642844.010    23642852.011
       219.000         161.000
  21800175.270    -9645877.83949  -7497971.81746  21800175.423    21800181.063
       230.000         184.000
  20890668.624    -9633561.41749  -7493844.81147  20890668.361    20890674.117
       242.000         209.000
 01  2  9  3 52  0.0000000  0  6G22G 6G23G21G26G17
  23647330.487    -1581574.28849  -1222771.74945  23647329.654    23647337.033
       215.000         156.000
  21162653.971     1068958.37049    970760.28847  21162654.139    21162659.812
       237.000         199.000
  20742763.975   -17780048.88649 -13825593.34448  20742763.594    20742769.462
       243.000         213.000
  23628656.178    -8896808.35849  -6674176.89145  23628655.822    23628663.262
       219.000         161.000
  21805288.615    -9619006.90749  -7477033.41946  21805289.312    21805294.384
       230.000         184.000
  20888320.407    -9645901.18949  -7503460.19847  20888320.147    20888325.989
       241.000         209.000
 01  2  9  3 52 30.0000000  0  6G22G 6G23G21G26G17
  23651622.735    -1559017.71249  -1205195.18045  23651621.933    23651628.726
       215.000         156.000
  21175572.002     1136843.04849   1023657.43947  21175572.316    21175577.816
       238.000         199.000
  20740368.094   -17792639.10249 -13835403.87048  20740367.682    20740373.576
       244.000         213.000
  23614510.340    -8971145.08249  -6732101.52845  23614509.905    23614517.893
       218.000         162.000
  21810520.342    -9591513.81449  -7455610.21246  21810520.421    21810525.913
       230.000         184.000
  20886004.970    -9658068.88649  -7512941.49647  20886004.610    20886010.366
       242.000         209.000
 01  2  9  3 53  0.0000000  0  6G22G 6G23G21G26G17
  23656000.860    -1536010.40149  -1187267.38445  23656000.911    23656006.855
       215.000         156.000
  21188572.731     1205162.35149   1076893.26047  21188572.606    21188578.543
       238.000         199.000
  20738046.575   -17804838.58949 -13844909.93148  20738046.209    20738052.150
       244.000         213.000
  23600406.650    -9045260.15049  -6789853.44045  23600406.139    23600414.231
       219.000         162.000
  21815870.044    -9563400.71949  -7433703.88346  21815870.007    21815875.859
       230.000         184.000
  20883722.112    -9670065.19649  -7522289.24647  20883721.750    20883727.731
       241.000         210.000
 01  2  9  3 53 30.0000000  0  6G22G 6G23G21G26G17
  23660464.516    -1512553.63149  -1168989.36745  23660464.251    23660471.889
       215.000         156.000
  21201656.073     1273915.69149   1130467.28347  21201656.029    21201661.749
       237.000         199.000
  20735799.422   -17816647.49549 -13854111.64848  20735799.085    20735804.906
       245.000         213.000
  23586345.396    -9119152.12549  -6847431.51246  23586345.003    23586352.927
       219.000         163.000
  21821337.724    -9534667.69549  -7411314.50046  21821338.312    21821343.389
       230.000         184.000
  20881472.180    -9681888.68949  -7531502.34147  20881471.718    20881477.610
       242.000         210.000
 01  2  9  3 54  0.0000000  0  6G22G 6G23G21G26G17
  23665013.487    -1488648.58549  -1150362.03645  23665012.343    23665020.160
       215.000         156.000
  21214821.790     1343101.99849   1184378.68847  21214821.924    21214827.787
       237.000         198.000
  20733626.426   -17828066.49649 -13863009.53848  20733625.979    20733631.949
       244.000         213.000
  23572326.830    -9192819.88449  -6904834.88346  23572326.438    23572334.089
       219.000         163.000
  21826923.280    -9505315.36249  -7388442.53246  21826923.655    21826929.029
       230.000         184.000
  20879255.263    -9693538.59249  -7540580.16747  20879254.843    20879260.721
       242.000         209.000
 01  2  9  3 54 30.0000000  0  6G22G 6G23G21G26G17
  23669647.512    -1464296.51049  -1131386.37945  23669647.404    23669654.357
       215.000         156.000
  21228069.585     1412719.63049   1238626.18547  21228069.633    21228075.372
       237.000         198.000
  20731527.434   -17839096.67549 -13871604.45448  20731526.983    20731532.966
       244.000         213.000
  23558350.929    -9266263.34749  -6962063.46546  23558350.024    23558357.895
       219.000         164.000
  21832626.549    -9475344.49949  -7365088.59446  21832626.727    21832632.389
       230.000         184.000
  20877071.497    -9705014.26349  -7549522.23147  20877071.184    20877076.834
       242.000         209.000
 01  2  9  3 55  0.0000000  0  6G22G 6G23G21G26G17
  23674366.077    -1439499.87649  -1112064.31645  23674365.328    23674372.551
       215.000         156.000
  21241399.092     1482766.73849   1293208.34247  21241399.215    21241405.042
       237.000         198.000
  20729502.170   -17849739.39849 -13879897.45648  20729501.914    20729507.640
       244.000         213.000
  23544417.789    -9339482.33249  -7019117.13846  23544417.709    23544425.272
       219.000         164.000
  21838447.189    -9444756.64649  -7341253.88846  21838447.347    21838453.338
       229.000         184.000
  20874920.914    -9716315.62649  -7558328.46447  20874920.473    20874926.311
       242.000         209.000
 01  2  9  3 55 30.0000000  0  6G22G 6G23G21G26G17
  23679168.977    -1414260.69549  -1092397.40045  23679167.493    23679175.482
       215.000         156.000
  21254810.022     1553241.68249   1348123.87447  21254810.191    21254816.232
       236.000         197.000
  20727550.464   -17859995.59349 -13887889.26748  20727550.116    20727555.940
       244.000         213.000
  23530527.331    -9412476.70249  -7075995.78846  23530526.855    23530534.738
       220.000         164.000
  21844385.099    -9413552.78449  -7316939.17346  21844384.947    21844390.975
       229.000         184.000
  20872803.552    -9727442.30149  -7566998.57647  20872803.129    20872808.938
       241.000         209.000
 01  2  9  3 56  0.0000000  0  6G22G 6G23G21G26G17
  23684055.744    -1388580.42549  -1072386.78745  23684054.830    23684062.624
       215.000         156.000
  21268302.208     1624143.55249   1403372.08047  21268302.141    21268308.062
       236.000         197.000
  20725672.230   -17869865.59549 -13895580.15048  20725671.826    20725677.752
       244.000         214.000
  23516679.854    -9485245.25949  -7132698.48146  23516679.532    23516686.899
       220.000         165.000
  21850440.146    -9381733.19549  -7292144.67546  21850440.695    21850445.384
       229.000         183.000
  20870719.671    -9738393.06049  -7575531.61947  20870719.332    20870725.063
       241.000         209.000
 01  2  9  3 56 30.0000000  0  6G22G 6G23G21G26G17
  23689026.154    -1362460.60249  -1052033.65945  23689025.269    23689032.026
       216.000         156.000
  21281875.350     1695470.84949   1458951.79047  21281875.454    21281881.071
       236.000         197.000
  20723867.289   -17879350.65449 -13902971.07248  20723866.955    20723872.801
       244.000         214.000
  23502875.537    -9557787.26849  -7189224.64146  23502876.097    23502883.248
       219.000         165.000
  21856612.142    -9349299.17549  -7266871.40046  21856612.012    21856617.503
       229.000         183.000
  20868669.345    -9749167.46449  -7583927.24047  20868668.991    20868674.667
       241.000         209.000
 01  2  9  3 57  0.0000000  0  6G22G 6G23G21G26G17
  23694079.984    -1335902.57049  -1031339.07145  23694079.620    23694085.711
       215.000         156.000
  21295529.173     1767222.26649   1514861.98147  21295529.052    21295534.835
       236.000         196.000
  20722135.416   -17888451.50849 -13910062.61848  20722135.204    20722140.793
       244.000         214.000
  23489114.301    -9630102.67349  -7245574.24546  23489113.915    23489121.456
       220.000         164.000
  21862900.900    -9316251.28949  -7241119.79146  21862901.178    21862906.428
       229.000         183.000
  20866652.734    -9759764.66349  -7592184.78247  20866652.347    20866658.167
       241.000         210.000
 01  2  9  3 57 30.0000000  0  6G22G 6G23G21G26G17
  23699216.493    -1308909.89649  -1010305.80645  23699215.814    23699222.809
       217.000         156.000
  21309263.102     1839394.56749   1571100.13047  21309263.144    21309268.986
       235.000         196.000
  20720476.177   -17897170.85649 -13916856.88348  20720475.913    20720481.500
       244.000         214.000
  23475396.006    -9702192.46749  -7301748.03846  23475395.562    23475403.380
       220.000         164.000
  21869306.007    -9282592.25449  -7214891.95546  21869306.304    21869311.836
       229.000         183.000
  20864669.712    -9770185.58849  -7600304.97047  20864669.430    20864675.128
       241.000         210.000
 01  2  9  3 58  0.0000000  0  6G22G 6G23G21G26G17
  23704435.939    -1281481.62549   -988933.10645  23704434.841    23704442.701
       215.000         157.000
  21323077.458     1911989.46849   1627667.58447  21323077.491    21323083.321
       235.000         196.000
  20718889.928   -17905506.37449 -13923352.06548  20718889.681    20718895.392
       244.000         214.000
  23461721.388    -9774052.73149  -7357742.97446  23461721.248    23461727.768
       219.000         164.000
  21875827.795    -9248319.95549  -7188186.25846  21875827.720    21875833.475
       229.000         183.000
  20862720.923    -9780426.36649  -7608284.78647  20862720.659    20862726.202
       241.000         210.000
 01  2  9  3 58 30.0000000  0  6G22G 6G23G21G26G17
  23709737.174    -1253623.39649   -967225.37345  23709736.221    23709743.170
       214.000         156.000
  21336971.225     1985001.73949   1684560.26547  21336971.282    21336977.192
       235.000         196.000
  20717375.822   -17913463.05249 -13929552.04648  20717375.280    20717381.322
       244.000         214.000
  23448089.792    -9845686.87049  -7413561.71746  23448088.876    23448096.598
       219.000         164.000
  21882465.368    -9213439.36049  -7161006.55746  21882465.844    21882471.004
       229.000         183.000
  20860805.799    -9790490.33549  -7616126.82347  20860805.375    20860811.286
       241.000         210.000
 01  2  9  3 59  0.0000000  0  6G22G 6G23G21G26G17
  23715120.496    -1225333.88449   -945181.58345  23715120.074    23715126.811
       215.000         156.000
  21350944.603     2058432.31349   1741778.89147  21350944.759    21350950.436
       235.000         195.000
  20715934.124   -17921039.14349 -13935455.46748  20715933.698    20715939.566
       244.000         214.000
  23434501.883    -9917091.39449  -7469201.54046  23434501.502    23434508.235
       220.000         164.000
  21889218.975    -9177948.92349  -7133351.65946  21889219.389    21889224.277
       229.000         183.000
  20858924.979    -9800374.06649  -7623828.41147  20858924.657    20858930.462
       241.000         210.000
 01  2  9  3 59 30.0000000  0  7G22G 6G23G21G26G17G14
  23720584.823    -1196618.40949   -922805.87545  23720584.301    23720591.760
       215.000         156.000
  21364996.658     2132276.35449   1799319.70147  21364996.781    21365002.591
       235.000         195.000
  20714563.978   -17928239.15149 -13941065.83848  20714563.466    20714569.549
       244.000         214.000
  23420957.034    -9988269.96249  -7524665.28446  23420956.429    23420964.674
       220.000         164.000
  21896087.763    -9141853.10449  -7105225.03746  21896087.844    21896093.532
       229.000         183.000
  20857077.875    -9810080.55549  -7631391.89047  20857077.486    20857083.379
       241.000         210.000
  24643253.893    -5549925.67449  -4014580.56545  24643254.230    24643259.601
       202.000         139.000
 01  2  9  4  0  0.0000000  0  7G22G 6G23G21G26G17G14
  23726129.933    -1167478.77449   -900099.64645  23726128.903    23726136.584
       216.000         157.000
  21379127.131     2206532.53849   1857181.65847  21379127.228    21379133.293
       235.000         195.000
  20713265.286   -17935063.68649 -13946383.63548  20713264.975    20713270.610
       244.000         214.000
  23407455.278   -10059221.71149  -7579952.29446  23407455.366    23407461.210
       220.000         164.000
  21903071.580    -9105152.79049  -7076627.38346  21903071.809    21903076.832
       229.000         182.000
  20855264.725    -9819608.66749  -7638816.37947  20855264.341    20855270.008
       241.000         210.000
  24622040.140    -5661404.25949  -4101446.89145  24622039.417    24622046.817
       198.000         137.000
 01  2  9  4  0 30.0000000  0  8G22G 6G23G21G26G17G 3G14
  23731756.187    -1137912.36649   -877060.87545  23731755.677    23731763.073
       215.000         156.000
  21393336.730     2281204.35949   1915367.48047  21393337.091    21393342.935
       235.000         194.000
  20712038.770   -17941509.00049 -13951405.93548  20712038.524    20712044.145
       244.000         214.000
  23393997.825   -10129940.86049  -7635058.04846  23393997.233    23394004.523
       220.000         164.000
  21910171.159    -9067844.27449  -7047555.80246  21910171.314    21910177.111
       229.000         182.000
  20853486.588    -9828952.80349  -7646097.50847  20853486.332    20853492.138
       241.000         210.000
  24655818.368    -6182702.58849  -4792303.28845  24655817.813    24655824.039
       200.000         140.000
  24600820.337    -5772914.26849  -4188337.69645  24600818.848    24600827.166
       199.000         136.000
 01  2  9  4  1  0.0000000  0  8G22G 6G23G21G26G17G 3G14
  23737462.361    -1107926.10349   -853694.94545  23737462.137    23737468.703
       215.000         156.000
  21407624.078     2356284.84349   1973871.75247  21407624.360    21407629.673
       234.000         194.000
  20710883.185   -17947581.55449 -13956137.77048  20710883.004    20710888.603
       244.000         214.000
  23380583.722   -10200432.11549  -7689986.21846  23380583.439    23380591.462
       218.000         164.000
  21917385.212    -9029934.00649  -7018015.32246  21917385.640    21917391.049
       229.000         182.000
  20851742.555    -9838117.69849  -7653238.96647  20851742.109    20851747.789
       241.000         210.000
  24636474.038    -6284357.23149  -4871514.57445  24636472.745    24636481.345
       199.000         139.000
  24579594.136    -5884458.07249  -4275254.85245  24579592.552    24579600.818
       197.000         134.000
 01  2  9  4  1 30.0000000  0  8G22G 6G23G21G26G17G 3G14
  23743249.246    -1077515.85949   -829998.63945  23743248.431    23743255.377
       215.000         157.000
  21421989.936     2431777.91249   2032697.51347  21421990.055    21421995.973
       234.000         194.000
  20709799.428   -17953276.67449 -13960575.49848  20709799.044    20709805.030
       244.000         214.000
  23367214.068   -10270689.83749  -7744732.41146  23367213.505    23367221.119
       220.000         164.000
  21924714.656    -8991417.51449  -6988002.46046  21924715.086    21924720.345
       229.000         182.000
  20850033.844    -9847097.08749  -7660235.87847  20850033.472    20850039.429
       241.000         210.000
  24617153.472    -6385887.07449  -4950628.62145  24617152.620    24617160.492
       200.000         139.000
  24558363.075    -5996027.32549  -4362191.82945  24558362.120    24558369.106
       195.000         133.000
 01  2  9  4  2  0.0000000  0  8G22G 6G23G21G26G17G 3G14
  23749115.821    -1046686.64649   -805975.86445  23749115.400    23749122.301
       216.000         157.000
  21436433.416     2507678.80849   2091841.05547  21436433.576    21436439.768
       235.000         194.000
  20708786.730   -17958598.35749 -13964722.23748  20708786.376    20708792.129
       244.000         214.000
  23353888.411   -10340716.26649  -7799298.38646  23353887.790    23353895.001
       220.000         164.000
  21932158.630    -8952299.14749  -6957520.60546  21932158.603    21932164.788
       229.000         182.000
  20848359.943    -9855893.36049  -7667090.10647  20848359.521    20848365.397
       241.000         210.000
  24597856.571    -6487292.57749  -5029645.77945  24597855.609    24597863.267
       201.000         139.000
  24537127.123    -6107622.60149  -4449149.09245  24537127.160    24537134.031
       197.000         133.000
 01  2  9  4  2 30.0000000  0  8G22G 6G23G21G26G17G 3G14
  23755061.762    -1015440.52149   -781628.21645  23755061.183    23755068.377
       216.000         157.000
  21450954.283     2583986.55349   2151301.62547  21450954.473    21450960.152
       235.000         194.000
  20707844.976   -17963547.23449 -13968578.47648  20707844.727    20707850.389
       244.000         214.000
  23340606.895   -10410510.88549  -7853683.72346  23340606.235    23340613.163
       220.000         164.000
  21939716.963    -8912579.79549  -6926570.45746  21939716.970    21939722.647
       229.000         182.000
  20846721.137    -9864505.30149  -7673800.69847  20846720.825    20846726.678
       241.000         210.000
  24578583.793    -6588571.13149  -5108564.03045  24578583.091    24578591.032
       199.000         139.000
  24515886.875    -6219240.69949  -4536124.15545  24515885.755    24515892.817
       200.000         135.000
 01  2  9  4  3  0.0000000  0  8G22G 6G23G21G26G17G 3G14
  23761086.589     -983779.98249   -756957.65445  23761084.973    23761093.488
       215.000         157.000
  21465552.168     2660698.92649   2211077.49047  21465552.387    21465558.156
       235.000         193.000
  20706973.795   -17968125.07149 -13972145.59548  20706973.560    20706979.265
       244.000         214.000
  23327369.415   -10480073.91049  -7907888.59346  23327368.779    23327376.008
       219.000         164.000
  21947389.363    -8872261.19749  -6895153.35346  21947389.229    21947394.579
       229.000         182.000
  20845117.464    -9872932.69749  -7680367.48247  20845117.026    20845122.919
       241.000         210.000
  24559335.550    -6689720.77849  -5187381.82245  24559333.897    24559342.075
       199.000         138.000
  24494642.664    -6330879.52849  -4623115.35845  24494640.963    24494650.161
       201.000         135.000
 01  2  9  4  3 30.0000000  0  8G22G 6G23G21G26G17G 3G14
  23767190.043     -951705.99549   -731964.92345  23767189.827    23767196.721
       215.000         157.000
  21480226.865     2737814.87349   2271167.83347  21480227.108    21480232.916
       235.000         193.000
  20706173.154   -17972332.31749 -13975423.94248  20706172.755    20706178.593
       244.000         214.000
  23314176.182   -10549404.50149  -7961912.35346  23314175.722    23314182.546
       220.000         164.000
  21955175.623    -8831344.02549  -6863269.84246  21955175.558    21955181.167
       228.000         182.000
  20843549.151    -9881174.16249  -7686789.38647  20843548.602    20843554.518
       241.000         210.000
  24540112.444    -6790738.59449  -5266096.89245  24540112.224    24540119.240
       202.000         139.000
  24473395.122    -6442535.81549  -4710120.19145  24473394.911    24473400.897
       202.000         136.000
 01  2  9  4  4  0.0000000  0  8G22G 6G23G21G26G17G 3G14
  23773371.500     -919222.17649   -706652.83745  23773371.158    23773378.030
       216.000         157.000
  21494977.679     2815330.95849   2331569.96947  21494977.826    21494983.677
       235.000         193.000
  20705442.506   -17976171.83349 -13978415.74348  20705442.251    20705447.943
       244.000         214.000
  23301026.918   -10618504.26949  -8015756.24246  23301026.285    23301033.246
       220.000         165.000
  21963075.189    -8789831.50249  -6830922.40646  21963075.509    21963080.981
       228.000         182.000
  20842016.027    -9889230.72949  -7693067.21647  20842015.823    20842021.532
       241.000         210.000
  24520914.558    -6891623.90249  -5344708.71645  24520915.224    24520921.873
       203.000         140.000
  24452144.424    -6554208.76849  -4797138.01245  24452143.973    24452151.092
       206.000         138.000
 01  2  9  4  4 30.0000000  0  8G22G 6G23G21G26G17G 3G14
  23779630.876     -886328.78949   -681021.61545  23779629.985    23779636.950
       215.000         157.000
  21509804.691     2893247.35249   2392284.03447  21509804.842    21509810.688
       235.000         193.000
  20704781.986   -17979642.81849 -13981120.38248  20704781.538    20704787.321
       243.000         214.000
  23287922.146   -10687370.10449  -8069417.85146  23287922.027    23287929.080
       221.000         165.000
  21971088.149    -8747723.04849  -6798110.61546  21971088.392    21971094.311
       229.000         182.000
  20840518.566    -9897099.77049  -7699198.92447  20840518.120    20840523.836
       241.000         210.000
  24501742.745    -6992372.15849  -5423213.74245  24501742.537    24501750.404
       205.000         141.000
  24430891.450    -6665893.72849  -4884165.19245  24430891.446    24430897.944
       204.000         138.000
 01  2  9  4  5  0.0000000  0  8G22G 6G23G21G26G17G 3G14
  23785967.537     -853029.52849   -655074.12645  23785965.709    23785973.862
       216.000         157.000
  21524707.341     2971561.24249   2453307.83747  21524707.405    21524713.309
       235.000         192.000
  20704191.147   -17982747.48249 -13983539.58048  20704190.827    20704196.523
       244.000         214.000
  23274861.722   -10756002.75249  -8122897.75546  23274861.479    23274868.476
       222.000         165.000
  21979214.014    -8705021.30549  -6764836.52946  21979214.746    21979219.505
       228.000         181.000
  20839056.738    -9904781.62249  -7705184.77847  20839056.331    20839062.191
       241.000         210.000
  24482597.190    -7092982.34749  -5501611.20045  24482597.101    24482604.880
       207.000         141.000
  24409636.514    -6777589.02549  -4971200.43945  24409635.921    24409642.035
       208.000         139.000
 01  2  9  4  5 30.0000000  0  8G22G 6G23G21G26G17G 3G14
  23792381.017     -819326.47549   -628811.98945  23792380.728    23792387.312
       215.000         157.000
  21539685.270     3050270.74149   2514639.91047  21539685.306    21539691.501
       235.000         192.000
  20703669.752   -17985487.32049 -13985674.49148  20703669.368    20703675.143
       244.000         214.000
  23261845.650   -10824402.42649  -8176196.13346  23261844.730    23261852.224
       222.000         165.000
  21987452.462    -8661727.90849  -6731101.40246  21987452.863    21987458.401
       228.000         181.000
  20837630.618    -9912275.85649  -7711024.42347  20837630.129    20837636.150
       241.000         210.000
  24463478.339    -7193452.12849  -5579899.24645  24463478.226    24463485.426
       207.000         142.000
  24388380.086    -6889292.16749  -5058241.79245  24388379.736    24388386.706
       209.000         140.000
 01  2  9  4  6  0.0000000  0  8G22G 6G23G21G26G17G 3G14
  23798871.108     -785220.60849   -602235.96845  23798871.234    23798877.105
       215.000         157.000
  21554738.295     3129374.73349   2576279.37047  21554738.425    21554744.525
       234.000         192.000
  20703217.712   -17987862.78249 -13987525.48248  20703217.401    20703222.990
       244.000         214.000
  23248874.053   -10892568.23249  -8229312.26846  23248873.130    23248880.688
       222.000         166.000
  21995803.365    -8617843.53349  -6696905.77846  21995803.972    21995808.838
       228.000         181.000
  20836240.483    -9919581.15649  -7716716.84847  20836240.141    20836245.999
       241.000         210.000
  24444386.798    -7293778.48549  -5658075.54645  24444386.363    24444393.387
       207.000         143.000
  24367122.820    -7000999.64249  -5145286.53545  24367122.652    24367129.283
       211.000         140.000
 01  2  9  4  6 30.0000000  0  8G22G 6G23G21G26G17G 3G14
  23805437.443     -750714.30249   -575347.91845  23805437.439    23805443.077
       216.000         157.000
  21569865.933     3208871.01849   2638224.50947  21569866.222    21569871.536
       234.000         192.000
  20702834.683   -17989875.54349 -13989093.84248  20702834.326    20702839.964
       244.000         214.000
  23235947.016   -10960499.91649  -8282245.97346  23235946.259    23235953.646
       223.000         166.000
  22004266.382    -8573370.11849  -6662251.15946  22004266.243    22004271.894
       228.000         181.000
  20834886.334    -9926697.19949  -7722261.80747  20834885.979    20834891.730
       241.000         210.000
  24425322.995    -7393959.54749  -5736138.63045  24425322.711    24425330.445
       209.000         144.000
  24345865.154    -7112709.38649  -5232333.02045  24345864.519    24345870.870
       209.000         140.000
 01  2  9  4  7  0.0000000  0  8G22G 6G23G21G26G17G 3G14
  23812079.439     -715810.42949   -548150.08145  23812078.321    23812085.420
       216.000         157.000
  21585067.821     3288757.50049   2700473.70347  21585067.828    21585074.300
       234.000         192.000
  20702520.386   -17991527.04349 -13990380.70248  20702519.964    20702525.795
       244.000         214.000
  23223064.553   -11028197.63249  -8334997.38046  23223064.687    23223070.542
       223.000         167.000
  22012841.122    -8528309.50649  -6627138.98846  22012841.477    22012847.000
       228.000         181.000
  20833568.264    -9933623.52449  -7727658.93347  20833568.001    20833573.747
       241.000         210.000
  24406287.194    -7493993.05849  -5814086.75545  24406287.059    24406292.796
       209.000         143.000
  24324607.498    -7224418.85549  -5319379.30045  24324606.955    24324613.084
       210.000         140.000
 01  2  9  4  7 30.0000000  0  8G22G 6G23G21G26G17G 3G14
  23818796.562     -680511.53149   -520644.42745  23818795.891    23818803.198
       215.000         157.000
  21600343.630     3369032.25549   2763025.45847  21600343.933    21600349.867
       234.000         191.000
  20702274.606   -17992818.51549 -13991387.01948  20702274.314    20702279.969
       244.000         214.000
  23210226.616   -11095661.16749  -8387566.29846  23210226.285    23210234.032
       223.000         167.000
  22021527.268    -8482663.37849  -6591570.56946  22021527.754    22021532.848
       228.000         180.000
  20832286.466    -9940359.38049  -7732907.63047  20832286.088    20832291.735
       241.000         210.000
  24387279.934    -7593876.56049  -5891917.99145  24387279.408    24387286.516
       212.000         143.000
  24303350.351    -7336125.57649  -5406423.43445  24303350.800    24303356.775
       211.000         139.000
 01  2  9  4  8  0.0000000  0  8G22G 6G23G21G26G17G 3G14
  23825588.802     -644818.07549   -492831.32745  23825588.708    23825594.992
       216.000         157.000
  21615693.212     3449694.83449   2825879.40947  21615693.367    21615698.947
       234.000         191.000
  20702097.336   -17993750.01849 -13992112.84448  20702096.837    20702102.652
       244.000         214.000
  23197433.487   -11162889.19649  -8439951.70746  23197432.761    23197439.721
       223.000         167.000
  22030324.809    -8436431.98949  -6555546.10446  22030325.103    22030330.154
       228.000         180.000
  20831041.285    -9946902.93549  -7738006.49947  20831040.930    20831046.578
       242.000         210.000
  24368301.906    -7693606.59649  -5969629.64445  24368301.316    24368308.117
       213.000         143.000
  24282094.521    -7447825.61349  -5493462.36345  24282093.896    24282099.575
       211.000         139.000
 01  2  9  4  8 30.0000000  0  8G22G 6G23G21G26G17G 3G14
  23832455.550     -608733.17649   -464713.20645  23832455.095    23832461.919
       216.000         157.000
  21631115.934     3530741.92849   2889032.98547  21631116.040    21631122.067
       234.000         191.000
  20701988.115   -17994323.90049 -13992560.00448  20701987.772    20701993.466
       243.000         214.000
  23184685.015   -11229882.57549  -8492154.28746  23184684.537    23184691.658
       223.000         168.000
  22039233.124    -8389618.37549  -6519067.95446  22039233.436    22039238.691
       227.000         180.000
  20829832.536    -9953254.75349  -7742955.95747  20829832.167    20829837.972
       241.000         210.000
  24349353.341    -7793181.74649  -6047220.61245  24349353.084    24349359.430
       212.000         143.000
  24260840.183    -7559517.70649  -5580495.08545  24260839.750    24260846.619
       212.000         138.000
 01  2  9  4  9  0.0000000  0  8G22G 6G23G21G26G17G 3G14
  23839396.386     -572258.84349   -436291.64145  23839396.339    23839402.830
       215.000         157.000
  21646611.611     3612172.19949   2952485.13147  21646611.832    21646617.571
       234.000         190.000
  20701946.743   -17994541.14849 -13992729.27148  20701946.401    20701952.155
       244.000         214.000
  23171981.301   -11296640.86749  -8544173.67546  23171980.742    23171987.487
       224.000         168.000
  22048252.043    -8342223.60149  -6482136.95546  22048252.153    22048258.425
       226.000         180.000
  20828660.563    -9959413.52749  -7747754.98947  20828660.069    20828665.862
       242.000         210.000
  24330434.698    -7892599.47449  -6124688.93245  24330434.621    24330440.502
       213.000         143.000
  24239587.987    -7671198.52849  -5667519.04045  24239587.163    24239592.697
       211.000         138.000
 01  2  9  4  9 30.0000000  0  8G22G 6G23G21G26G17G 3G14
  23846410.744     -535398.17949   -407569.03745  23846410.583    23846416.706
       214.000         157.000
  21662179.761     3693983.43549   3016234.14847  21662179.455    21662185.590
       233.000         190.000
  20701972.930   -17994403.55949 -13992622.03748  20701972.633    20701978.132
       244.000         214.000
  23159322.360   -11363163.87149  -8596009.73046  23159322.125    23159329.139
       224.000         169.000
  22057381.110    -8294249.84749  -6444754.79846  22057381.133    22057386.603
       227.000         180.000
  20827525.343    -9965379.09349  -7752403.46447  20827524.964    20827530.797
       241.000         210.000
  24311546.446    -7991857.76249  -6202032.98745  24311546.467    24311553.273
       213.000         142.000
  24218338.341    -7782865.92349  -5754532.51045  24218338.533    24218344.973
       210.000         137.000
 01  2  9  4 10  0.0000000  0  8G22G 6G23G21G26G17G 3G14
  23853498.426     -498152.18749   -378546.17745  23853497.377    23853505.524
       216.000         157.000
  21677820.297     3776174.93349   3080279.45947  21677820.557    21677826.417
       233.000         190.000
  20702066.606   -17993911.11449 -13992238.29848  20702066.378    20702072.022
       244.000         214.000
  23146708.402   -11429450.45849  -8647661.55646  23146708.297    23146714.347
       224.000         169.000
  22066620.286    -8245697.72349  -6406921.97646  22066620.467    22066625.855
       227.000         180.000
  20826427.265    -9971149.51349  -7756899.87847  20826426.975    20826432.797
       241.000         210.000
  24292689.183    -8090952.96049  -6279249.97245  24292688.622    24292696.056
       212.000         143.000
  24197091.927    -7894516.17249  -5841532.61545  24197091.282    24197097.155
       212.000         138.000
 01  2  9  4 10 30.0000000  0  8G22G 6G23G21G26G17G 3G14
  23860659.023     -460522.70949   -349224.49345  23860658.850    23860665.153
       215.000         157.000
  21693532.814     3858744.62149   3144619.47547  21693533.070    21693538.869
       232.000         189.000
  20702227.578   -17993065.16449 -13991579.09548  20702227.366    20702232.789
       244.000         214.000
  23134139.512   -11495500.17649  -8699128.81346  23134139.289    23134145.955
       225.000         170.000
  22075969.228    -8196568.83449  -6368639.71246  22075969.914    22075974.782
       227.000         179.000
  20825366.458    -9976724.15249  -7761243.73247  20825366.009    20825371.749
       241.000         210.000
  24273863.467    -8189882.58649  -6356337.92145  24273863.334    24273870.374
       212.000         144.000
  24175849.334    -8006146.48249  -5928517.18545  24175848.528    24175854.349
       210.000         138.000
 01  2  9  4 11  0.0000000  0  8G22G 6G23G21G26G17G 3G14
  23867891.931     -422513.40549   -319606.85345  23867891.642    23867898.369
       216.000         157.000
  21709316.580     3941688.95749   3209251.42547  21709316.723    21709322.472
       233.000         189.000
  20702455.270   -17991868.47249 -13990646.58948  20702454.969    20702460.516
       243.000         214.000
  23121615.399   -11561314.65649  -8750412.77346  23121614.919    23121621.544
       226.000         170.000
  22085427.243    -8146866.57549  -6329910.67046  22085428.126    22085432.854
       227.000         179.000
  20824342.690    -9982103.99649  -7765435.81047  20824342.308    20824348.143
       241.000         210.000
  24255069.387    -8288645.88949  -6433296.27245  24255069.345    24255074.894
       212.000         144.000
  24154610.722    -8117755.60649  -6015485.23945  24154610.931    24154616.988
       209.000         138.000
 01  2  9  4 11 30.0000000  0  8G22G 6G23G21G26G17G 3G14
  23875196.766     -384126.04949   -289694.62245  23875196.116    23875202.732
       214.000         157.000
  21725171.444     4025006.74449   3274174.36747  21725171.517    21725177.420
       233.000         189.000
  20702749.627   -17990321.61449 -13989441.23148  20702749.245    20702754.993
       243.000         214.000
  23109136.212   -11626893.04349  -8801512.77346  23109135.878    23109142.901
       225.000         171.000
  22094994.178    -8096591.89649  -6290735.59646  22094994.144    22094999.747
       227.000         179.000
  20823356.301    -9987287.44649  -7769474.85547  20823356.051    20823361.575
       241.000         210.000
  24236307.594    -8387239.65949  -6510122.51545  24236307.643    24236314.095
       212.000         144.000
  24133376.817    -8229339.97949  -6102433.99745  24133377.111    24133382.654
       207.000         139.000
 01  2  9  4 12  0.0000000  0  8G22G 6G23G21G26G17G 3G14
  23882573.340     -345361.97049   -259488.84545  23882572.359    23882579.769
       215.000         157.000
  21741097.285     4108697.62249   3339388.03047  21741097.182    21741103.318
       232.000         188.000
  20703110.621   -17988424.51449 -13987962.94648  20703110.345    20703115.928
       244.000         213.000
  23096702.256   -11692233.60649  -8852427.43546  23096702.196    23096708.997
       225.000         172.000
  22104669.974    -8045745.25049  -6251114.82146  22104670.185    22104675.781
       228.000         179.000
  20822407.703    -9992272.27749  -7773359.12547  20822407.207    20822413.042
       241.000         210.000
  24217578.764    -8485659.93149  -6586813.54345  24217578.229    24217585.072
       211.000         144.000
  24112148.350    -8340895.77249  -6189360.49545  24112147.518    24112154.083
       206.000         139.000
 01  2  9  4 12 30.0000000  0  8G22G 6G23G21G26G17G 3G14
  23890020.812     -306225.22949   -228992.68645  23890020.373    23890026.810
       215.000         157.000
  21757093.404     4192757.61549   3404889.31147  21757093.568    21757099.297
       232.000         188.000
  20703537.651   -17986180.49149 -13986214.33448  20703537.339    20703542.794
       243.000         213.000
  23084313.260   -11757338.15249  -8903158.19846  23084312.943    23084319.793
       226.000         172.000
  22114453.872    -7994330.38049  -6211051.28146  22114454.152    22114459.519
       227.000         179.000
  20821496.635    -9997059.82349  -7777089.67147  20821496.258    20821501.994
       241.000         210.000
  24198883.022    -8583906.15949  -6663368.96345  24198883.412    24198889.276
       212.000         145.000
  24090925.501    -8452422.27349  -6276264.15745  24090924.010    24090931.333
       207.000         139.000
 01  2  9  4 13  0.0000000  0  8G22G 6G23G21G26G17G 3G14
  23897539.145     -266716.23849   -198206.45545  23897538.718    23897544.997
       215.000         156.000
  21773159.554     4277185.97149   3470677.63846  21773159.685    21773165.606
       232.000         187.000
  20704030.705   -17983589.33049 -13984195.22848  20704030.348    20704035.982
       243.000         213.000
  23071969.520   -11822204.74349  -8953703.54146  23071968.599    23071975.633
       226.000         172.000
  22124345.846    -7942347.78049  -6170545.35746  22124346.254    22124351.624
       227.000         179.000
  20820623.563   -10001647.82449  -7780664.73247  20820623.113    20820629.051
       242.000         210.000
  24180221.146    -8681974.59849  -6739785.84745  24180220.791    24180228.049
       211.000         146.000
  24069708.992    -8563915.13249  -6363141.61645  24069709.167    24069714.548
       205.000         140.000
 01  2  9  4 13 30.0000000  0  8G22G 6G23G21G26G17G 3G14
  23905127.762     -226837.68049   -167132.24845  23905127.065    23905134.469
       213.000         156.000
  21789295.429     4361980.43549   3536751.23746  21789295.475    21789301.625
       232.000         187.000
  20704589.509   -17980652.69949 -13981906.92548  20704589.221    20704594.798
       243.000         213.000
  23059670.907   -11886834.13949  -9004064.05346  23059670.392    23059677.554
       225.000         172.000
  22134345.440    -7889799.59949  -6129598.71346  22134345.951    22134351.111
       227.000         178.000
  20819788.542   -10006035.82749  -7784083.95347  20819788.221    20819794.020
       241.000         210.000
  24161593.549    -8779863.24749  -6816062.62645  24161593.427    24161599.807
       210.000         146.000
  24048499.362    -8675372.09549  -6449991.10545  24048498.971    24048505.594
       205.000         140.000
 01  2  9  4 14  0.0000000  0  8G22G 6G23G21G26G17G 3G14
  23912786.092     -186592.89649   -135772.68445  23912786.133    23912793.104
       213.000         156.000
  21805500.476     4447138.68449   3603108.30346  21805500.726    21805506.582
       231.000         187.000
  20705213.695   -17977372.44049 -13979350.85648  20705213.299    20705218.898
       244.000         213.000
  23047417.395   -11951226.48449  -9054239.85646  23047417.515    23047423.537
       226.000         173.000
  22144452.173    -7836688.19049  -6088213.19646  22144452.465    22144457.387
       227.000         178.000
  20818991.618   -10010223.83149  -7787347.33047  20818991.282    20818996.899
       241.000         210.000
  24143000.423    -8877570.26349  -6892197.86945  24142999.819    24143006.903
       210.000         146.000
  24027296.941    -8786790.92549  -6536810.87445  24027295.729    24027302.755
       206.000         141.000
 01  2  9  4 14 30.0000000  0  8G22G 6G23G21G26G17G 3G14
  23920513.728     -145983.74349   -104129.17645  23920513.193    23920520.102
       214.000         156.000
  21821774.525     4532659.19349   3669747.64746  21821774.390    21821780.640
       230.000         186.000
  20705903.155   -17973749.36449 -13976527.65748  20705902.732    20705908.413
       244.000         213.000
  23035209.147   -12015381.03349  -9104230.35546  23035208.617    23035215.504
       226.000         173.000
  22154665.867    -7783014.85749  -6046389.82346  22154666.603    22154671.966
       227.000         178.000
  20818233.008   -10014210.34849  -7790453.70047  20818232.627    20818238.470
       241.000         210.000
  24124442.502    -8975092.35549  -6968189.02345  24124441.886    24124448.803
       210.000         146.000
  24006102.516    -8898168.20549  -6623598.27145  24006101.332    24006108.385
       207.000         143.000
 01  2  9  4 15  0.0000000  0  8G22G 6G23G21G26G17G 3G14
  23928310.571     -105011.07949    -72202.43145  23928309.626    23928316.801
       213.000         156.000
  21838117.275     4618541.04949   3736668.56746  21838117.276    21838123.172
       231.000         186.000
  20706657.752   -17969783.83049 -13973437.61248  20706657.429    20706663.115
       243.000         213.000
  23023046.383   -12079296.42249  -9154034.50246  23023046.217    23023052.457
       227.000         173.000
  22164986.351    -7728780.41849  -6004129.21346  22164987.109    22164991.986
       227.000         178.000
  20817513.075   -10017993.51549  -7793401.62247  20817512.736    20817518.512
       241.000         210.000
  24105920.457    -9072426.01849  -7044033.34745  24105920.229    24105926.911
       209.000         146.000
  23984916.695    -9009500.17649  -6710350.36545  23984915.868    23984923.042
       206.000         143.000
 01  2  9  4 15 30.0000000  0  8G22G 6G23G21G26G17G 3G14
  23936175.478      -63680.78549    -39997.00445  23936174.771    23936181.678
       212.000         156.000
  21854527.733     4704778.46349   3803866.54146  21854528.185    21854533.667
       230.000         186.000
  20707476.579   -17965480.79649 -13970084.57648  20707476.193    20707481.806
       244.000         213.000
  23010928.461   -12142976.43149  -9203655.22546  23010928.336    23010934.715
       226.000         173.000
  22175412.488    -7673990.57349  -5961435.82646  22175413.351    22175418.423
       227.000         178.000
  20816831.276   -10021576.36549  -7796193.44347  20816830.948    20816836.462
       241.000         210.000
  24087434.074    -9169572.24849  -7119731.63345  24087433.707    24087440.983
       208.000         147.000
  23963739.266    -9120787.93149  -6797068.00345  23963738.739    23963744.604
       207.000         144.000
 01  2  9  4 16  0.0000000  0  8G22G 6G23G21G26G17G 3G14
  23944108.607      -21991.93249     -7512.18045  23944108.569    23944114.985
       213.000         155.000
  21871006.038     4791372.65849   3871342.52446  21871006.187    21871012.118
       230.000         185.000
  20708359.997   -17960838.33049 -13966467.05148  20708359.681    20708365.214
       244.000         213.000
  22998855.986   -12206417.59149  -9253089.84346  22998855.544    22998862.406
       226.000         174.000
  22185944.604    -7618643.92249  -5918308.56046  22185945.060    22185950.604
       226.000         178.000
  20816188.367   -10024954.76649  -7798825.95247  20816188.013    20816193.739
       241.000         210.000
  24068984.392    -9266525.61849  -7195279.63445  24068983.849    24068990.673
       209.000         147.000
  23942571.433    -9232025.19849  -6883746.31545  23942570.753    23942577.326
       207.000         145.000
 01  2  9  4 16 30.0000000  0  8G22G 6G23G21G26G17G 3G14
  23952109.333       20052.21449     25249.49745  23952108.830    23952115.660
       212.000         155.000
  21887551.871     4878321.46549   3939094.82246  21887551.583    21887557.890
       230.000         185.000
  20709307.705   -17955858.00349 -13962586.25748  20709307.385    20709313.085
       243.000         213.000
  22986828.896   -12269619.98349  -9302338.40646  22986828.320    22986834.429
       224.000         174.000
  22196582.242    -7562742.82249  -5874749.26246  22196582.746    22196587.894
       227.000         178.000
  20815584.491   -10028128.19549  -7801298.75047  20815584.171    20815589.928
       241.000         210.000
  24050571.789    -9363283.92649  -7270675.65145  24050571.826    24050578.455
       209.000         148.000
  23921413.652    -9343209.67349  -6970383.46245  23921413.110    23921419.149
       208.000         146.000
 01  2  9  4 17  0.0000000  0  8G22G 6G23G21G26G17G 3G14
  23960177.148       62448.78949     58285.79245  23960176.425    23960183.186
       212.000         154.000
  21904164.657     4965622.31549   4007121.44946  21904164.972    21904170.602
       229.000         185.000
  20710319.273   -17950542.04649 -13958443.93548  20710318.765    20710324.616
       243.000         213.000
  22974847.083   -12332584.44349  -9351401.56646  22974846.964    22974853.574
       226.000         174.000
  22207324.927    -7506289.68049  -5830759.78946  22207324.969    22207330.936
       228.000         177.000
  20815019.667   -10031096.41149  -7803611.63747  20815019.362    20815024.975
       241.000         210.000
  24032196.756    -9459845.00949  -7345917.98845  24032196.706    24032202.403
       208.000         149.000
  23900266.367    -9454339.29549  -7056977.89045  23900265.750    23900272.359
       208.000         147.000
 01  2  9  4 17 30.0000000  0  8G22G 6G23G21G26G17G 3G14
  23968311.575      105195.82949     91595.17145  23968311.054    23968317.502
       211.000         154.000
  21920844.046     5053273.07849   4075420.72846  21920843.686    21920849.705
       230.000         184.000
  20711394.485   -17944891.66749 -13954041.03048  20711394.240    20711399.807
       243.000         213.000
  22962910.720   -12395310.28049  -9400278.79046  22962910.608    22962916.691
       225.000         174.000
  22218172.266    -7449286.53349  -5786341.75446  22218172.569    22218177.915
       226.000         177.000
  20814494.057   -10033858.56949  -7805763.96047  20814493.616    20814499.432
       242.000         210.000
  24013859.724    -9556206.48849  -7421004.79045  24013860.021    24013865.848
       208.000         149.000
  23879130.096    -9565410.91049  -7143527.11445  23879130.292    23879136.168
       210.000         148.000
 01  2  9  4 18  0.0000000  0  8G22G 6G23G21G26G17G 3G14
  23976512.222      148290.53649    125175.45745  23976512.026    23976518.670
       212.000         154.000
  21937589.517     5141271.07849   4143990.58146  21937589.493    21937595.428
       229.000         184.000
  20712532.998   -17938908.73149 -13949378.98848  20712532.612    20712538.148
       244.000         213.000
  22951019.579   -12457798.43149  -9448970.79946  22951019.640    22951025.112
       225.000         175.000
  22229123.753    -7391735.98149  -5741497.16346  22229123.928    22229129.547
       225.000         177.000
  20814007.625   -10036414.56949  -7807755.64247  20814007.233    20814012.933
       241.000         210.000
  23995561.010    -9652366.49149  -7495934.59745  23995561.049    23995566.803
       209.000         149.000
  23858005.240    -9676422.39049  -7230029.46545  23858004.667    23858010.844
       211.000         148.000
 01  2  9  4 18 30.0000000  0  8G22G 6G23G21G26G17G 3G14
  23984778.746      191731.53149    159025.58845  23984777.604    23984785.024
       211.000         153.000
  21954400.959     5229615.55349   4212830.40546  21954401.254    21954407.118
       229.000         184.000
  20713734.772   -17932593.27549 -13944457.84348  20713734.420    20713739.943
       243.000         213.000
  22939173.949   -12520047.36349  -9497476.40446  22939173.401    22939180.178
       226.000         175.000
  22240179.293    -7333638.77849  -5696226.61846  22240179.824    22240185.491
       227.000         177.000
  20813560.888   -10038762.13649  -7809584.91647  20813560.482    20813566.253
       241.000         209.000
  23977301.386    -9748321.16049  -7570704.40345  23977300.540    23977307.222
       209.000         150.000
  23836892.597    -9787369.60849  -7316481.75745  23836892.533    23836898.435
       210.000         149.000
 01  2  9  4 19  0.0000000  0  8G22G 6G23G21G26G17G 3G14
  23993110.450      235515.09649    193142.65745  23993109.856    23993117.077
       212.000         153.000
  21971277.691     5318303.59249   4281937.94746  21971277.921    21971284.000
       228.000         183.000
  20714999.421   -17925947.36549 -13939279.19048  20714999.095    20715004.581
       244.000         213.000
  22927373.685   -12582058.06549  -9545796.38146  22927373.390    22927379.599
       226.000         175.000
  22251338.338    -7274997.71749  -5650532.28146  22251338.369    22251343.723
       225.000         177.000
  20813153.824   -10040901.27749  -7811251.76747  20813153.454    20813159.092
       242.000         209.000
  23959081.119    -9844068.74749  -7645312.83545  23959080.804    23959087.135
       208.000         151.000
  23815792.578    -9898250.72549  -7402882.52945  23815792.810    23815798.242
       211.000         149.000
 01  2  9  4 19 30.0000000  0  8G22G 6G23G21G26G17G 3G14
  24001506.911      279638.76649    227524.73845  24001505.813    24001513.708
       211.000         152.000
  21988219.428     5407332.83549   4351311.36246  21988219.492    21988225.565
       228.000         183.000
  20716326.659   -17918972.68349 -13933844.36048  20716326.276    20716331.824
       243.000         213.000
  22915618.826   -12643830.13349  -9593930.41146  22915618.378    22915624.868
       226.000         175.000
  22262600.378    -7215815.29949  -5604416.11246  22262600.492    22262605.992
       225.000         177.000
  20812786.513   -10042831.52849  -7812755.85347  20812786.148    20812791.881
       241.000         209.000
  23940900.778    -9939606.98049  -7719758.12945  23940899.800    23940907.995
       210.000         151.000
  23794705.536   -10009063.39149  -7489229.95945  23794705.138    23794711.369
       212.000         150.000
 01  2  9  4 20  0.0000000  0  8G22G 6G23G21G26G17G 3G14
  24009967.879      324101.51049    262171.03145  24009967.006    24009974.563
       210.000         152.000
  22005225.847     5496702.09149   4420949.71846  22005225.789    22005231.724
       228.000         183.000
  20717716.329   -17911669.82349 -13928153.80448  20717715.994    20717721.616
       243.000         213.000
  22903909.531   -12705362.77649  -9641877.87246  22903909.144    22903915.928
       225.000         175.000
  22273965.230    -7156092.55049  -5557878.90646  22273965.505    22273971.406
       226.000         176.000
  20812459.280   -10044551.09449  -7814095.76547  20812458.925    20812464.657
       241.000         209.000
  23922760.940   -10034932.37349  -7794037.57945  23922760.408    23922767.396
       211.000         152.000
  23773632.284   -10119803.86549  -7575521.13945  23773632.397    23773637.675
       212.000         150.000
 01  2  9  4 20 30.0000000  0  8G22G 6G23G21G26G17G 3G14
  24018492.805      368900.44749    297079.30045  24018492.504    24018498.816
       210.000         152.000
  22022296.520     5586408.96949   4490851.16346  22022296.811    22022302.890
       228.000         182.000
  20719168.185   -17904040.34649 -13922208.73848  20719167.799    20719173.372
       244.000         213.000
  22892245.656   -12766656.45749  -9689639.12646  22892245.448    22892251.227
       226.000         175.000
  22285432.431    -7095832.00949  -5510922.64546  22285432.896    22285437.966
       225.000         176.000
  20812172.303   -10046059.17449  -7815270.88847  20812172.023    20812177.542
       241.000         209.000
  23904661.900   -10130043.09249  -7868149.74845  23904661.457    23904667.950
       212.000         153.000
  23752573.244   -10230469.54349  -7661754.03645  23752572.456    23752579.628
       212.000         150.000
 01  2  9  4 21  0.0000000  0  8G22G 6G23G21G26G17G 3G14
  24027081.029      414032.01749    332246.74845  24027080.059    24027087.348
       210.000         152.000
  22039430.860     5676450.44749   4561013.33946  22039431.479    22039436.943
       228.000         182.000
  20720681.721   -17896086.61849 -13916011.01648  20720681.241    20720686.940
       243.000         213.000
  22880627.111   -12827712.02649  -9737214.85246  22880626.962    22880633.465
       226.000         176.000
  22297001.420    -7035036.46349  -5463549.48746  22297001.467    22297007.051
       226.000         176.000
  20811925.536   -10047355.95749  -7816281.36747  20811925.324    20811931.024
       241.000         209.000
  23886604.062   -10224937.43949  -7942093.31945  23886603.848    23886609.974
       212.000         154.000
  23731528.853   -10341058.34649  -7747927.03345  23731528.285    23731534.264
       213.000         152.000
 01  2  9  4 21 30.0000000  0  8G22G 6G23G21G26G17G 3G14
  24035732.285      459494.73849    367672.24845  24035731.349    24035738.313
       209.000         151.000
  22056628.741     5766825.79249   4631435.66146  22056629.223    22056634.957
       228.000         182.000
  20722256.904   -17887808.83749 -13909560.78048  20722256.500    20722261.923
       243.000         213.000
  22869054.202   -12888527.95549  -9784603.83646  22869053.774    22869060.903
       225.000         176.000
  22308672.048    -6973706.86149  -5415760.19446  22308672.687    22308678.616
       226.000         176.000
  20811719.383   -10048439.19049  -7817125.43547  20811718.947    20811724.541
       241.000         209.000
  23868588.179   -10319611.30349  -8015865.07445  23868588.030    23868594.423
       213.000         155.000
  23710499.847   -10451566.21649  -7834036.96945  23710499.193    23710505.308
       214.000         152.000
 01  2  9  4 22  0.0000000  0  8G22G 6G23G21G26G17G 3G14
  24044446.003      505285.62449    403353.44945  24044445.866    24044452.771
       209.000         151.000
  22073889.552     5857531.96449   4702115.78246  22073888.845    22073895.679
       227.000         182.000
  20723893.337   -17879209.31849 -13902859.84248  20723893.037    20723898.386
       243.000         213.000
  22857526.660   -12949105.35649  -9831806.95946  22857526.364    22857533.689
       226.000         176.000
  22320443.738    -6911846.39649  -5367557.23846  22320444.158    22320449.307
       225.000         175.000
  20811553.804   -10049309.22649  -7817803.37447  20811553.521    20811559.053
       241.000         209.000
  23850614.587   -10414063.10049  -8089463.80445  23850614.363    23850620.408
       214.000         156.000
  23689486.539   -10561991.43649  -7920082.49945  23689485.780    23689491.925
       214.000         152.000
 01  2  9  4 22 30.0000000  0  8G22G 6G23G21G26G17G 3G14
  24053221.744      551402.62449    439288.77545  24053221.811    24053228.071
       208.000         150.000
  22091212.917     5948566.78549   4773051.98946  22091213.131    22091219.179
       227.000         181.000
  20725590.747   -17870289.32449 -13895909.18548  20725590.552    20725595.788
       243.000         213.000
  22846044.540   -13009444.08149  -9878824.10246  22846043.593    22846050.740
       225.000         176.000
  22332316.028    -6849457.08949  -5318942.19546  22332315.730    22332322.158
       225.000         175.000
  20811429.004   -10049965.13249  -7818314.46347  20811428.808    20811434.119
       241.000         209.000
  23832683.712   -10508290.18649  -8162887.43045  23832683.267    23832689.655
       215.000         156.000
  23668489.547   -10672331.10649  -8006061.37445  23668488.586    23668495.170
       214.000         153.000
 01  2  9  4 23  0.0000000  0  9G22G 6G23G21G26G17G28G 3G14
  24062058.825      597842.12349    475475.39645  24062058.044    24062064.565
       208.000         150.000
  22108598.252     6039927.32649   4844242.00046  22108598.336    22108604.421
       227.000         181.000
  20727348.735   -17861050.97849 -13888710.46148  20727348.385    20727353.981
       243.000         213.000
  22834607.850   -13069544.23549  -9925655.33746  22834607.350    22834613.524
       226.000         176.000
  22344288.383    -6786541.98349  -5269917.43846  22344288.631    22344293.764
       226.000         175.000
  20811344.914   -10050406.88249  -7818658.67547  20811344.566    20811350.217
       241.000         209.000
  24701370.079    -6897894.01149  -5354635.72145  24701370.617    24701375.706
       201.000         136.000
  23814795.900   -10602290.93749  -8236134.69145  23814795.730    23814802.001
       214.000         156.000
  23647509.168   -10782583.25049  -8091972.04645  23647508.900    23647514.124
       214.000         153.000
 01  2  9  4 23 30.0000000  0  9G22G 6G23G21G26G17G28G 3G14
  24070956.825      644601.20349    511911.04445  24070956.574    24070963.394
       208.000         150.000
  22126045.158     6131611.48649   4915684.18446  22126045.417    22126051.730
       227.000         181.000
  20729167.025   -17851495.74049 -13881264.81248  20729166.716    20729172.189
       243.000         213.000
  22823216.424   -13129406.23749  -9972301.01046  22823215.747    22823222.167
       226.000         176.000
  22356360.427    -6723103.06249  -5220484.51346  22356360.973    22356365.720
       225.000         175.000
  20811301.786   -10050633.49949  -7818835.26047  20811301.456    20811307.296
       241.000         209.000
  24698776.231    -6911524.77749  -5365257.09045  24698776.243    24698779.945
       201.000         136.000
  23796951.696   -10696062.75349  -8309203.56445  23796951.393    23796957.682
       215.000         157.000
  23626546.051   -10892744.93849  -8177812.23845  23626545.283    23626551.486
       216.000         154.000
 01  2  9  4 24  0.0000000  0  9G22G 6G23G21G26G17G28G 3G14
  24079915.469      691679.42349    548595.37145  24079914.342    24079921.139
       207.000         149.000
  22143553.622     6223619.02249   4987378.34246  22143554.136    22143559.628
       226.000         181.000
  20731045.738   -17841622.95649 -13873571.72048  20731045.396    20731050.996
       243.000         213.000
  22811870.708   -13189028.19149 -10018759.63246  22811870.251    22811876.231
       226.000         176.000
  22368532.047    -6659140.78949  -5170643.78746  22368532.247    22368537.350
       225.000         175.000
  20811300.168   -10050642.05149  -7818841.91847  20811299.777    20811305.631
       241.000         209.000
  24696276.604    -6924659.92749  -5375492.26445  24696275.704    24696281.972
       199.000         136.000
  23779151.895   -10789601.12849  -8382090.54345  23779151.396    23779157.773
       214.000         157.000
  23605601.074   -11002811.33649  -8263578.17645  23605599.983    23605607.087
       216.000         154.000
 01  2  9  4 24 30.0000000  0  9G22G 6G23G21G26G17G28G 3G14
  24088934.420      739074.27549    585526.41745  24088933.988    24088941.485
       208.000         149.000
  22161123.127     6315947.36149   5059322.48746  22161123.443    22161129.679
       226.000         180.000
  20732984.511   -17831434.57349 -13865632.70448  20732983.884    20732989.574
       244.000         213.000
  22800570.532   -13248410.80449 -10065031.75346  22800570.204    22800577.248
       227.000         176.000
  22380802.742    -6594657.87649  -5120397.35746  22380802.843    22380808.766
       225.000         174.000
  20811340.082   -10050432.32049  -7818678.48247  20811339.709    20811345.317
       241.000         209.000
  24693871.297    -6937300.04949  -5385341.69045  24693870.979    24693877.777
       200.000         136.000
  23761396.908   -10882903.89149  -8454793.93245  23761396.967    23761402.944
       215.000         156.000
  23584674.635   -11112780.18749  -8349268.10445  23584674.889    23584679.767
       216.000         154.000
 01  2  9  4 25  0.0000000  0  9G22G 6G23G21G26G17G28G 3G14
  24098013.298      786784.02549    622702.84945  24098012.633    24098019.922
       207.000         148.000
  22178753.429     6408595.02549   5131515.44446  22178753.458    22178759.558
       227.000         180.000
  20734983.178   -17820931.41549 -13857448.40948  20734982.750    20734988.399
       243.000         213.000
  22789316.060   -13307553.22449 -10111116.72146  22789315.755    22789321.984
       226.000         177.000
  22393172.242    -6529655.88349  -5069746.45546  22393171.560    22393177.444
       224.000         174.000
  20811421.840   -10050002.53349  -7818343.57647  20811421.403    20811427.062
       241.000         209.000
  24691560.190    -6949444.84349  -5394805.15145  24691559.489    24691565.309
       200.000         136.000
  23743687.366   -10975967.87049  -8527311.26145  23743686.908    23743693.275
       215.000         157.000
  23563767.412   -11222647.90049  -8434879.22345  23563767.303    23563772.601
       216.000         154.000
 01  2  9  4 25 30.0000000  0  9G22G 6G23G21G26G17G28G 3G14
  24107150.899      834802.33849    660119.71545  24107150.187    24107157.446
       206.000         148.000
  22196443.416     6501556.26949   5203952.75346  22196443.972    22196449.288
       227.000         180.000
  20737040.804   -17810118.36649 -13849022.63848  20737040.586    20737046.016
       243.000         213.000
  22778106.694   -13366458.86949 -10157017.18346  22778105.975    22778112.985
       226.000         177.000
  22405639.381    -6464140.50749  -5018695.52046  22405639.029    22405644.208
       224.000         174.000
  20811545.022   -10049355.11449  -7817839.09247  20811544.707    20811550.484
       241.000         209.000
  24689342.669    -6961097.91149  -5403885.44245  24689342.014    24689348.127
       200.000         136.000
  23726023.078   -11068793.95149  -8599643.21545  23726023.196    23726028.934
       216.000         156.000
  23542879.332   -11332414.99749  -8520411.94645  23542878.694    23542884.526
       216.000         154.000
 01  2  9  4 26  0.0000000  0  9G22G 6G23G21G26G17G28G 3G14
  24116347.192      883129.28649    697777.07145  24116346.441    24116353.294
       206.000         148.000
  22214193.213     6594832.12249   5276635.21846  22214193.244    22214199.883
       225.000         179.000
  20739157.759   -17798993.76449 -13840354.10048  20739157.510    20739162.933
       243.000         213.000
  22766942.907   -13425124.73949 -10202730.80446  22766942.724    22766949.566
       226.000         177.000
  22418204.391    -6398110.90349  -4967243.88046  22418204.230    22418209.705
       225.000         173.000
  20811710.376   -10048486.21849  -7817162.02047  20811710.103    20811715.616
       241.000         209.000
  24687219.275    -6972256.66149  -5412580.53445  24687218.884    24687224.499
       199.000         136.000
  23708405.171   -11161376.56449  -8671785.45445  23708404.573    23708410.677
       215.000         156.000
  23522011.531   -11442075.65549  -8605861.72445  23522011.460    23522016.337
       215.000         154.000
 01  2  9  4 26 30.0000000  0  9G22G 6G23G21G26G17G28G 3G14
  24125601.809      931762.48549    735673.06945  24125600.974    24125608.182
       208.000         147.000
  22232002.364     6688419.74849   5349560.62546  22232002.835    22232008.176
       225.000         179.000
  20741333.609   -17787559.43549 -13831444.21948  20741333.134    20741338.764
       243.000         213.000
  22755824.691   -13483551.28149 -10248257.95946  22755824.650    22755830.512
       227.000         177.000
  22430866.734    -6331569.88849  -4915393.74646  22430867.643    22430872.289
       224.000         173.000
  20811917.909   -10047395.50649  -7816312.11547  20811917.739    20811923.372
       241.000         209.000
  24685189.738    -6982921.75649  -5420890.95645  24685188.959    24685194.586
       201.000         136.000
  23690833.946   -11253713.72249  -8743736.44145  23690833.947    23690839.616
       215.000         156.000
  23501164.473   -11551627.37249  -8691226.61045  23501164.822    23501169.656
       214.000         153.000
 01  2  9  4 27  0.0000000  0  9G22G 6G23G21G26G17G28G 3G14
  24134914.229      980699.58049    773805.87245  24134913.937    24134920.961
       206.000         147.000
  22249870.437     6782317.09649   5422727.37146  22249870.855    22249876.184
       225.000         179.000
  20743568.184   -17775816.71349 -13822294.02248  20743567.847    20743573.308
       243.000         213.000
  22744752.058   -13541738.16449 -10293598.34846  22744751.816    22744758.088
       226.000         177.000
  22443625.940    -6264519.67849  -4863146.82446  22443626.241    22443631.197
       225.000         173.000
  20812167.890   -10046081.93649  -7815288.54647  20812167.406    20812173.279
       240.000         209.000
  24683254.108    -6993093.54349  -5428816.98245  24683253.739    24683260.029
       200.000         136.000
  23673309.976   -11345802.57349  -8815493.95745  23673310.268    23673315.594
       215.000         155.000
  23480338.670   -11661067.45249  -8776504.51045  23480337.880    23480344.887
       215.000         153.000
 01  2  9  4 27 30.0000000  0  9G22G 6G23G21G26G17G28G 3G14
  24144283.662     1029936.26749    812172.12645  24144282.751    24144289.589
       207.000         147.000
  22267796.704     6876520.15849   5496132.33546  22267797.275    22267802.999
       225.000         178.000
  20745860.786   -17763768.91749 -13812906.10648  20745860.450    20745865.941
       243.000         213.000
  22733724.691   -13599687.26949 -10338753.46546  22733724.070    22733730.208
       227.000         177.000
  22456481.270    -6196964.43449  -4810506.38346  22456481.731    22456486.388
       224.000         173.000
  20812460.085   -10044546.40749  -7814092.02047  20812459.794    20812465.409
       241.000         209.000
  24681411.887    -7002774.07449  -5436360.20945  24681411.364    24681417.261
       201.000         136.000
  23655833.386   -11437642.30749  -8887057.34145  23655832.848    23655839.158
       214.000         155.000
  23459534.251   -11770394.87249  -8861694.62145  23459533.663    23459539.508
       215.000         153.000
 01  2  9  4 28  0.0000000  0  9G22G 6G23G21G26G17G28G 3G14
  24153709.932     1079471.53049    850771.03745  24153709.665    24153716.525
       207.000         147.000
  22285781.140     6971028.78949   5569775.39846  22285781.405    22285786.906
       225.000         178.000
  20748211.617   -17751415.23449 -13803279.84048  20748211.272    20748216.735
       243.000         213.000
  22722742.857   -13657396.89749 -10383721.98446  22722742.313    22722748.661
       227.000         178.000
  22469432.688    -6128904.31649  -4757472.52746  22469433.065    22469438.231
       224.000         172.000
  20812795.072   -10042785.96649  -7812720.24347  20812794.632    20812800.394
       241.000         209.000
  24679663.510    -7011961.63349  -5443519.28445  24679661.896    24679668.990
       200.000         136.000
  23638405.128   -11529228.21949  -8958422.95445  23638405.103    23638411.393
       214.000         155.000
  23438752.317   -11879604.40649  -8946792.86845  23438751.780    23438758.181
       214.000         153.000
